[[{"header":{"parameterUnit":"m.s-1","parameterCategory":1,"la1":30.6,"la2":29.2853,"lo1":-89.7004,"lo2":-87.6739,"dy":0.0162,"dx":0.0183,"nx":112,"ny":82,"refTime":"2024-07-28T12:00:00:Z","depth":0,"parameterNumber":2,"parameterNumberName":"U-component_of_WINDS"},"data":[0.0,0.0,0.0,0.0,0.0,0.0,0.0,0.0,0.0,0.0,0.0,0.0,0.0,0.0,0.0,0.0,0.0,0.0,0.0,0.0,0.0,0.0,0.0,0.0,0.0,0.0,0.0,0.0,0.0,0.0,0.0,0.0,0.0,0.0,0.0,0.0,0.0,0.0,0.0,0.0,0.0,0.0,0.0,0.0,0.0,0.0,0.0,0.0,0.0,0.0,0.0,0.0,0.0,0.0,0.0,0.0,0.0,0.0,0.0,0.0,0.0,0.0,0.0,0.0,0.0,0.0,0.0,0.0,0.0,0.0,0.0,0.0,0.0,0.0,0.0,0.0,0.0,0.0,0.0,0.0,0.0,0.0,0.0,0.0,0.0,0.0,0.0,0.0,0.0,0.0,0.0,-1.7985,-1.9649,-2.0395,-1.9804,-1.9293,-1.7722,-1.4722,0.0,0.0,0.0,0.0,0.0,0.0,0.0,0.0,0.0,0.0,0.0,0.0,0.0,0.0,0.0,0.0,0.0,0.0,0.0,0.0,0.0,0.0,0.0,0.0,0.0,0.0,0.0,0.0,0.0,0.0,0.0,0.0,0.0,0.0,0.0,0.0,0.0,0.0,0.0,0.0,0.0,0.0,0.0,0.0,0.0,0.0,0.0,0.0,0.0,0.0,0.0,0.0,0.0,0.0,0.0,0.0,0.0,0.0,0.0,0.0,0.0,0.0,0.0,0.0,0.0,0.0,0.0,0.0,0.0,0.0,0.0,0.0,0.0,0.0,0.0,0.0,0.0,0.0,0.0,0.0,0.0,0.0,0.0,0.0,0.0,0.0,0.0,0.0,0.0,0.0,0.0,0.0,0.0,0.0,0.0,0.0,0.0,0.0,0.0,0.0,0.0,0.0,0.0,0.0,-1.5799,-1.8642,-1.9195,-1.9324,-1.9239,-1.8723,-1.7384,-1.4913,0.0,0.0,0.0,0.0,0.0,0.0,0.0,0.0,0.0,0.0,0.0,0.0,0.0,0.0,0.0,0.0,0.0,0.0,0.0,0.0,0.0,0.0,0.0,0.0,0.0,0.0,0.0,0.0,0.0,0.0,0.0,0.0,0.0,0.0,0.0,0.0,0.0,0.0,0.0,0.0,0.0,0.0,0.0,0.0,0.0,0.0,0.0,0.0,0.0,0.0,0.0,0.0,0.0,0.0,0.0,0.0,0.0,0.0,0.0,0.0,0.0,0.0,0.0,0.0,0.0,0.0,0.0,0.0,0.0,0.0,0.0,0.0,0.0,0.0,0.0,0.0,0.0,0.0,0.0,0.0,0.0,0.0,0.0,0.0,0.0,0.0,0.0,0.0,0.0,0.0,0.0,0.0,0.0,0.0,0.0,0.0,0.0,0.0,0.0,0.0,0.0,0.0,0.0,-1.4671,-1.5942,-1.7942,-1.8182,-1.8189,-1.8179,-1.7648,-1.6329,-1.4075,-1.2962,0.0,0.0,0.0,0.0,0.0,0.0,0.0,0.0,0.0,0.0,0.0,0.0,0.0,0.0,0.0,0.0,0.0,0.0,0.0,0.0,0.0,0.0,0.0,0.0,0.0,0.0,0.0,0.0,0.0,0.0,0.0,0.0,0.0,0.0,0.0,0.0,0.0,0.0,0.0,0.0,0.0,0.0,0.0,0.0,0.0,0.0,0.0,0.0,0.0,0.0,0.0,0.0,0.0,0.0,0.0,0.0,0.0,0.0,0.0,0.0,0.0,0.0,0.0,0.0,0.0,0.0,0.0,0.0,0.0,0.0,0.0,0.0,0.0,0.0,0.0,0.0,0.0,0.0,0.0,0.0,0.0,0.0,0.0,0.0,0.0,0.0,0.0,0.0,0.0,0.0,0.0,0.0,0.0,0.0,0.0,0.0,0.0,0.0,0.0,0.0,0.0,0.0,-1.5568,-1.622,-1.7087,-1.7174,-1.7174,-1.7174,-1.6534,-1.5304,-1.3323,-1.2124,0.0,0.0,0.0,0.0,0.0,0.0,0.0,0.0,0.0,0.0,0.0,0.0,0.0,0.0,0.0,0.0,0.0,0.0,0.0,0.0,0.0,0.0,0.0,0.0,0.0,0.0,0.0,0.0,0.0,0.0,0.0,0.0,0.0,0.0,0.0,0.0,0.0,0.0,0.0,0.0,0.0,0.0,0.0,0.0,0.0,0.0,0.0,0.0,0.0,0.0,0.0,0.0,0.0,0.0,0.0,0.0,0.0,0.0,0.0,0.0,0.0,0.0,0.0,0.0,0.0,0.0,0.0,0.0,0.0,0.0,0.0,0.0,0.0,0.0,0.0,0.0,0.0,0.0,0.0,0.0,0.0,0.0,0.0,0.0,0.0,0.0,0.0,0.0,0.0,0.0,0.0,0.0,0.0,0.0,0.0,0.0,0.0,0.0,0.0,0.0,0.0,0.0,-1.5166,-1.6497,-1.6572,-1.6572,-1.6572,-1.6572,-1.5593,-1.4488,-1.3273,-1.1401,0.0,0.0,0.0,0.0,0.0,0.0,0.0,0.0,0.0,0.0,0.0,0.0,0.0,0.0,0.0,0.0,0.0,0.0,0.0,0.0,0.0,0.0,0.0,0.0,0.0,0.0,0.0,0.0,0.0,0.0,0.0,0.0,0.0,0.0,0.0,0.0,0.0,0.0,0.0,0.0,0.0,0.0,0.0,0.0,0.0,0.0,0.0,0.0,0.0,0.0,0.0,0.0,0.0,0.0,0.0,0.0,0.0,0.0,0.0,0.0,0.0,0.0,0.0,0.0,0.0,0.0,0.0,0.0,0.0,0.0,0.0,0.0,0.0,0.0,0.0,0.0,0.0,0.0,0.0,0.0,0.0,0.0,0.0,0.0,0.0,0.0,0.0,0.0,0.0,0.0,0.0,0.0,0.0,0.0,0.0,0.0,0.0,0.0,0.0,0.0,0.0,0.0,-1.4551,-1.5756,0.0,-1.6522,-1.6522,-1.6522,-1.6132,-1.5141,-1.3311,0.0,0.0,0.0,0.0,0.0,0.0,0.0,0.0,0.0,0.0,0.0,0.0,0.0,0.0,0.0,0.0,0.0,0.0,0.0,0.0,0.0,0.0,0.0,0.0,0.0,0.0,0.0,0.0,0.0,0.0,0.0,0.0,0.0,0.0,0.0,0.0,0.0,0.0,0.0,0.0,0.0,0.0,0.0,0.0,0.0,0.0,0.0,0.0,0.0,0.0,0.0,0.0,0.0,0.0,0.0,0.0,0.0,0.0,0.0,0.0,0.0,0.0,0.0,0.0,0.0,0.0,0.0,0.0,0.0,0.0,0.0,0.0,0.0,0.0,0.0,0.0,0.0,0.0,0.0,0.0,0.0,0.0,0.0,0.0,0.0,0.0,0.0,0.0,0.0,0.0,0.0,0.0,0.0,0.0,0.0,0.0,0.0,0.0,0.0,0.0,0.0,0.0,-1.296,-1.45,-1.568,0.0,-1.6522,-1.6522,-1.6522,-1.6032,-1.494,-1.3048,0.0,0.0,0.0,0.0,0.0,0.0,0.0,0.0,0.0,0.0,0.0,0.0,0.0,0.0,0.0,0.0,0.0,0.0,0.0,0.0,0.0,0.0,0.0,0.0,0.0,0.0,0.0,0.0,0.0,0.0,0.0,0.0,0.0,0.0,0.0,0.0,0.0,0.0,0.0,0.0,0.0,0.0,0.0,0.0,0.0,0.0,0.0,0.0,0.0,0.0,0.0,0.0,0.0,0.0,0.0,0.0,0.0,0.0,0.0,0.0,0.0,0.0,0.0,0.0,0.0,0.0,0.0,0.0,0.0,0.0,0.0,0.0,0.0,0.0,0.0,0.0,0.0,0.0,0.0,0.0,0.0,0.0,0.0,0.0,0.0,0.0,0.0,0.0,0.0,0.0,0.0,0.0,0.0,0.0,0.0,0.0,0.0,0.0,0.0,0.0,0.0,0.0,-1.306,-1.5114,-1.6522,-1.6522,-1.6522,-1.6522,-1.6522,-1.5054,-1.3632,0.0,0.0,0.0,0.0,0.0,0.0,0.0,0.0,0.0,0.0,0.0,0.0,0.0,0.0,0.0,0.0,0.0,0.0,0.0,0.0,0.0,0.0,0.0,0.0,0.0,0.0,0.0,0.0,0.0,0.0,0.0,0.0,0.0,0.0,0.0,0.0,0.0,0.0,0.0,0.0,0.0,0.0,0.0,0.0,0.0,0.0,0.0,0.0,0.0,0.0,0.0,0.0,0.0,0.0,0.0,0.0,0.0,0.0,0.0,0.0,0.0,0.0,0.0,0.0,0.0,0.0,0.0,0.0,0.0,0.0,0.0,0.0,0.0,0.0,0.0,0.0,0.0,0.0,0.0,0.0,0.0,0.0,0.0,0.0,0.0,0.0,0.0,0.0,0.0,0.0,0.0,0.0,0.0,0.0,0.0,0.0,0.0,0.0,0.0,0.0,0.0,0.0,0.0,0.0,-1.5114,-1.6522,-1.6522,-1.6522,-1.6522,-1.6522,-1.5718,-1.4576,-1.3048,0.0,0.0,0.0,0.0,0.0,0.0,0.0,0.0,0.0,0.0,0.0,0.0,0.0,0.0,0.0,0.0,0.0,0.0,0.0,0.0,0.0,0.0,0.0,0.0,0.0,0.0,0.0,0.0,0.0,0.0,0.0,0.0,0.0,0.0,0.0,0.0,0.0,0.0,0.0,0.0,0.0,0.0,0.0,0.0,0.0,0.0,0.0,0.0,0.0,0.0,0.0,0.0,0.0,0.0,0.0,0.0,0.0,0.0,0.0,0.0,0.0,0.0,0.0,0.0,0.0,0.0,0.0,0.0,0.0,0.0,0.0,0.0,0.0,0.0,0.0,0.0,0.0,0.0,0.0,0.0,0.0,0.0,0.0,0.0,0.0,0.0,0.0,0.0,0.0,0.0,0.0,0.0,0.0,0.0,0.0,0.0,0.0,0.0,0.0,0.0,0.0,0.0,-1.306,-1.5114,-1.6522,-1.6522,-1.6522,-1.6423,-1.6151,-1.5882,-1.486,-1.2959,0.0,0.0,0.0,0.0,0.0,0.0,0.0,0.0,0.0,0.0,0.0,0.0,0.0,0.0,0.0,0.0,0.0,0.0,0.0,0.0,0.0,0.0,0.0,0.0,0.0,0.0,0.0,0.0,0.0,0.0,0.0,0.0,0.0,0.0,0.0,0.0,0.0,0.0,0.0,0.0,0.0,0.0,0.0,0.0,0.0,0.0,0.0,0.0,0.0,0.0,0.0,0.0,0.0,0.0,0.0,0.0,0.0,0.0,0.0,0.0,0.0,0.0,0.0,0.0,0.0,0.0,0.0,0.0,0.0,0.0,0.0,0.0,0.0,0.0,0.0,0.0,0.0,0.0,0.0,0.0,0.0,0.0,0.0,0.0,0.0,0.0,0.0,0.0,0.0,0.0,0.0,0.0,0.0,0.0,0.0,0.0,0.0,0.0,0.0,0.0,0.0,0.0,-1.306,-1.5074,-1.6423,-1.6466,-1.6466,-1.6182,-1.5632,-1.5605,-1.47,-1.2492,0.0,0.0,0.0,0.0,0.0,0.0,0.0,0.0,0.0,0.0,0.0,0.0,0.0,0.0,0.0,0.0,0.0,0.0,0.0,0.0,0.0,0.0,0.0,0.0,0.0,0.0,0.0,0.0,0.0,0.0,0.0,0.0,0.0,0.0,0.0,0.0,0.0,0.0,0.0,0.0,0.0,0.0,0.0,0.0,0.0,0.0,0.0,0.0,0.0,0.0,0.0,0.0,0.0,0.0,0.0,0.0,0.0,0.0,0.0,0.0,-1.8622,0.0,0.0,0.0,0.0,0.0,0.0,0.0,0.0,0.0,0.0,0.0,0.0,0.0,0.0,0.0,0.0,0.0,0.0,0.0,0.0,0.0,0.0,0.0,0.0,0.0,0.0,0.0,0.0,0.0,0.0,0.0,0.0,0.0,0.0,0.0,0.0,0.0,0.0,0.0,0.0,0.0,-1.306,-1.4731,-1.5952,-1.6466,-1.6095,-1.5732,-1.5632,-1.5222,-1.4393,-1.2939,0.0,0.0,0.0,0.0,0.0,0.0,0.0,0.0,0.0,0.0,0.0,0.0,0.0,0.0,0.0,0.0,0.0,0.0,0.0,0.0,0.0,0.0,0.0,0.0,0.0,0.0,0.0,0.0,0.0,0.0,0.0,0.0,0.0,0.0,0.0,0.0,0.0,0.0,0.0,0.0,0.0,0.0,0.0,0.0,0.0,0.0,0.0,0.0,0.0,0.0,0.0,0.0,0.0,0.0,0.0,0.0,0.0,0.0,0.0,0.0,0.0,-1.978,0.0,0.0,0.0,0.0,0.0,0.0,0.0,0.0,0.0,0.0,0.0,0.0,0.0,0.0,0.0,0.0,0.0,0.0,0.0,0.0,0.0,0.0,0.0,0.0,0.0,0.0,0.0,0.0,0.0,0.0,0.0,0.0,0.0,0.0,0.0,0.0,0.0,0.0,0.0,0.0,-1.3034,-1.4581,-1.5599,-1.5656,-1.5332,-1.505,-1.4767,-1.4732,-1.4236,-1.3087,-1.2012,0.0,0.0,0.0,0.0,0.0,0.0,0.0,0.0,0.0,0.0,0.0,0.0,0.0,0.0,0.0,0.0,0.0,0.0,0.0,0.0,0.0,0.0,0.0,0.0,0.0,0.0,0.0,0.0,0.0,0.0,0.0,0.0,0.0,0.0,0.0,0.0,0.0,0.0,0.0,0.0,0.0,0.0,0.0,0.0,0.0,0.0,0.0,0.0,0.0,0.0,0.0,0.0,0.0,0.0,-2.5608,-2.6303,-2.6143,-2.595,-2.5459,-2.2652,-2.1602,-2.1775,0.0,0.0,0.0,0.0,0.0,0.0,0.0,0.0,0.0,0.0,0.0,0.0,0.0,0.0,0.0,0.0,0.0,0.0,0.0,0.0,0.0,0.0,0.0,0.0,0.0,-1.7174,-1.6986,0.0,0.0,0.0,0.0,0.0,0.0,0.0,0.0,0.0,0.0,0.0,0.0,-1.303,-1.4378,-1.5141,-1.4744,-1.4606,-1.4329,-1.3815,-1.4236,-1.412,-1.3062,-1.2499,-1.179,0.0,0.0,0.0,0.0,0.0,0.0,0.0,0.0,0.0,0.0,0.0,0.0,0.0,0.0,0.0,0.0,0.0,0.0,0.0,0.0,0.0,0.0,0.0,0.0,0.0,0.0,0.0,0.0,0.0,0.0,0.0,0.0,-1.6434,-1.6738,0.0,0.0,0.0,0.0,0.0,0.0,0.0,0.0,0.0,0.0,0.0,0.0,0.0,0.0,-2.2728,-2.4689,-2.573,-2.5936,-2.7939,-2.8949,-2.9056,-2.832,-2.7669,-2.6879,-2.58,0.0,-2.2862,-2.1197,0.0,0.0,0.0,0.0,0.0,0.0,0.0,0.0,0.0,0.0,0.0,0.0,0.0,0.0,0.0,0.0,0.0,0.0,0.0,0.0,0.0,0.0,-1.8493,-1.8078,-1.8041,-1.799,0.0,-1.6052,-1.4311,-1.322,0.0,0.0,0.0,0.0,0.0,0.0,0.0,0.0,-1.2903,-1.3596,-1.419,-1.4652,-1.4236,-1.3909,-1.3826,-1.3862,-1.3616,-1.2986,-1.2464,-1.1995,-1.1489,-1.0477,0.0,0.0,0.0,0.0,0.0,0.0,0.0,0.0,0.0,0.0,0.0,0.0,0.0,0.0,0.0,0.0,0.0,0.0,0.0,0.0,0.0,0.0,0.0,0.0,0.0,0.0,0.0,0.0,0.0,-1.6177,-1.831,-1.8285,-1.8917,-1.8713,0.0,0.0,0.0,0.0,0.0,0.0,0.0,0.0,0.0,-2.2736,-2.2735,-2.3507,-2.5026,-2.6492,-2.7566,-2.8274,-2.9797,-3.057,-3.0687,-3.0288,-2.9433,-2.8201,-2.7551,-2.6256,-2.445,-2.2722,-2.1864,-2.1547,0.0,0.0,0.0,0.0,0.0,-2.1401,-2.22,-2.2458,0.0,0.0,0.0,0.0,0.0,0.0,0.0,0.0,0.0,0.0,0.0,0.0,0.0,-1.9095,-1.9108,-1.902,-1.8731,-1.7903,-1.6886,0.0,-1.4852,-1.3825,-1.2399,0.0,0.0,0.0,0.0,0.0,-1.2947,-1.3496,-1.3779,-1.3705,-1.3467,-1.3286,-1.3286,-1.3286,-1.32,-1.2929,-1.2705,-1.2393,-1.1953,-1.1269,-1.0454,0.0,0.0,0.0,0.0,0.0,0.0,0.0,0.0,0.0,0.0,0.0,0.0,0.0,0.0,0.0,0.0,0.0,0.0,0.0,0.0,0.0,0.0,0.0,0.0,0.0,0.0,0.0,0.0,-1.7754,-1.9571,-1.9359,-2.0548,-2.0537,0.0,0.0,0.0,0.0,0.0,0.0,-2.2769,-2.3049,-2.3612,-2.4519,-2.47,-2.5602,-2.7258,-2.8172,-2.9236,-3.0462,-3.1358,-3.1896,-3.2033,-3.1589,-3.0621,-2.9196,-2.8414,-2.7205,-2.5728,-2.4051,-2.3367,-2.331,-2.2427,-2.2241,-2.2465,-2.3045,-2.3353,-2.3676,-2.4565,-2.4881,-2.4747,-2.3939,0.0,-2.1327,-1.9376,0.0,0.0,0.0,0.0,-1.8216,-1.9196,-1.9334,-1.9321,-1.971,-1.9798,-1.9698,-1.9309,-1.9221,-1.8907,0.0,-1.6911,-1.5857,-1.4383,0.0,0.0,0.0,0.0,-1.3334,-1.3427,-1.3651,-1.3637,-1.32,-1.2968,-1.2881,-1.2881,-1.2881,-1.2881,-1.2881,-1.2881,-1.2734,-1.2412,-1.1973,-1.1256,-1.0253,0.0,0.0,0.0,0.0,0.0,0.0,0.0,0.0,0.0,0.0,0.0,0.0,0.0,0.0,0.0,0.0,0.0,0.0,0.0,0.0,0.0,0.0,0.0,0.0,0.0,0.0,0.0,0.0,0.0,-1.9722,-2.2484,0.0,0.0,0.0,0.0,-2.1288,-2.2872,-2.3891,-2.3825,-2.4996,-2.5845,-2.6319,-2.6861,-2.7838,-2.9359,-3.0242,-3.1128,-3.2097,-3.2978,-3.3363,-3.338,-3.1857,-3.0742,-2.9896,-2.8383,-2.7245,-2.6345,-2.4671,-2.3953,-2.3988,-2.3982,-2.448,-2.5204,-2.5176,-2.5689,-2.6299,-2.5764,-2.5555,-2.5644,-2.6213,-2.5419,-2.3957,-2.1995,-2.0919,0.0,0.0,-2.0087,-1.9823,-2.0426,-2.0175,-1.9773,-1.9798,-1.9798,-1.9798,-1.9773,-1.9761,-1.9447,0.0,-1.8116,-1.7714,-1.6541,0.0,-1.542,-1.4719,-1.4313,-1.4171,-1.4563,-1.4133,-1.3779,-1.3779,-1.3238,-1.2881,-1.2881,-1.2881,-1.2881,-1.2881,-1.2881,-1.2871,-1.2852,-1.2432,-1.1777,-1.0859,-0.9609,0.0,0.0,0.0,0.0,0.0,0.0,0.0,0.0,0.0,0.0,0.0,0.0,0.0,0.0,0.0,0.0,0.0,0.0,0.0,0.0,0.0,0.0,0.0,0.0,0.0,0.0,0.0,0.0,-2.2179,-2.4014,0.0,0.0,-2.3835,-2.4343,-2.3741,-2.4637,-2.5506,-2.6254,-2.6618,-2.7267,-2.843,-2.8651,-2.9425,-3.0964,-3.1853,-3.2482,-3.2789,-3.372,-3.3903,-3.3484,-3.2305,-3.1119,-2.9951,-2.8746,-2.754,-2.6483,-2.5892,-2.536,-2.4971,-2.4671,-2.4754,-2.5084,-2.5539,-2.6256,-2.6985,-2.6785,-2.7063,-2.7375,-2.6306,-2.5049,-2.3701,-2.259,-2.1771,-2.1199,-2.1197,-2.1041,-2.0853,-2.0756,-2.0567,-2.0263,-1.9886,-1.9798,-1.9798,-1.9798,-1.9798,-1.9698,-1.9309,-1.8957,-1.8384,-1.7343,-1.6614,-1.5875,-1.4979,-1.4631,-1.4553,-1.4687,-1.419,-1.3815,-1.3815,-1.3238,-1.2881,-1.2881,-1.2881,-1.2764,-1.248,-1.2461,-1.2334,-1.2086,-1.1885,-1.1523,-1.0918,-1.0195,-0.9259,0.0,0.0,0.0,0.0,0.0,0.0,0.0,0.0,0.0,0.0,0.0,0.0,0.0,0.0,0.0,0.0,0.0,0.0,0.0,0.0,0.0,0.0,0.0,0.0,0.0,0.0,-2.3625,-2.3908,-2.5719,-2.6456,-2.5171,-2.6208,-2.6833,-2.6414,-2.681,-2.7577,-2.8665,-2.8469,-2.8963,-3.0207,-3.0478,-3.1182,-3.2553,-3.3192,-3.3622,-3.3944,-3.4545,-3.4592,-3.4095,-3.2638,-3.1495,-3.048,-2.8807,-2.7575,-2.6798,-2.6596,-2.6239,-2.585,-2.5511,-2.5557,-2.5845,-2.6099,-2.6938,-2.786,-2.7483,-2.7541,-2.7505,-2.5756,-2.4567,-2.373,-2.3007,-2.2419,-2.2046,-2.2046,-2.1907,-2.1681,-2.1317,-2.0941,-2.0618,-2.0188,-1.9936,-1.9798,-1.9798,-1.9798,-1.9798,-1.9798,-1.9522,-1.9008,-1.8167,-1.7605,-1.693,-1.5913,-1.5658,-1.5542,-1.5311,-1.4606,-1.4097,-1.4097,-1.3382,-1.2881,-1.2881,-1.2881,-1.284,-1.2732,-1.2749,-1.264,-1.2395,-1.2374,-1.2011,-1.1205,-1.043,-0.9648,-0.8799,0.0,0.0,0.0,0.0,0.0,0.0,0.0,0.0,0.0,0.0,0.0,0.0,0.0,0.0,0.0,0.0,0.0,0.0,0.0,0.0,0.0,0.0,0.0,-1.9065,-2.3146,-2.5758,-2.4852,-2.7634,-2.8833,-2.6823,-2.8857,-2.9964,-2.9205,-2.9417,-3.0021,-3.096,-3.067,-3.0936,-3.1875,-3.236,-3.3101,-3.4027,-3.4027,-3.4543,-3.5504,-3.5504,-3.5504,-3.5409,-3.299,-3.1847,-3.164,-2.8672,-2.7389,-2.7243,-2.6703,-2.6546,-2.6533,-2.6533,-2.6973,-2.7604,-2.6947,-2.7783,-2.9029,-2.7921,-2.6961,-2.5983,-2.478,-2.4305,-2.4176,-2.3365,-2.3138,-2.3078,-2.3078,-2.2749,-2.2334,-2.2322,-2.1518,-2.0756,-2.0731,-2.0238,-1.9823,-1.9798,-1.9798,-1.9798,-1.9798,-1.9798,-1.9635,-1.9083,-1.8983,-1.8656,-1.7564,-1.7388,0.0,-1.6597,-1.5433,-1.4698,-1.4698,-1.361,-1.2881,-1.2881,-1.2881,-1.3142,-1.3711,-1.3758,-1.3768,-1.3839,-1.3817,-1.3161,-1.1713,-1.0326,-0.9631,-0.9612,0.0,0.0,0.0,0.0,0.0,0.0,0.0,0.0,0.0,0.0,0.0,0.0,0.0,0.0,0.0,0.0,0.0,0.0,0.0,0.0,0.0,0.0,-2.207,-2.2847,-2.5006,-2.6879,-2.8068,-2.943,-3.0167,-2.9941,-3.056,-3.084,-3.0522,-3.0883,-3.1323,-3.1598,-3.1817,-3.2429,-3.3346,-3.3516,-3.4109,-3.5067,-3.5067,-3.5213,-3.5504,-3.5504,-3.5504,-3.5424,-3.4071,-3.2817,-3.1751,-3.0206,-2.8718,-2.7268,-2.7118,-2.6816,-2.6533,-2.6533,-2.6658,-2.6824,-2.6591,-2.6896,-2.7466,-2.7778,-2.7145,-2.6153,-2.5758,-2.503,-2.4234,-2.406,-2.3543,-2.3078,-2.3078,-2.2965,-2.2811,-2.2422,-2.2083,-2.1656,-2.0853,-2.0592,-2.0313,-1.9886,-1.9798,-1.9798,-1.9798,-1.9798,-1.9761,-1.961,-1.9284,-1.8794,-1.8078,-1.7639,0.0,-1.6597,-1.5433,-1.4698,-1.4698,-1.361,-1.2881,-1.2881,-1.2881,-1.284,0.0,-1.2626,-1.2508,-1.2223,-1.2246,-1.2047,-1.1644,-1.0922,-1.041,0.0,0.0,0.0,0.0,0.0,0.0,0.0,0.0,0.0,0.0,0.0,0.0,0.0,0.0,0.0,0.0,0.0,0.0,0.0,0.0,0.0,0.0,-2.1483,-2.4207,-2.5873,-2.7152,-2.8368,-2.9804,-3.0537,-3.1157,-3.1672,-3.2009,-3.2232,-3.2421,-3.2638,-3.2925,-3.336,-3.3265,-3.3602,-3.461,-3.461,-3.4905,-3.5504,-3.5504,-3.5504,-3.5504,-3.5504,-3.5504,-3.5439,-3.4461,-3.3539,0.0,-3.1484,-3.0294,-2.914,-2.8667,-2.8273,0.0,0.0,0.0,0.0,0.0,-2.6809,-2.6673,-2.7314,-2.6693,-2.5588,-2.5349,-2.459,-2.3826,-2.3826,-2.3484,-2.3078,-2.3078,-2.3078,-2.3002,-2.2736,-2.2485,-2.2096,-2.1217,-2.0882,-2.0501,-1.9924,-1.9798,-1.9798,-1.9798,0.0,0.0,-1.9798,-1.9547,-1.9171,-1.8631,-1.8078,-1.7526,-1.6961,-1.5608,-1.4698,-1.4698,-1.361,-1.2881,-1.2881,-1.2881,0.0,0.0,0.0,-1.2782,-1.2578,-1.2121,0.0,0.0,0.0,0.0,0.0,0.0,0.0,0.0,-0.9638,-0.9086,0.0,0.0,0.0,0.0,0.0,0.0,0.0,0.0,0.0,0.0,0.0,0.0,0.0,0.0,0.0,0.0,-2.3708,-2.5873,-2.8181,-2.9186,-2.9924,-3.0552,-3.1165,-3.1824,-3.2557,-3.3155,-3.3799,-3.4547,-3.4354,-3.4543,-3.5424,0.0,0.0,0.0,0.0,-3.5504,-3.5504,-3.5504,-3.5504,-3.5504,-3.5504,-3.5504,-3.5439,-3.461,-3.4095,-3.3916,-3.2595,-3.1972,-3.1681,-3.0533,-2.9979,-2.9683,-2.7613,-2.6782,-2.685,-2.7484,-2.7229,0.0,-2.6765,0.0,0.0,-2.4368,-2.3714,-2.3138,-2.3185,-2.3185,-2.3078,-2.3078,-2.3078,-2.3078,-2.3078,-2.2723,-2.2171,-2.1619,-2.1066,-2.0501,-1.9924,-1.9798,-1.9798,-1.9798,-1.9798,-1.9798,-1.9798,-1.9798,-1.9623,-1.9058,-1.8555,-1.8003,-1.7451,-1.5899,-1.4789,-1.4698,0.0,0.0,-1.2929,-1.2881,-1.3152,-1.3637,-1.3684,-1.3729,-1.3762,-1.2848,-1.2565,-1.2979,-1.2517,-1.249,-1.2881,-1.2822,-1.2501,-1.1886,-1.0302,-0.9598,0.0,0.0,0.0,0.0,0.0,0.0,0.0,0.0,0.0,0.0,0.0,0.0,0.0,0.0,0.0,-2.3017,-2.5394,-2.7573,-2.9016,-2.9835,-3.0567,-3.1255,-3.1392,-3.2003,-3.3185,-3.3425,-3.3993,-3.522,-3.5285,-3.5279,-3.5504,-3.5294,0.0,-3.5504,-3.5504,-3.5504,-3.5504,-3.5504,-3.5504,-3.5504,0.0,0.0,-3.5504,-3.5294,-3.4758,-3.4013,-3.3679,-3.2928,-3.1709,-3.0989,-3.0052,-2.9168,-2.8661,-2.8492,-2.8427,-2.792,-2.7604,-2.7404,-2.6777,-2.5782,-2.4859,-2.5379,-2.441,-2.3185,-2.3884,-2.359,0.0,-2.3078,-2.3078,-2.3078,-2.3078,-2.2723,-2.2171,-2.1619,-2.1066,-2.0501,-1.9924,-1.9798,-1.9798,-1.9798,-1.9798,-1.9798,-1.9798,-1.9798,-1.9623,-1.9058,-1.8555,-1.8003,-1.7451,-1.626,-1.5231,-1.4744,-1.4061,-1.342,-1.2929,-1.2881,-1.2978,-1.3065,-1.3055,-1.3074,-1.308,-1.2895,-1.2847,-1.2936,-1.2802,-1.2803,-1.2881,-1.2295,-1.2236,-1.2657,-1.1757,-1.1059,0.0,0.0,0.0,0.0,0.0,0.0,0.0,0.0,0.0,0.0,0.0,-1.8232,0.0,0.0,-2.3312,-2.5127,-2.7159,-2.8951,-3.0328,-3.1137,-3.1516,-3.148,-3.1482,-3.2048,-3.3365,-3.3499,-3.4053,-3.54,-3.5831,-3.6054,-3.6054,-3.6415,-3.6477,-3.6054,-3.6054,-3.5894,-3.5504,-3.5504,-3.5504,-3.5504,-3.5504,-3.5504,-3.5504,-3.5504,-3.5213,-3.4758,-3.4758,-3.4301,-3.3576,-3.2544,-3.1406,-3.0269,-3.0269,-2.9766,-2.8939,-2.8492,-2.8363,-2.8298,-2.7855,-2.7233,-2.6516,-2.6566,-2.5748,-2.4707,-2.4371,-2.4002,-2.3603,-2.3185,-2.3078,-2.3078,-2.3078,-2.2924,-2.2523,-2.1681,-2.128,-2.084,-1.9987,-1.9798,-1.9798,-1.9798,-1.9798,-1.9798,-1.9798,-1.9798,-1.971,-1.9459,-1.8957,-1.8518,-1.8242,-1.691,-1.5752,-1.5161,-1.4331,-1.3552,-1.2978,-1.2881,-1.2881,-1.2881,-1.2881,-1.2881,-1.2881,-1.2881,-1.2881,-1.2881,-1.2881,-1.2881,-1.2881,-1.255,-1.2559,-1.2881,-1.2719,-1.2291,0.0,0.0,0.0,0.0,0.0,0.0,0.0,0.0,-1.8916,-2.0448,-2.0473,-2.081,-2.2565,-2.393,-2.5351,-2.7301,-2.8986,-3.0443,-3.1605,-3.2338,-3.2586,-3.1992,-3.1894,-3.241,-3.3803,-3.3939,-3.4501,-3.5867,-3.6523,-3.6843,-3.6843,-3.7456,-3.7515,-3.6843,-3.6661,-3.6337,-3.5733,-3.5554,-3.5504,-3.5504,-3.5504,-3.5504,-3.5504,-3.5504,-3.5504,-3.5504,-3.5504,-3.5429,-3.522,-3.3993,-3.2796,-3.1661,-3.1526,-3.0644,-2.9442,-2.9317,-2.9254,-2.9254,-2.9066,-2.8664,-2.8116,-2.7579,-2.6967,-2.6185,-2.4912,-2.4408,-2.4118,-2.3305,-2.3078,-2.3078,-2.3078,-2.299,-2.2749,-2.1857,-2.1493,-2.1079,-2.0162,-1.9874,-1.9798,-1.9798,-1.9798,-1.9798,-1.9798,-1.9798,-1.9798,-1.9798,-1.9359,-1.8983,-1.8983,-1.7676,-1.6527,-1.5921,-1.4803,-1.3788,-1.2978,-1.2881,-1.2881,-1.2881,-1.2881,-1.2881,-1.2881,-1.2881,-1.2881,-1.2881,-1.2881,-1.2881,-1.2881,-1.2881,-1.292,-1.3008,-1.335,-1.3189,-2.0466,-1.9986,-2.0091,-2.2002,-2.233,-2.2736,0.0,0.0,-2.3807,-2.4119,-2.4474,-2.4874,-2.5094,-2.7145,-2.8857,-2.9131,-3.0866,-3.2299,-3.2478,-3.3098,-3.3443,-3.3375,-3.3391,-3.3932,-3.5347,-3.5419,-3.6006,-3.7419,-3.7632,-3.769,-3.769,-3.7764,-3.7764,-3.769,-3.6964,-3.6554,-3.6508,-3.5831,-3.5504,-3.5504,-3.5504,-3.5504,-3.5504,-3.5504,-3.5504,-3.5504,-3.5504,-3.516,-3.4532,-3.3799,-3.3066,-3.2347,-3.1706,-3.1409,-3.1146,-3.0389,-3.0133,-3.0011,-2.9254,-2.8664,-2.8177,-2.8166,-2.7371,-2.6242,-2.5535,-2.4851,-2.4118,-2.3305,-2.3078,-2.3078,-2.3078,-2.2774,-2.2372,-2.2246,-2.1468,-2.0769,-2.0655,-2.0162,-1.9798,-1.9798,-1.9798,-1.9798,-1.9798,-1.9798,-1.9798,-1.9798,-1.9359,-1.8983,-1.8983,-1.8384,-1.7747,-1.7134,-1.6038,-1.4666,-1.3056,-1.2881,-1.2881,-1.2881,-1.2881,-1.2881,-1.2881,-1.2881,-1.2881,-1.2881,-1.2881,-1.2881,-1.2881,-1.2881,-1.3076,-1.3437,-1.3486,-1.3455,-2.2757,-2.2644,0.0,0.0,-2.4552,-2.5038,-2.6423,-2.5842,-2.5181,-2.5597,-2.5583,-2.555,-2.584,-2.7485,-2.8915,0.0,-3.1155,-3.2749,-3.3145,-3.3735,-3.4333,-3.4704,-3.4752,-3.5021,-3.562,-3.5694,-3.6286,-3.771,-3.8206,-3.8414,-3.8414,-3.887,-3.8941,-3.8469,-3.8117,-3.7716,-3.7322,-3.6995,-3.6585,-3.6165,-3.6165,-3.5894,-3.5504,-3.5504,-3.5504,-3.5504,-3.5504,-3.5115,-3.4427,-3.3769,-3.3095,-3.2452,-3.1735,-3.1482,-3.1467,-3.1087,-3.1029,-3.097,-3.0584,-3.0029,-2.9508,-2.9178,-2.8422,-2.7509,-2.6361,-2.5508,-2.4781,-2.3989,-2.3484,-2.3078,-2.3078,-2.2902,-2.2636,-2.1983,-2.1481,-2.0966,-2.0313,-1.9974,-1.9798,-1.9798,-1.9798,-1.9798,-1.9798,-1.9798,-1.9798,-1.9798,-1.9623,-1.9472,-1.9472,-1.9007,-1.808,-1.6452,-1.5207,-1.4084,-1.2988,-1.2881,-1.2881,-1.2881,-1.2881,-1.2881,-1.2881,-1.2881,-1.2881,-1.2881,-1.2881,-1.2998,-1.3242,-1.3242,-1.3467,-1.3877,-1.4131,-1.4248,-2.4522,0.0,0.0,-2.5915,-2.6582,-2.7188,-2.7607,-2.7211,-2.6826,-2.7131,-2.6878,-2.6626,-2.7028,-2.8115,0.0,-2.9837,-3.1542,-3.3081,-3.3754,-3.4431,-3.5052,-3.5515,-3.5622,-3.5726,-3.5997,-3.6186,-3.6901,-3.8332,-3.8924,-3.9262,-3.9262,-3.9782,-3.9833,-3.9262,-3.9032,-3.8635,-3.8092,-3.7921,-3.7515,-3.6904,-3.6737,-3.6337,-3.5782,-3.5619,-3.5504,-3.5504,-3.5504,-3.522,-3.4696,-3.3844,-3.3215,-3.2706,-3.1795,-3.1482,-3.1482,-3.1482,-3.1482,-3.1482,-3.1482,-3.121,-3.0657,-2.9849,-2.9265,-2.8591,-2.6968,-2.6122,-2.5508,-2.4567,-2.3884,-2.3365,-2.3138,-2.3078,-2.2899,-2.1945,-2.1594,-2.1217,-2.025,-1.9911,-1.9798,-1.9798,-1.9798,-1.9798,-1.9798,-1.9798,-1.9798,-1.9798,-1.9798,-1.9798,-1.9798,-1.9472,-1.8351,-1.5995,-1.4989,-1.4062,-1.2988,-1.2881,-1.2881,-1.2881,-1.2881,-1.2881,-1.2881,-1.2881,-1.2881,-1.2881,-1.2881,-1.3086,-1.3506,-1.3506,-1.3779,-1.4326,-1.4639,-1.4844,0.0,0.0,-2.6309,-2.7465,-2.8613,-2.9437,-2.9181,-2.9658,-3.0015,-2.9403,-2.9328,-2.9404,-2.9419,-2.9975,-3.067,-3.1402,-3.2608,-3.3754,-3.4477,-3.5161,-3.5577,-3.5622,-3.5622,-3.5881,0.0,-3.7418,-3.8449,-3.9902,-4.007,-4.007,-4.007,-4.007,-4.007,-4.007,-3.9315,-3.8908,-3.8854,-3.8149,-3.7822,-3.7748,-3.6964,-3.6615,-3.6554,-3.5846,-3.5504,-3.5504,-3.5504,-3.5489,-3.537,-3.4038,-3.3484,-3.3335,-3.2048,-3.1482,-3.1482,-3.1482,-3.1482,-3.1482,-3.1482,-3.1467,-3.1228,-2.9998,-2.9564,-2.9188,-2.7113,-2.6457,-2.6176,-2.4738,-2.4292,-2.406,-2.3305,-2.3078,-2.2927,-2.2422,-2.1882,-2.133,-2.0819,-2.02,-1.9798,-1.9798,-1.9798,-1.9798,-1.9798,-1.9798,-1.9798,-1.9798,-1.9798,-1.9798,-1.9798,-1.9786,-1.889,-1.6631,-1.6366,-1.5378,-1.3096,-1.2881,-1.2881,-1.2881,-1.2881,-1.2881,-1.2881,-1.2881,-1.2881,-1.2881,-1.2881,-1.3086,-1.3506,-1.3506,-1.3945,-1.4766,-1.4775,-1.5,0.0,0.0,-2.798,-2.9438,-3.0308,-3.083,-3.0911,-3.0796,-3.0416,-2.9468,-2.8982,-2.8553,-2.8065,-2.8933,-2.9943,-3.067,-3.2319,-3.3769,-3.4477,-3.5643,-3.6197,-3.5673,-3.6518,0.0,0.0,0.0,0.0,-3.9242,-3.936,-3.9563,-4.0054,-4.007,-4.007,-4.007,-3.9833,-3.9731,-3.9731,-3.9454,-3.9049,-3.8525,-3.7188,-3.6337,-3.5831,-3.5619,-3.5504,-3.5504,-3.5504,-3.5504,-3.54,-3.4053,-3.3499,-3.3365,-3.2048,-3.1482,-3.1482,-3.1482,-3.124,-3.0851,-3.0851,-3.0851,-3.0642,-2.9355,-2.8936,-2.8704,-2.7587,-2.6549,-2.5673,-2.5175,-2.4266,-2.3424,-2.3198,-2.3078,-2.2912,-2.1983,-2.1619,-2.123,-2.03,-1.9936,-1.9798,-1.9798,-1.9798,-1.9798,-1.9798,-1.9798,-1.9798,-1.9798,-1.9798,-1.9798,-1.9798,-1.9497,-1.8534,-1.6631,-1.6045,-1.5001,-1.3066,-1.2881,-1.2881,-1.2881,-1.2881,-1.3008,-1.3281,-1.3301,-1.3428,-1.3711,-1.3711,-1.3926,-1.4355,-1.4355,-1.4361,-1.4375,-1.4375,-1.4205,0.0,-2.8432,-2.9751,-3.0928,-3.1655,-3.1994,-3.1846,-3.1293,-3.051,-2.9354,-2.8436,-2.7662,-2.717,-2.7846,-2.8941,-3.0526,-3.2262,-3.391,-3.5221,-3.6421,-3.6992,-3.6502,-3.7313,0.0,0.0,0.0,0.0,-3.9276,-3.9377,-3.958,-4.0054,-4.007,-4.007,-4.007,-4.007,-4.007,-4.007,-4.007,-3.9558,-3.8469,-3.7188,-3.6228,-3.5504,-3.5504,-3.5504,-3.5504,-3.5504,-3.5504,-3.54,-3.4053,-3.3499,-3.3365,-3.2048,-3.1482,-3.1482,-3.1482,-3.1255,-3.0866,-3.0866,-3.0567,-3.0043,-2.922,-2.8801,-2.8472,-2.7784,-2.6916,-2.6108,-2.5563,-2.4667,-2.3813,-2.3245,-2.3078,-2.2862,-2.1757,-2.1493,-2.1179,-2.0049,-1.9798,-1.9798,-1.9798,-1.9798,-1.9798,-1.9798,-1.9798,-1.9798,-1.9798,-1.9798,-1.9798,-1.9798,-1.951,-1.862,-1.682,-1.6266,-1.5252,-1.3303,-1.3242,-1.3262,-1.3115,-1.3242,-1.3447,-1.3721,-1.373,-1.3857,-1.4077,-1.4077,-1.4346,-1.4785,-1.4785,-1.4592,-1.4213,-1.4213,-1.3795,-2.8732,-3.0265,-3.1565,-3.1999,-3.2672,-3.2965,-3.2004,-3.1202,-3.0335,-2.9153,-2.7798,-2.6824,0.0,0.0,-2.7915,-3.0872,-3.2512,-3.4235,-3.6468,-3.7466,-3.7939,0.0,0.0,0.0,0.0,0.0,0.0,-3.9969,0.0,-4.0037,-4.007,-4.007,-4.007,-4.007,-4.007,-4.007,-4.007,-4.007,-3.9332,-3.7879,-3.7084,-3.6337,-3.5619,-3.5569,-3.5554,-3.5554,-3.5504,-3.5489,-3.5355,-3.4038,-3.3469,-3.332,-3.2033,-3.1482,-3.1482,-3.1482,-3.1452,-3.1422,-3.1467,-3.0702,-2.9624,-2.9549,-2.9101,-2.8472,-2.7784,-2.7575,-2.724,-2.5783,-2.5342,-2.5007,-2.3471,-2.3078,-2.2862,-2.1782,-2.1506,-2.1192,-2.0087,-1.9823,-1.9798,-1.9798,-1.9798,-1.9798,-1.9798,-1.9798,-1.9798,-1.9798,-1.9798,-1.9798,-1.9798,-1.9798,-1.9059,-1.7172,-1.7021,-1.6068,-1.3706,-1.3906,-1.3965,-1.3564,-1.3916,-1.4087,-1.4107,-1.4116,-1.418,-1.4145,-1.4145,-1.4404,-1.4814,-1.4814,-1.4611,-1.4145,-1.4213,-1.3726,-3.0362,-3.1531,-3.246,-3.3168,-3.3506,-3.3255,-3.182,-3.0953,-2.9828,-2.7726,-2.6573,-2.5782,-2.5211,0.0,0.0,-3.0135,-3.2562,0.0,-3.6535,-3.7905,0.0,0.0,0.0,-3.9309,-3.8768,-3.9208,0.0,0.0,-3.958,-3.9512,-4.0054,-4.007,-4.007,-4.007,-4.007,-4.007,-4.007,-4.007,-3.961,-3.8635,-3.8398,-3.7946,-3.7175,-3.6569,-3.6337,-3.6275,-3.5718,-3.522,-3.4681,-3.3844,-3.32,-3.2677,-3.1854,-3.1482,-3.1482,-3.1482,-3.121,-3.0836,-3.136,-3.0986,-3.0103,-2.916,-2.8742,-2.8472,-2.7784,-2.7203,-2.6602,-2.5673,-2.5007,-2.4337,-2.3365,-2.3078,-2.2902,-2.2272,-2.1782,-2.1292,-2.0602,-2.0112,-1.9798,-1.9798,-1.9798,-1.9798,-1.9798,-1.9798,-1.9798,-1.9798,-1.9798,-1.9798,-1.9798,-1.9798,-1.9059,-1.7172,-1.7021,-1.6188,-1.4119,-1.4019,-1.4038,-1.3922,-1.4019,-1.4277,-1.4609,-1.4619,-1.4766,-1.5078,-1.5088,-1.5137,-1.5254,-1.5254,-1.4594,-1.3312,-1.3906,-1.3122,-3.1494,-3.2504,-3.3238,-3.3697,-3.3807,-3.3296,-3.135,-3.0343,-2.9034,-2.6309,-2.5152,0.0,0.0,0.0,0.0,0.0,0.0,0.0,-3.6468,-3.8058,-3.8954,0.0,-3.958,0.0,-3.9512,-3.9834,-4.007,0.0,-3.9698,-3.9648,-4.0054,-4.007,-4.007,-4.007,-4.007,-4.007,-4.007,-3.9731,-3.9368,-3.8908,-3.858,-3.8189,-3.7764,-3.6964,-3.6615,-3.6554,0.0,-3.5292,-3.488,-3.3877,-3.3261,-3.2862,-3.1895,-3.1482,-3.1482,-3.1482,-3.1228,-3.1001,-3.1405,-3.0911,-2.9983,-2.9265,-2.8622,-2.8068,-2.7679,-2.7306,-2.6826,-2.6108,-2.5342,-2.4624,-2.3826,-2.3365,-2.2927,-2.2447,-2.2071,-2.1631,-2.0894,-2.0401,-2.0112,-1.9849,-1.9798,-1.9798,-1.9798,-1.9798,-1.9798,-1.9798,-1.9798,-1.9798,-1.9798,-1.9527,-1.8766,-1.7424,-1.696,-1.6125,-1.4562,-1.459,-1.4619,-1.4434,-1.459,-1.4805,-1.5049,-1.5059,-1.5176,-1.541,-1.541,-1.541,-1.541,-1.541,-1.4746,-1.3545,-1.3974,-1.3304,-3.232,-3.3275,-3.3807,-3.3807,-3.3715,-3.304,-3.0683,-2.9485,-2.8035,-2.4961,0.0,0.0,-2.3282,0.0,-2.5518,-2.842,0.0,-3.3303,-3.6378,-3.7973,-3.9157,-3.9986,-4.007,-4.007,-4.007,-4.007,-4.007,-4.007,-4.007,-4.007,-4.007,-4.007,-4.007,-4.007,-4.007,-4.007,-4.007,-3.9437,-3.9086,-3.9032,-3.843,-3.8035,-3.7921,-3.7144,-3.6737,-3.6722,0.0,0.0,-3.5437,-3.4076,-3.3452,-3.3264,-3.2007,-3.1482,-3.1482,-3.1482,-3.1482,-3.1467,-3.1377,-3.0597,-2.9579,-2.9579,-2.8667,-2.7625,-2.7625,-2.7625,-2.7458,-2.6721,-2.6068,-2.5342,-2.4509,-2.3767,-2.3132,-2.2535,-2.2309,-2.1945,-2.1033,-2.0706,-2.0401,-1.9899,-1.9798,-1.9798,-1.9798,-1.9798,-1.9798,-1.9798,-1.9798,-1.9798,-1.9798,-1.9254,-1.8555,-1.7688,-1.7034,-1.6156,-1.5005,-1.5205,-1.5254,-1.4893,-1.5215,-1.541,-1.541,-1.541,-1.541,-1.541,-1.541,-1.541,-1.541,-1.541,-1.4991,-1.4213,-1.4332,-1.3846,-3.3146,-3.3697,-3.3807,-3.3807,-3.3311,-3.2218,-2.9919,-2.8251,0.0,0.0,0.0,-2.2564,-2.2762,-2.3971,0.0,-2.8045,0.0,0.0,0.0,0.0,-3.8582,0.0,0.0,0.0,0.0,0.0,0.0,0.0,0.0,0.0,-4.007,-4.007,-4.007,-4.007,-4.007,-4.007,-4.007,-3.9952,-3.9901,-3.9901,-3.9731,-3.9332,-3.869,-3.7905,-3.7573,-3.7483,0.0,0.0,-3.5546,-3.4069,-3.3193,-3.2686,-3.1841,-3.1482,-3.1482,-3.1482,-3.1482,-3.1392,-3.0881,-3.0193,-2.9579,-2.9579,-2.8667,-2.7625,-2.7625,-2.7625,-2.7458,-2.6721,-2.6404,-2.6014,-2.4624,-2.4176,-2.3917,-2.3132,-2.2297,-2.1581,-2.1393,-2.0614,-1.9924,-1.9823,-1.9798,-1.9798,-1.9798,-1.9798,-1.9798,-1.9798,-1.9798,-1.9798,-1.9798,-1.9695,-1.9097,-1.7743,-1.7468,-1.6824,-1.5418,-1.5371,-1.5381,-1.5312,-1.5371,-1.541,-1.541,-1.541,-1.541,-1.541,-1.541,-1.541,-1.541,-1.541,-1.4991,-1.4213,-1.4874,-1.4392,-3.3366,-3.3807,-3.3807,-3.3807,-3.3201,-3.1889,-2.9249,0.0,0.0,0.0,0.0,-2.2388,-2.266,0.0,0.0,0.0,0.0,0.0,0.0,0.0,0.0,0.0,0.0,0.0,0.0,0.0,0.0,0.0,0.0,0.0,-4.007,-4.007,-4.007,-4.007,-4.007,-4.007,-4.007,-4.007,-4.007,-4.007,-4.007,-3.9901,-3.9489,-3.8707,-3.8163,-3.7751,-3.661,0.0,-3.5558,-3.4498,-3.3691,-3.3039,-3.2382,-3.1853,-3.1482,-3.1482,-3.1482,-3.1377,-3.0746,-3.0103,-2.952,-2.9175,-2.8397,-2.7625,-2.7625,-2.7625,-2.7524,-2.7152,-2.6774,-2.6229,-2.5175,-2.4567,-2.4118,-2.3305,-2.2297,-2.1405,-2.1117,-2.0401,-1.9798,-1.9798,-1.9798,-1.9798,-1.9798,-1.9798,-1.9798,-1.9798,-1.9798,-1.9798,-1.9798,-1.9798,-1.9359,-1.8286,-1.7468,-1.6754,-1.6036,-1.5642,-1.541,-1.541,-1.541,-1.541,-1.541,-1.541,-1.541,-1.541,-1.541,-1.541,-1.541,-1.541,-1.5167,-1.4805,-1.5235,-1.4991,-3.3146,-3.3678,-3.3807,-3.3807,-3.3073,-3.1605,-2.8811,-2.7335,0.0,0.0,0.0,-2.2388,-2.266,0.0,0.0,0.0,0.0,0.0,0.0,0.0,0.0,0.0,0.0,0.0,0.0,0.0,0.0,0.0,0.0,0.0,0.0,-4.007,-4.007,-4.007,-4.007,-4.007,-4.007,-4.007,-4.007,-4.007,-4.007,-4.002,-3.9833,-3.9043,-3.8327,-3.7732,-3.6869,0.0,0.0,-3.4945,-3.4182,-3.3531,-3.2841,-3.216,-3.1482,-3.1482,-3.1482,-3.1362,-3.0597,-2.9983,-2.9445,-2.8637,-2.8008,-2.7625,-2.7625,-2.7625,-2.7625,-2.7625,-2.7203,-2.6549,-2.5618,-2.4951,-2.4226,-2.306,-2.2033,-2.1154,-2.0655,-2.0125,-1.9798,-1.9798,-1.9798,-1.9798,-1.9798,-1.9798,-1.9798,-1.9798,-1.9798,-1.9798,-1.9798,-1.9643,-1.9359,-1.8768,-1.7523,-1.6553,-1.6187,-1.5698,-1.5371,-1.5283,-1.5361,-1.541,-1.541,-1.541,-1.541,-1.541,-1.541,-1.541,-1.541,-1.541,-1.541,-1.541,-1.541,-1.541,-3.2485,-3.3238,-3.3807,-3.3807,-3.2651,-3.0979,-2.8946,0.0,0.0,0.0,-2.2463,-2.2388,-2.266,-2.2825,0.0,0.0,0.0,0.0,0.0,0.0,0.0,0.0,0.0,0.0,0.0,0.0,0.0,0.0,0.0,0.0,0.0,-4.007,-4.007,-4.007,-4.007,-4.007,-4.007,-4.007,-4.007,-4.007,-4.007,-3.9731,-3.8999,-3.8249,-3.785,-3.7719,0.0,0.0,0.0,-3.5181,-3.4185,-3.3531,-3.2841,-3.216,-3.1482,-3.1482,-3.1482,-3.136,-3.0103,-2.9624,-2.937,-2.8083,-2.7619,-2.7625,-2.7625,-2.7625,-2.7625,-2.7625,-2.756,-2.7188,-2.5783,-2.5342,-2.4679,-2.2252,-2.1179,-2.0589,-2.0012,-1.9836,-1.9798,-1.9798,-1.9798,-1.9798,-1.9798,-1.9798,-1.9798,-1.9798,-1.9798,-1.9798,-1.9798,-1.9202,-1.8768,-1.8715,-1.795,-1.6795,-1.5097,-1.5253,-1.5244,-1.4863,-1.5205,-1.541,-1.541,-1.541,-1.541,-1.541,-1.541,-1.541,-1.541,-1.541,-1.541,-1.541,-1.541,-1.541,-3.2265,-3.3201,-3.3807,-3.3807,-3.2228,-3.0302,-2.8844,0.0,-2.4706,-2.3032,-2.2625,-2.2573,-2.2669,-2.2712,-2.292,0.0,-2.3846,-2.5188,0.0,0.0,0.0,0.0,0.0,0.0,0.0,0.0,0.0,0.0,0.0,0.0,0.0,-4.007,-4.007,-4.007,-4.007,-4.007,-4.007,-4.007,-4.007,-4.007,-4.007,-3.9952,-3.9577,-3.8857,-3.8305,-3.7786,0.0,0.0,0.0,-3.5434,-3.48,-3.4137,-3.3479,-3.2788,-3.212,-3.164,-3.127,-3.0791,-2.9894,-2.9325,-2.8831,-2.7874,-2.7625,-2.7625,-2.7625,-2.7625,-2.7625,-2.7625,-2.7625,-2.724,-2.5783,-2.4455,-2.3124,-2.142,-2.0882,-2.0501,-1.9924,-1.9798,-1.9798,-1.9798,-1.9798,-1.9798,-1.9798,-1.9798,-1.9798,-1.9798,-1.9798,-1.9798,-1.9798,-1.915,-1.8555,-1.807,-1.7357,-1.6623,-1.5905,-1.5543,-1.5342,-1.5176,-1.5322,-1.541,-1.541,-1.541,-1.541,-1.541,-1.541,-1.541,-1.541,-1.541,-1.541,-1.541,-1.541,-1.541,-3.1075,-3.2371,-3.3358,-3.304,-3.1547,-2.9868,0.0,0.0,-2.4513,-2.313,-2.2772,-2.2686,-2.2599,-2.2573,-2.2573,-2.2573,-2.2762,-2.387,-2.664,0.0,0.0,0.0,0.0,0.0,0.0,0.0,0.0,0.0,0.0,0.0,0.0,-4.007,-4.007,-4.007,-4.007,-4.007,-4.007,-4.007,-4.007,-4.007,-4.007,-3.9969,-3.9732,-3.9005,-3.8261,-3.7533,0.0,0.0,0.0,-3.5622,-3.5207,-3.4528,-3.3836,-3.3072,-3.2269,-3.1721,-3.0986,-3.0163,-2.9729,-2.9146,-2.8487,-2.7799,-2.7625,-2.7625,-2.7625,-2.7625,-2.7625,-2.7625,-2.7458,-2.699,-2.576,-2.3901,-2.2145,-2.1189,-2.0686,-2.03,-1.9886,-1.9798,-1.9798,-1.9798,-1.9798,-1.9798,-1.9798,-1.9798,-1.9798,-1.9798,-1.9798,-1.9798,-1.9798,-1.8992,-1.812,-1.7486,-1.6669,-1.6156,-1.6023,-1.5621,-1.5361,-1.5234,-1.5342,-1.541,-1.541,-1.541,-1.541,-1.541,-1.541,-1.541,-1.541,-1.541,-1.541,-1.541,-1.541,-1.541,-2.8533,-3.0472,-3.2352,-3.1211,-3.0571,-2.9787,0.0,-2.6285,-2.4599,-2.3437,-2.2923,-2.2625,-2.2332,-2.231,-2.231,-2.231,-2.2919,-2.4408,-2.735,0.0,0.0,0.0,0.0,0.0,0.0,0.0,0.0,0.0,0.0,0.0,0.0,0.0,-4.007,-4.007,-4.007,-4.007,-4.007,-4.007,-4.007,-4.007,-4.007,-3.9698,-3.8988,-3.8261,-3.7499,0.0,0.0,0.0,0.0,-3.5622,-3.5207,-3.4528,-3.3836,-3.2771,-3.1619,-3.1554,-3.0717,-2.9594,-2.9579,-2.9146,-2.8487,-2.7799,-2.7625,-2.7625,-2.7625,-2.7625,-2.7625,-2.7625,-2.7086,-2.6352,-2.5704,-2.4069,-2.2432,-2.1746,-2.0669,-1.9811,-1.9798,-1.9798,-1.9798,-1.9798,-1.9798,-1.9798,-1.9798,-1.9798,-1.9798,-1.9798,-1.9798,-1.9798,-1.9798,-1.8501,-1.7443,-1.7025,-1.6042,-1.5244,-1.4824,-1.5176,-1.5234,-1.4814,-1.5186,-1.541,-1.541,-1.541,-1.541,-1.541,-1.541,-1.541,-1.541,-1.541,-1.541,-1.541,-1.541,-1.541,-2.7894,-2.9057,-3.0033,-2.968,-2.8649,-2.7622,-2.7108,-2.5651,-2.4184,-2.3376,-2.3117,-2.289,-2.2388,-2.231,-2.2632,-2.363,-2.3985,0.0,0.0,0.0,0.0,0.0,0.0,0.0,0.0,0.0,0.0,0.0,0.0,0.0,0.0,0.0,-4.007,-4.007,-4.007,-4.007,-4.007,-4.007,-4.007,-4.007,-3.958,-3.9225,-3.8954,-3.7702,0.0,0.0,0.0,0.0,0.0,-3.5622,-3.547,-3.5207,-3.4544,-3.3451,-3.2238,-3.1758,-3.0433,-2.8906,-2.8906,-2.8472,-2.7859,-2.7685,-2.7625,-2.7625,-2.7625,-2.7625,-2.7625,-2.7625,-2.6762,-2.5689,-2.5091,-2.3786,-2.2336,-2.1305,-2.0777,-2.0359,-1.9901,-1.9798,-1.9798,-1.9798,-1.9798,-1.9798,-1.9798,-1.9798,-1.9798,-1.9798,-1.9798,-1.9798,-1.9798,-1.8501,-1.7454,-1.7025,-1.5763,-1.4932,-1.4795,-1.4902,-1.5049,-1.5205,-1.5068,-1.5107,-1.54,-1.541,-1.541,-1.541,-1.541,-1.541,-1.541,-1.541,-1.541,-1.541,-1.541,-1.541,0.0,-2.7368,-2.8421,-2.7976,-2.724,-2.6478,-2.6063,-2.4965,-2.3834,-2.3183,-2.3038,-2.2865,-2.2405,-2.231,-2.2598,-2.3511,-2.3883,0.0,0.0,0.0,0.0,0.0,0.0,0.0,0.0,0.0,0.0,0.0,0.0,0.0,0.0,0.0,-3.9546,-3.9276,-3.9529,-3.98,-4.007,-3.9529,-3.9394,-3.9665,-3.8937,-3.843,-3.8125,-3.7195,0.0,0.0,0.0,0.0,0.0,-3.5622,-3.5453,-3.5138,-3.4432,-3.3336,-3.211,-3.1665,-3.0273,-2.8591,-2.8834,-2.8333,-2.7625,-2.7625,-2.7625,-2.7625,-2.7625,-2.7625,-2.7625,-2.7625,-2.6766,-2.5789,-2.5209,-2.4009,-2.2693,-2.1456,-2.0993,-2.061,-1.9952,-1.9798,-1.9798,-1.9798,-1.9798,-1.9798,-1.9798,-1.9798,-1.9798,-1.9798,-1.9798,-1.9798,-1.9798,-1.8601,-1.7546,-1.7157,-1.6159,-1.5512,-1.5347,-1.5009,-1.4902,-1.5156,-1.5078,-1.5068,-1.5176,-1.5322,-1.541,-1.541,-1.541,-1.541,-1.541,-1.541,-1.541,-1.541,-1.541,-1.541,0.0,-2.5339,-2.7098,-2.5958,-2.5986,-2.603,-2.4946,-2.4158,0.0,-2.29,-2.2755,-2.2625,-2.2417,-2.2344,-2.2361,-2.2513,0.0,0.0,0.0,0.0,0.0,0.0,0.0,0.0,0.0,0.0,0.0,0.0,0.0,0.0,0.0,0.0,0.0,-3.7922,-3.8514,-3.9191,-3.9918,-3.8582,-3.8244,-3.8903,-3.8176,-3.7449,-3.6772,-3.6721,0.0,0.0,0.0,0.0,0.0,-3.5622,-3.5182,-3.4445,-3.3815,-3.2677,-3.1386,-3.1418,-3.0148,-2.8604,-2.919,-2.861,-2.7625,-2.7625,-2.7625,-2.7625,-2.7625,-2.7625,-2.761,-2.7565,-2.7036,-2.6363,-2.5704,-2.4599,-2.3367,-2.2085,-2.1293,-2.0696,-1.9991,-1.985,-1.9798,-1.9798,-1.9798,-1.9798,-1.9798,-1.9798,-1.9798,-1.9798,-1.9798,-1.9786,-1.9748,-1.8663,-1.7728,-1.7278,-1.6933,-1.6573,-1.6221,-1.538,-1.4907,-1.4936,-1.5223,-1.5205,-1.4844,-1.5205,-1.541,-1.541,-1.541,-1.541,-1.541,-1.541,-1.541,-1.541,-1.5381,-1.5381,-2.115,0.0,-2.3107,-2.2602,-2.2978,-2.3334,0.0,-2.3061,-2.3189,-2.2815,0.0,-2.2798,-2.3078,-2.2682,-2.2868,0.0,0.0,0.0,0.0,0.0,0.0,0.0,0.0,0.0,0.0,0.0,0.0,0.0,0.0,0.0,0.0,0.0,0.0,-3.7922,-3.7516,-3.7652,-3.8413,-3.8075,-3.799,-3.8159,-3.7398,-3.6958,-3.6755,-3.6163,0.0,0.0,0.0,0.0,-3.5622,-3.5622,-3.5182,-3.4489,-3.4341,-3.3111,-3.1407,-3.1413,-3.0188,-2.8542,-2.8697,-2.8229,-2.7625,-2.7625,-2.7625,-2.7625,-2.7625,-2.7625,-2.7505,-2.6961,-2.6348,-2.5689,-2.5031,-2.4209,-2.3422,-2.2678,-2.196,-2.1342,-2.0696,-2.0144,-1.9798,-1.9798,-1.9798,-1.9798,-1.9798,-1.9798,-1.9798,-1.9798,-1.9798,-1.966,-1.9258,-1.8444,-1.7585,-1.6705,-1.6035,-1.5775,-1.6154,-1.5839,-1.5773,-1.609,-1.5389,-1.5029,-1.5254,-1.5361,-1.541,-1.541,-1.541,-1.541,-1.541,-1.541,-1.541,-1.54,-1.5078,-1.5107,-1.9839,-2.1331,-2.2813,-2.249,-2.3025,-2.3472,-2.3017,0.0,0.0,0.0,0.0,-2.2583,-2.2846,0.0,0.0,0.0,0.0,0.0,0.0,0.0,0.0,0.0,0.0,0.0,0.0,0.0,0.0,0.0,0.0,0.0,0.0,0.0,0.0,-3.6874,-3.6706,-3.703,-3.7889,-3.7212,-3.7043,-3.7381,-3.662,-3.6248,-3.6231,-3.5808,0.0,0.0,0.0,0.0,-3.4607,-3.4607,-3.4167,-3.3474,-3.3474,-3.2597,-3.1324,-3.1324,-3.0494,-2.9271,-2.8996,-2.8367,-2.7625,-2.7625,-2.7625,-2.7625,-2.7625,-2.7415,-2.7051,-2.6692,-2.6123,-2.5465,-2.4746,-2.4118,-2.3465,-2.283,-2.2193,-2.152,-2.0944,-2.0245,-1.9798,-1.9798,-1.9798,-1.9798,-1.9798,-1.9798,-1.9798,-1.9798,-1.9798,-1.9698,-1.9409,-1.8573,-1.7837,-1.7298,-1.6848,-1.6764,-1.7071,-1.718,-1.6917,-1.6269,-1.5802,-1.5419,-1.5117,-1.5648,-1.5748,-1.541,-1.541,-1.541,-1.541,-1.5215,-1.5225,-1.54,-1.498,-1.501,-1.9127,-2.1533,-2.3885,-2.3117,-2.3773,-2.4367,-2.3649,0.0,0.0,0.0,0.0,0.0,0.0,0.0,0.0,0.0,0.0,0.0,0.0,0.0,0.0,0.0,0.0,0.0,0.0,0.0,0.0,0.0,0.0,0.0,0.0,0.0,0.0,-3.5639,-3.6139,-3.6818,-3.7674,-3.6401,-3.6078,-3.6724,-3.5972,-3.5622,-3.5622,-3.5504,0.0,0.0,0.0,0.0,-3.3406,-3.3406,-3.2966,-3.2313,-3.2313,-3.1833,-3.119,-3.119,-3.0838,-3.0208,-2.9496,-2.8543,-2.7625,-2.7625,-2.7625,-2.7595,-2.7505,-2.7036,-2.6557,-2.6348,-2.5899,-2.53,-2.4642,-2.4044,-2.3465,-2.2965,-2.2239,-2.1568,-2.1077,-2.0346,-1.9798,-1.9798,-1.9798,-1.9798,-1.9798,-1.9798,-1.9798,-1.9798,-1.9798,-1.9773,-1.9698,-1.8894,-1.8292,-1.8216,-1.8204,-1.8242,-1.8329,-1.8394,-1.7873,-1.6429,-1.6531,-1.6259,-1.5275,-1.6059,-1.6208,-1.5584,-1.5468,-1.541,-1.541,-1.5049,-1.5068,-1.54,-1.498,-1.501,-1.9498,-2.1434,-2.2797,-2.0547,-2.1516,-2.2807,-2.1839,0.0,0.0,0.0,0.0,0.0,0.0,0.0,0.0,0.0,0.0,0.0,0.0,0.0,0.0,0.0,0.0,0.0,0.0,0.0,0.0,0.0,0.0,0.0,0.0,0.0,0.0,-3.5622,-3.6139,-3.6454,-3.6611,-3.6387,-3.6318,-3.6439,-3.5878,-3.5622,-3.5605,-3.4962,-3.4607,0.0,0.0,-3.3508,-3.3406,-3.3406,-3.2966,-3.2313,-3.2313,-3.1833,-3.119,-3.119,-3.0838,-3.0123,-2.8996,-2.8174,-2.7625,-2.7625,-2.7625,-2.747,-2.6916,-2.6677,-2.6363,-2.5241,-2.4806,-2.4582,-2.3939,-2.3684,-2.3551,-2.3465,-2.256,-2.1649,-2.1568,-2.0607,-1.9798,-1.9798,-1.9798,-1.9798,-1.9798,-1.9798,-1.9798,-1.9798,-1.9798,-1.9648,-1.9196,-1.8958,-1.8719,-1.8254,-1.8204,-1.8392,-1.8869,-1.7933,-1.7639,-1.8218,-1.7752,-1.7379,-1.7192,-1.6722,-1.6436,-1.6322,-1.57,-1.541,-1.541,-1.5352,-1.5352,-1.54,-1.498,-1.501,-1.8911,-2.0555,-2.1903,-2.0281,-2.2258,-2.4419,-2.3735,0.0,0.0,0.0,0.0,0.0,0.0,0.0,0.0,0.0,0.0,0.0,0.0,0.0,0.0,0.0,0.0,0.0,0.0,0.0,0.0,0.0,0.0,0.0,0.0,0.0,0.0,0.0,-3.6563,-3.6943,-3.7193,-3.7193,-3.6943,-3.6392,-3.6139,-3.5693,-3.4996,-3.4641,-3.4049,-3.3271,0.0,-3.2577,-3.2205,-3.2205,-3.2002,-3.1698,-3.1698,-3.1495,-3.119,-3.119,-3.0838,-3.0166,-2.9271,-2.8591,-2.8042,-2.771,-2.732,-2.6976,-2.6677,-2.6093,-2.5405,-2.4746,-2.4582,-2.4477,-2.3774,-2.3595,-2.3595,-2.3595,-2.2891,-2.2146,-2.1805,-2.1002,-2.0245,-1.985,-1.9798,-1.9798,-1.9798,-1.9798,-1.9798,-1.9798,-1.956,-1.9397,-1.9447,-1.8945,-1.8593,-1.8643,-1.8643,-1.8631,-1.8581,-1.8301,-1.8042,-1.7859,-1.7402,-1.7337,-1.7762,-1.6461,-1.5865,-1.615,-1.5215,-1.4717,-1.4717,-1.4492,-1.4619,-1.5068,-1.4639,-1.4668,-1.8454,-1.9784,-2.1172,-2.0768,0.0,-2.535,-2.5246,0.0,0.0,0.0,0.0,0.0,0.0,0.0,0.0,0.0,0.0,0.0,0.0,0.0,0.0,0.0,0.0,0.0,0.0,0.0,0.0,0.0,0.0,0.0,0.0,0.0,0.0,0.0,-3.6728,-3.7111,-3.7623,-3.7442,-3.7077,-3.6444,-3.6261,-3.5511,-3.4389,-3.4092,-3.3355,-3.2313,-3.2104,-3.1698,-3.119,-3.119,-3.119,-3.119,-3.119,-3.119,-3.119,-3.119,-3.0838,-3.0208,-2.9761,-2.9225,-2.8622,-2.799,-2.74,-2.6929,-2.6436,-2.559,-2.4717,-2.4433,-2.4388,-2.4268,-2.3729,-2.3595,-2.3595,-2.3595,-2.3143,-2.2558,-2.2053,-2.1438,-2.0832,-2.0144,-2.0055,-1.9965,-1.9635,-1.9623,-1.9572,-1.9447,-1.9095,-1.8982,-1.9371,-1.8706,-1.8367,-1.8794,-1.8783,-1.8606,-1.8053,-1.8518,-1.8276,-1.7039,-1.6946,-1.7191,-1.7763,-1.6071,-1.5332,-1.5711,-1.4653,-1.4077,-1.4077,-1.3809,-1.3994,-1.4629,-1.4287,-1.4307,-1.8739,-1.9679,-2.073,-2.1365,-2.225,0.0,-2.3859,-2.3968,0.0,0.0,0.0,0.0,0.0,0.0,0.0,0.0,0.0,0.0,0.0,0.0,0.0,0.0,0.0,0.0,0.0,0.0,0.0,0.0,0.0,0.0,0.0,0.0,0.0,0.0,0.0,-3.6239,-3.6777,-3.6121,-3.6089,-3.6676,-3.5794,-3.4921,-3.4098,-3.2974,-3.2374,-3.2239,-3.1562,-3.1241,-3.119,-3.119,-3.119,-3.119,-3.119,-3.119,-3.119,-3.119,-3.0838,-3.0293,-3.0251,-2.9848,-2.9204,-2.8506,-2.8208,-2.7834,-2.6013,-2.5407,-2.5106,-2.398,-2.367,-2.3655,-2.361,-2.3595,-2.3595,-2.3595,-2.3143,-2.2694,-2.2649,-2.21,-2.1472,-2.0845,-2.0746,-2.039,-1.9257,-1.9083,-1.8907,-1.8392,-1.8292,-1.8279,-1.8317,-1.8254,-1.8216,-1.8254,-1.8267,-1.8041,-1.7488,-1.7953,-1.7743,-1.661,-1.7011,-1.7289,-1.7338,-1.5963,-1.5195,-1.5226,-1.4493,-1.4077,-1.4077,-1.4048,-1.4068,-1.4126,-1.4097,-1.4097,-1.82,-1.9318,-2.0446,-2.0423,-2.1437,0.0,0.0,0.0,0.0,0.0,0.0,0.0,0.0,0.0,0.0,0.0,0.0,0.0,0.0,0.0,0.0,0.0,0.0,0.0,0.0,0.0,0.0,0.0,0.0,0.0,0.0,0.0,0.0,0.0,0.0,-3.5455,-3.5999,-3.5724,-3.5489,-3.5277,-3.4812,-3.4024,-3.2963,-3.253,-3.2036,-3.1596,-3.1309,-3.119,-3.119,-3.119,-3.119,-3.119,-3.119,-3.119,-3.119,-3.119,-3.1055,-3.0797,-3.0435,-2.9871,-2.9176,-2.8517,-2.7716,-2.6876,-2.6103,-2.5383,-2.4689,-2.4234,-2.3879,-2.3595,-2.3595,-2.3595,-2.3595,-2.3595,-2.3421,-2.3143,-2.2785,-2.2498,-2.2021,-2.0993,-2.0795,-2.0427,-1.922,-1.8983,-1.8844,-1.8292,-1.7915,-1.7815,-1.8166,-1.7903,-1.7827,-1.8166,-1.7903,-1.7451,-1.6837,-1.6645,-1.6221,-1.5457,-1.6231,-1.6717,-1.6717,-1.5211,-1.4468,-1.4803,-1.3872,-1.335,-1.335,-1.335,-1.3486,-1.375,-1.375,-1.375,-1.804,-1.9075,-2.018,0.0,0.0,0.0,0.0,0.0,0.0,0.0,0.0,0.0,0.0,0.0,0.0,0.0,0.0,0.0,0.0,0.0,0.0,0.0,0.0,0.0,0.0,0.0,0.0,0.0,0.0,0.0,0.0,0.0,0.0,0.0,0.0,0.0,-3.499,-3.459,-3.413,-3.3598,-3.3345,-3.287,-3.2139,-3.1998,-3.1664,-3.119,-3.119,-3.119,-3.119,-3.119,-3.119,-3.119,-3.119,-3.1055,-3.0886,-3.1106,-3.0903,-3.0492,-3.0282,-2.9746,-2.9042,-2.8339,-2.7485,-2.6617,-2.6038,-2.5306,-2.4592,-2.4225,-2.3879,-2.3595,-2.3595,-2.3595,-2.3595,-2.3595,-2.3595,-2.3465,-2.3054,-2.2965,-2.268,-2.1609,-2.1417,-2.0933,-1.9508,-1.9153,-1.8767,-1.804,-1.7473,-1.725,-1.7626,-1.7338,-1.725,-1.7626,-1.7338,-1.6863,-1.6214,-1.579,-1.532,-1.4744,-1.5233,-1.5602,-1.5602,-1.4269,-1.3697,-1.4055,-1.3302,-1.2881,-1.2881,-1.2881,-1.3027,-1.3311,-1.3311,-1.3311,-1.8418,-1.9079,-1.9956,0.0,0.0,0.0,0.0,0.0,0.0,0.0,0.0,0.0,0.0,0.0,0.0,0.0,0.0,0.0,0.0,0.0,0.0,0.0,0.0,0.0,0.0,0.0,0.0,0.0,0.0,0.0,0.0,0.0,0.0,0.0,0.0,0.0,-3.3667,-3.2441,-3.1789,-3.1789,-3.1372,-3.1411,-3.1789,-3.1389,-3.119,-3.119,-3.119,-3.119,-3.119,-3.119,-3.119,-3.1173,-3.1173,-3.0734,-3.0192,-3.0903,-3.0243,-2.9093,-2.9837,-2.96,-2.8839,-2.8078,-2.7789,-2.7479,-2.5735,-2.5221,-2.4973,-2.3921,-2.3595,-2.3595,-2.3595,-2.3595,-2.3595,-2.3595,-2.3595,-2.3595,-2.3595,-2.3595,-2.3421,-2.283,-2.2694,-2.2098,-2.0239,-1.9462,-1.8676,-1.7483,-1.6837,-1.6522,-1.6522,-1.6522,-1.6522,-1.6522,-1.6522,-1.6238,-1.5632,-1.5588,-1.532,-1.4698,-1.4097,-1.3768,-1.3815,-1.3238,-1.2881,-1.2881,-1.2881,-1.2881,-1.2881,-1.2881,-1.2881,-1.2881,-1.2881,-1.2881,-1.8425,-1.9006,0.0,0.0,0.0,0.0,0.0,0.0,0.0,0.0,0.0,0.0,0.0,0.0,0.0,0.0,0.0,0.0,0.0,0.0,0.0,0.0,0.0,0.0,0.0,0.0,0.0,0.0,0.0,0.0,0.0,0.0,0.0,0.0,0.0,0.0,-3.172,-3.1785,-3.1789,-3.1789,-3.1372,-3.1252,-3.1372,-3.1252,-3.119,-3.119,-3.119,-3.119,-3.1157,-3.0632,-3.0108,-2.9634,-2.9634,-2.9499,-2.9347,-2.955,-2.9364,-2.9008,-2.9245,-2.8805,-2.8129,-2.7857,-2.7469,-2.6945,-2.6417,-2.5746,-2.5128,-2.4816,-2.4184,-2.3595,-2.3595,-2.3595,-2.3595,-2.3595,-2.3595,-2.3595,-2.3595,-2.3595,-2.3421,-2.283,-2.2694,-2.2098,-2.0239,-1.977,-1.9114,-1.7525,-1.7146,-1.6909,-1.6552,-1.6522,-1.6522,-1.6522,-1.6522,-1.6064,-1.5062,-1.4971,-1.4514,-1.3478,-1.3296,-1.3372,-1.3768,-1.3238,-1.2881,-1.2881,-1.2881,-1.2881,-1.2881,-1.2881,-1.2881,-1.2881,-1.2881,-1.2881,-1.8977,0.0,0.0,0.0,0.0,0.0,0.0,0.0,0.0,0.0,0.0,0.0,0.0,0.0,0.0,0.0,0.0,0.0,0.0,0.0,0.0,0.0,0.0,0.0,0.0,0.0,0.0,0.0,0.0,0.0,0.0,0.0,0.0,0.0,0.0,0.0,-2.9878,-3.0774,-3.121,-3.121,-3.0891,-3.0768,-3.0768,-3.1072,-3.119,-3.1173,-3.0886,-3.0598,-3.0277,-2.9837,-2.9397,-2.9011,-2.9011,-2.8789,-2.8552,-2.8873,-2.8586,-2.8112,-2.8416,-2.801,-2.7368,-2.7368,-2.7063,-2.6657,-2.647,-2.5872,-2.5144,-2.4934,-2.4266,-2.3595,-2.3595,-2.3595,-2.3595,-2.3595,-2.3595,-2.3595,-2.3595,-2.3595,-2.3508,-2.3143,-2.2864,-2.228,-2.0882,-2.0231,-1.9391,-1.7855,-1.7271,-1.6879,-1.6552,-1.6522,-1.6522,-1.6522,-1.6522,-1.602,-1.4789,-1.4698,-1.4201,-1.2968,-1.2881,-1.3055,-1.342,-1.3104,-1.2881,-1.2881,-1.2881,-1.2881,-1.2881,-1.2881,-1.2881,-1.2881,-1.2881,-1.2881,0.0,0.0,0.0,0.0,0.0,0.0,0.0,0.0,0.0,0.0,0.0,0.0,0.0,0.0,0.0,0.0,0.0,0.0,0.0,0.0,0.0,0.0,0.0,0.0,0.0,0.0,0.0,0.0,0.0,0.0,0.0,0.0,0.0,0.0,0.0,0.0,-2.8199,-2.9424,-3.0093,0.0,-3.0001,-2.9952,-3.0023,-3.0683,-3.0987,-3.0954,-3.0294,-2.9583,-2.8873,-2.8946,-2.8859,-2.8808,-2.8844,-2.8367,-2.7807,-2.8518,-2.7892,-2.6793,-2.7486,-2.7266,-2.6691,-2.6691,-2.6691,-2.6624,-2.6191,-2.5652,-2.5105,-2.4632,-2.4032,-2.3595,-2.3595,-2.3595,-2.3595,-2.3595,-2.3595,-2.3595,-2.3595,-2.3595,-2.3595,-2.3595,-2.3101,-2.2473,-2.1814,-2.068,-1.9484,-1.8242,-1.7146,-1.6522,-1.6522,-1.6522,-1.6522,-1.6522,-1.6522,-1.602,-1.488,-1.4744,-1.4201,-1.3065,-1.2929,-1.2881,-1.2881,-1.2881,-1.2881,-1.2881,-1.2881,-1.2881,-1.2881,-1.2881,-1.2881,-1.2881,-1.2881,-1.2881,0.0,0.0,0.0,0.0,0.0,0.0,0.0,0.0,0.0,0.0,0.0,0.0,0.0,0.0,0.0,0.0,0.0,0.0,0.0,0.0,0.0,0.0,0.0,0.0,0.0,0.0,0.0,0.0,0.0,0.0,0.0,0.0,0.0,0.0,0.0,-2.628,-2.7579,-2.7845,-2.8462,0.0,-2.887,-2.8824,-2.9228,-2.9381,-2.9448,-2.9448,-2.9296,-2.8789,-2.8061,-2.8391,-2.7998,-2.7216,-2.7549,-2.7365,-2.6962,-2.7131,-2.6979,-2.6708,-2.6877,-2.6826,-2.6691,-2.6691,-2.6691,-2.6691,-2.659,-2.5908,-2.5182,-2.5067,-2.4348,-2.3595,-2.3595,-2.3595,-2.3595,-2.3595,-2.3595,-2.3595,-2.3595,-2.3595,-2.3595,-2.3595,-2.3101,-2.2473,-2.1814,-2.068,-1.9364,-1.772,-1.6909,-1.6522,-1.6522,-1.6522,-1.6522,-1.6522,-1.6522,-1.6194,-1.5454,-1.4971,-1.4376,-1.3637,-1.3152,-1.2881,-1.2881,-1.2881,-1.2881,-1.2881,-1.2881,-1.2881,-1.2881,-1.2881,-1.2881,-1.2881,-1.2881,-1.2881,0.0,0.0,0.0,0.0,0.0,0.0,0.0,0.0,0.0,0.0,0.0,0.0,0.0,0.0,0.0,0.0,0.0,0.0,0.0,0.0,0.0,0.0,0.0,0.0,0.0,0.0,0.0,0.0,0.0,0.0,0.0,0.0,0.0,0.0,-2.3527,-2.4092,-2.4856,-2.5927,-2.6808,-2.7458,-2.7606,-2.7744,-2.7909,-2.8636,-2.8772,-2.8433,-2.8433,-2.8082,-2.7553,-2.7586,-2.7363,-2.7004,-2.7004,-2.6873,-2.6691,-2.6691,-2.6691,-2.6691,-2.6691,-2.6691,-2.6691,-2.6691,-2.6691,-2.6691,-2.6691,-2.6175,-2.554,-2.5259,-2.4632,-2.3906,-2.3681,-2.3595,-2.3595,-2.3595,-2.3595,-2.3595,-2.3595,-2.337,-2.3161,-2.3161,-2.2398,-2.1635,-2.1291,-2.0001,-1.8639,-1.7475,-1.6837,-1.6522,-1.6522,-1.6522,-1.6522,-1.6522,-1.6522,-1.6151,-1.5231,-1.488,-1.434,-1.342,-1.3055,-1.2881,-1.2881,-1.2881,-1.2881,-1.2881,-1.2881,-1.2881,-1.2881,-1.2881,-1.2881,-1.2881,-1.2881,-1.2881,0.0,0.0,0.0,0.0,0.0,0.0,0.0,0.0,0.0,0.0,0.0,0.0,0.0,0.0,0.0,0.0,0.0,0.0,0.0,0.0,0.0,0.0,0.0,0.0,0.0,0.0,0.0,0.0,0.0,0.0,0.0,0.0,-2.108,-2.1407,-2.1581,-2.1766,-2.1995,-2.3789,-2.4976,-2.5424,-2.6447,-2.6825,-2.6725,-2.801,-2.823,-2.7621,-2.7691,-2.752,-2.7178,-2.7051,-2.7066,-2.7178,-2.6987,-2.6808,-2.6691,-2.6691,-2.6691,-2.6691,-2.6691,-2.6691,-2.6691,-2.6691,-2.6691,-2.6691,-2.6691,-2.6367,-2.5888,-2.5449,-2.491,-2.4307,-2.3837,-2.3681,-2.3595,-2.3595,-2.352,-2.343,-2.343,-2.2951,-2.2544,-2.2544,-2.1545,-2.0601,-2.0315,-1.9059,-1.7907,-1.7271,-1.6795,-1.6522,-1.6522,-1.6522,-1.6522,-1.6522,-1.6522,-1.6064,-1.4971,-1.4744,-1.4247,-1.3104,-1.2978,-1.2881,-1.2881,-1.2881,-1.2881,-1.2881,-1.2881,-1.2881,-1.2881,-1.2881,-1.2881,-1.2881,-1.2881,-1.2881,0.0,0.0,0.0,0.0,0.0,0.0,0.0,0.0,0.0,0.0,0.0,0.0,0.0,0.0,0.0,0.0,0.0,0.0,0.0,0.0,0.0,0.0,0.0,0.0,0.0,0.0,0.0,0.0,0.0,0.0,0.0,-2.0182,-2.0205,-1.9684,-1.9664,-2.0286,-2.1554,-2.1309,-2.2374,-2.4642,-2.5654,-2.6345,-2.6708,-2.6911,-2.6945,-2.6877,-2.7206,-2.7154,-2.6841,-2.7787,-2.7613,-2.6841,-2.747,-2.7317,-2.6691,-2.6691,-2.6691,-2.6691,-2.6691,-2.6691,-2.6691,-2.6691,-2.6691,-2.6691,-2.6691,-2.6367,-2.5977,-2.5924,-2.5182,-2.4389,-2.4307,-2.3948,-2.3595,-2.3595,-2.3191,-2.2802,-2.2802,-2.2293,-2.1829,-2.1829,-2.1231,-2.0233,-1.8722,-1.824,-1.7747,-1.6752,-1.6552,-1.6522,-1.6522,-1.6522,-1.6522,-1.6522,-1.6522,-1.6238,-1.5543,-1.5017,-1.4422,-1.3732,-1.32,-1.2881,-1.2881,-1.2881,-1.2881,-1.2881,-1.2881,-1.2881,-1.2881,-1.2881,-1.2881,-1.2881,-1.2881,-1.2881,0.0,0.0,0.0,0.0,0.0,0.0,0.0,0.0,0.0,0.0,0.0,0.0,0.0,0.0,0.0,0.0,0.0,0.0,0.0,0.0,0.0,0.0,0.0,0.0,0.0,0.0,0.0,0.0,0.0,0.0,-1.8883,-1.872,-1.8607,-1.8583,-1.8273,-1.8405,-1.9103,-1.9751,-2.1368,-2.3968,-2.506,-2.5799,-2.6332,-2.659,-2.6691,-2.6725,-2.6873,-2.7115,-2.7378,-2.766,-2.773,-2.7643,-2.7589,-2.7487,-2.7334,-2.6873,-2.6841,-2.6987,-2.6791,-2.6691,-2.6691,-2.6691,-2.6691,-2.6691,-2.6691,-2.6556,-2.6332,-2.6068,-2.5449,-2.4792,-2.4471,-2.3991,-2.3595,-2.3595,-2.2847,-2.2054,-2.1784,-2.1425,-2.0944,-2.0259,-1.9888,-1.9277,-1.7868,-1.7666,-1.7394,-1.6637,-1.6522,-1.6522,-1.6522,-1.6522,-1.6522,-1.6522,-1.6522,-1.6238,-1.5632,-1.5062,-1.4422,-1.3815,-1.3238,-1.2881,-1.2881,-1.2881,-1.2881,-1.2881,-1.2881,-1.2881,-1.2881,-1.2881,-1.2881,-1.2881,-1.2881,-1.2881,0.0,0.0,0.0,0.0,0.0,0.0,0.0,0.0,0.0,0.0,0.0,0.0,0.0,0.0,0.0,0.0,0.0,0.0,0.0,0.0,0.0,0.0,0.0,0.0,0.0,0.0,0.0,0.0,0.0,0.0,-1.7726,-1.7297,-1.7044,-1.7002,-1.6827,-1.6701,-1.675,-1.8672,-2.0882,-2.3244,-2.4271,-2.5128,-2.5799,-2.6297,-2.6505,-2.6539,-2.6741,-2.7147,-2.7589,-2.7572,-2.7787,-2.8084,-2.7718,-2.7707,-2.7794,-2.7115,-2.7019,-2.7241,-2.6841,-2.6691,-2.6691,-2.6691,-2.6691,-2.6691,-2.6691,-2.6691,-2.6624,-2.612,-2.5615,-2.5067,-2.4552,-2.3991,-2.3565,-2.34,-2.2517,-2.15,-2.0812,-2.0543,-2.0139,-1.9107,-1.8893,-1.8574,-1.7463,-1.7312,-1.7105,-1.6595,-1.6522,-1.6522,-1.6522,-1.6522,-1.6423,-1.6281,-1.6423,-1.6194,-1.5454,-1.4971,-1.4422,-1.3815,-1.3238,-1.2881,-1.2881,-1.2881,-1.2881,-1.2881,-1.2881,-1.2881,-1.2881,-1.2881,-1.2881,-1.2881,-1.2881,-1.2881,0.0,0.0,0.0,0.0,0.0,0.0,0.0,0.0,0.0,0.0,0.0,0.0,0.0,0.0,0.0,0.0,0.0,0.0,0.0,0.0,0.0,0.0,0.0,0.0,0.0,0.0,0.0,0.0,0.0,0.0,-1.5614,-1.6181,-1.5894,-1.4446,-1.5088,-1.5468,-1.54,-1.8235,-2.0637,-2.2538,-2.3273,-2.4164,-2.5259,-2.5799,-2.6049,-2.6068,-2.6905,-2.7083,-2.6841,-2.7901,-2.7956,-2.7439,-2.8084,-2.8156,-2.784,-2.7409,-2.7272,-2.7241,-2.6841,-2.6691,-2.6691,-2.6691,-2.6691,-2.6691,-2.6691,-2.6691,-2.6624,-2.612,-2.5615,-2.5067,-2.4552,-2.3991,-2.3445,-2.2862,-2.2203,-2.1335,-2.0034,-1.975,-1.9574,-1.902,-1.8893,-1.8574,-1.7463,-1.7312,-1.7105,-1.6595,-1.6522,-1.6522,-1.6522,-1.6522,-1.6281,-1.572,-1.6151,-1.602,-1.4835,-1.4709,-1.4422,-1.3815,-1.3238,-1.2881,-1.2881,-1.2881,-1.2881,-1.2881,-1.2881,-1.2881,-1.2881,-1.2881,-1.2881,-1.2881,-1.2881,-1.2881,0.0,0.0,0.0,0.0,0.0,0.0,0.0,0.0,0.0,0.0,0.0,0.0,0.0,0.0,0.0,0.0,0.0,0.0,0.0,0.0,0.0,0.0,0.0,0.0,0.0,0.0,0.0,0.0,0.0,0.0,-1.3906,-1.4136,-1.4016,-1.3433,-1.3734,-1.4523,-1.5971,-1.7986,-1.98,-2.1445,-2.2848,-2.3477,-2.3492,-2.4866,-2.5243,-2.4875,-2.5625,-2.6386,-2.7115,-2.7512,-2.7833,-2.8029,-2.8075,-2.8281,-2.8507,-2.7601,-2.747,-2.7589,-2.6939,-2.6691,-2.6691,-2.6691,-2.6691,-2.6691,-2.6691,-2.6691,-2.6624,-2.612,-2.5615,-2.5067,-2.4552,-2.3686,-2.2742,-2.1665,-2.0902,-2.0184,-1.9346,-1.9207,-1.9043,-1.8496,-1.8106,-1.7626,-1.6909,-1.6795,-1.671,-1.6522,-1.6522,-1.6522,-1.6522,-1.6522,-1.6423,-1.6194,-1.6008,-1.5732,-1.532,-1.4549,-1.405,-1.3815,-1.3238,-1.2881,-1.2881,-1.2881,-1.2881,-1.2881,-1.2881,-1.2881,-1.2881,-1.2881,-1.2881,-1.2881,-1.2403,-1.2187,0.0,0.0,0.0,0.0,0.0,0.0,0.0,0.0,0.0,0.0,0.0,0.0,0.0,0.0,0.0,0.0,0.0,0.0,0.0,0.0,0.0,0.0,0.0,0.0,0.0,0.0,0.0,0.0,0.0,0.0,-1.2554,-1.2373,-1.2309,-1.2309,-1.2511,-1.358,-1.5642,-1.7092,-1.8529,-1.9947,-2.1366,-2.1917,-2.175,-2.3326,-2.3777,-2.3406,-2.418,-2.5415,-2.6855,-2.7,-2.7417,-2.8029,-2.8075,-2.836,-2.8725,-2.7946,-2.7765,-2.7794,-2.7147,-2.6808,-2.6691,-2.6691,-2.6691,-2.6691,-2.6691,-2.659,-2.6317,-2.5592,-2.5019,-2.4437,-2.3665,-2.2758,-2.1799,-2.0917,-2.0072,-1.9332,-1.8968,-1.8893,-1.8688,-1.7987,-1.7544,-1.7105,-1.6595,-1.6522,-1.6522,-1.6522,-1.6522,-1.6522,-1.6522,-1.6522,-1.6337,-1.5932,-1.5732,-1.5454,-1.5039,-1.4272,-1.3815,-1.3815,-1.3238,-1.2881,-1.2881,-1.2881,-1.2881,-1.2881,-1.2881,-1.2881,-1.2881,-1.2881,-1.2774,-1.251,-1.203,-1.1566,0.0,0.0,0.0,0.0,0.0,0.0,0.0,0.0,0.0,0.0,0.0,0.0,0.0,0.0,0.0,0.0,0.0,0.0,0.0,0.0,0.0,0.0,0.0,0.0,0.0,0.0,0.0,0.0,0.0,-1.219,-1.1475,-1.1104,-1.0921,-1.0928,-1.1527,-1.2587,-1.4139,-1.5483,-1.684,-1.8147,-1.8787,-1.9373,-2.0045,-2.1145,-2.1663,-2.1672,-2.2681,-2.4194,-2.5928,-2.6302,-2.677,-2.7348,-2.8094,-2.8394,-2.8394,-2.8394,-2.8183,-2.784,-2.7439,-2.7036,-2.6691,-2.6691,-2.6691,-2.6691,-2.6674,-2.6333,-2.5707,-2.4487,-2.3759,-2.3118,-2.1973,-2.1201,-2.0722,-2.0692,-1.9765,-1.8893,-1.8893,-1.8855,-1.8535,-1.7504,-1.7312,-1.7118,-1.6595,-1.6522,-1.6522,-1.6522,-1.6522,-1.6522,-1.6522,-1.6522,-1.6064,-1.4835,-1.5231,-1.5084,-1.3909,-1.3768,-1.3768,-1.3768,-1.3238,-1.2881,-1.2881,-1.2881,-1.2881,-1.2881,-1.2881,-1.2881,-1.2881,-1.2881,-1.255,-1.1814,-1.1765,-1.1065,-1.2577,0.0,0.0,0.0,0.0,0.0,0.0,0.0,0.0,0.0,0.0,0.0,0.0,0.0,0.0,0.0,0.0,0.0,0.0,0.0,0.0,0.0,0.0,0.0,0.0,0.0,0.0,0.0,-1.1233,-1.0256,-0.9454,-0.8786,-0.8685,-0.9273,-1.0442,-1.1828,-1.331,-1.4779,-1.5952,-1.6912,-1.7937,-1.8312,-1.8033,-1.9766,-2.0258,-1.9872,-2.1049,-2.2303,-2.3631,-2.4912,-2.5933,-2.6802,-2.7683,-2.8183,-2.8394,-2.8394,-2.8183,-2.784,-2.7439,-2.7036,-2.6691,-2.6691,-2.6691,-2.6556,-2.5697,-2.5376,-2.4952,-2.3349,-2.2789,-2.2423,-2.1295,-2.0857,-2.0587,-2.0094,-1.9427,-1.8779,-1.8419,-1.8027,-1.7666,-1.7353,-1.6993,-1.668,-1.6522,-1.6522,-1.6522,-1.6522,-1.6522,-1.6522,-1.6522,-1.6522,-1.6194,-1.541,-1.5096,-1.4652,-1.3862,-1.342,-1.3152,-1.3152,-1.2968,-1.2881,-1.2881,-1.2881,-1.2881,-1.2881,-1.2881,-1.2881,-1.2881,-1.2881,-1.2774,-1.2559,-1.1525,-1.0364,0.0,0.0,0.0,0.0,0.0,0.0,0.0,0.0,0.0,0.0,0.0,0.0,0.0,0.0,0.0,0.0,0.0,0.0,0.0,0.0,0.0,0.0,0.0,0.0,0.0,0.0,0.0,0.0,-0.9771,-0.86,-0.7364,-0.7198,-0.7312,-0.7773,-0.9728,-1.1185,-1.2097,-1.377,-1.4864,-1.5328,-1.628,-1.6669,-1.6589,-1.7944,-1.8502,-1.8399,-1.9346,-2.0373,-2.155,-2.2729,-2.4433,-2.6337,-2.6618,-2.7035,-2.7459,-2.7289,-2.7023,-2.67,-2.6469,-2.6124,-2.5778,-2.5778,-2.5778,-2.5628,-2.478,-2.4377,-2.3886,-2.2436,-2.1645,-2.1118,-2.0452,-2.0124,-1.9855,-1.9457,-1.8779,-1.8145,-1.7827,-1.7353,-1.6951,-1.6951,-1.671,-1.6522,-1.6522,-1.6522,-1.6522,-1.6522,-1.6522,-1.6522,-1.6522,-1.6522,-1.6281,-1.5676,-1.505,-1.4468,-1.3862,-1.3238,-1.2881,-1.2881,-1.2881,-1.2881,-1.2881,-1.2881,-1.2881,-1.2881,-1.2881,-1.2774,-1.2452,-1.2452,-1.2147,-1.1601,-1.0474,-0.9562,-1.3343,-1.432,0.0,0.0,0.0,0.0,0.0,-1.5934,0.0,0.0,0.0,0.0,0.0,0.0,0.0,0.0,0.0,0.0,0.0,0.0,0.0,0.0,0.0,0.0,0.0,0.0,-1.0601,-0.9234,-0.838,-0.7178,-0.5496,-0.6091,-0.6529,-0.6691,-0.9297,-1.0754,-1.0914,-1.2793,-1.3684,-1.3732,-1.4329,-1.4869,-1.541,-1.6046,-1.6604,-1.7133,-1.7733,-1.8665,-1.9778,-2.0347,-2.2551,-2.5546,-2.5162,-2.5432,-2.5981,-2.5694,-2.5394,-2.509,-2.509,-2.4849,-2.4506,-2.4506,-2.4475,-2.4334,-2.3835,-2.3353,-2.2687,-2.1619,-2.0538,-1.969,-1.969,-1.9281,-1.8893,-1.8893,-1.8066,-1.7312,-1.7312,-1.6879,-1.6522,-1.6522,-1.6522,-1.6522,-1.6522,-1.6522,-1.6522,-1.6522,-1.6522,-1.6522,-1.6522,-1.6423,-1.6194,-1.5543,-1.496,-1.4376,-1.3732,-1.319,-1.2881,-1.2881,-1.2881,-1.2881,-1.2881,-1.2881,-1.2881,-1.2881,-1.2822,-1.2403,-1.1566,-1.1665,-1.1065,-0.9762,-0.9211,-0.8857,-1.4452,-1.5221,-1.5709,0.0,0.0,0.0,0.0,-1.4274,0.0,0.0,0.0,0.0,0.0,0.0,0.0,0.0,0.0,0.0,0.0,0.0,0.0,0.0,0.0,0.0,0.0,0.0,-0.9739,-0.8871,-0.7052,-0.5639,-0.4736,-0.5328,-0.6239,-0.7346,-0.9009,-1.046,-1.1616,-1.2589,-1.3055,-1.3055,-1.3695,-1.405,-1.4179,-1.5264,-1.584,-1.5971,-1.6995,-1.7892,-1.867,-1.9491,-2.11,-2.3185,-2.4158,-2.4633,-2.4812,-2.5394,-2.5394,-2.509,-2.509,-2.4849,-2.4506,-2.4506,-2.4288,-2.3819,-2.2752,-2.2152,-2.1568,-2.0375,-1.9888,-1.969,-1.969,-1.9281,-1.8893,-1.8893,-1.8066,-1.7312,-1.7312,-1.6879,-1.6522,-1.6522,-1.6522,-1.6522,-1.6522,-1.6522,-1.6522,-1.6522,-1.6522,-1.6522,-1.6522,-1.6095,-1.5543,-1.4926,-1.4329,-1.3732,-1.3152,-1.2978,-1.2881,-1.2881,-1.2881,-1.2881,-1.2881,-1.2881,-1.2881,-1.2881,-1.2344,-1.1416,-1.021,-1.0712,-1.0568,-0.9814,-0.9666,-0.9309,-1.5208,-1.5875,-1.6368,-1.5634,0.0,0.0,0.0,0.0,0.0,0.0,0.0,0.0,0.0,0.0,0.0,0.0,0.0,0.0,0.0,0.0,0.0,0.0,0.0,0.0,0.0,0.0,-0.934,-0.8283,-0.6838,-0.5928,-0.5555,-0.6199,-0.7047,-0.814,-0.9489,-1.073,-1.1814,-1.255,-1.2881,-1.2881,-1.319,-1.3505,-1.3815,-1.4732,-1.532,-1.5632,-1.6514,-1.7232,-1.7847,-1.8268,-1.9157,-2.0429,-2.2264,-2.3251,-2.358,-2.3839,-2.3853,-2.3721,-2.3721,-2.3579,-2.3363,-2.3134,-2.292,-2.2555,-2.1499,-2.0911,-2.0472,-1.9888,-1.969,-1.969,-1.969,-1.9095,-1.8496,-1.8496,-1.7666,-1.6909,-1.6909,-1.668,-1.6522,-1.6522,-1.6522,-1.6522,-1.6522,-1.6522,-1.6522,-1.6522,-1.6522,-1.6522,-1.6522,-1.5952,-1.5499,-1.5186,-1.4318,-1.3684,-1.3372,-1.3065,-1.2881,-1.2881,-1.2881,-1.2881,-1.2881,-1.2881,-1.2715,-1.2344,-1.1674,-1.0813,-0.9814,-0.9814,-0.9614,-0.9309,-0.9309,-0.9106,0.0,0.0,0.0,0.0,0.0,-1.6844,0.0,0.0,0.0,-1.6137,0.0,0.0,0.0,0.0,0.0,0.0,0.0,0.0,0.0,0.0,0.0,0.0,0.0,0.0,0.0,0.0,-0.8954,-0.7765,-0.6935,-0.6546,-0.6789,-0.7492,-0.8277,-0.9082,-1.0332,-1.1316,-1.203,-1.2608,-1.2881,-1.2881,-1.2881,-1.3152,-1.3637,-1.4236,-1.488,-1.5454,-1.6051,-1.6625,-1.7146,-1.7271,-1.7544,-1.8157,-2.0356,-2.1583,-2.2117,-2.2145,-2.218,-2.218,-2.2282,-2.2237,-2.2106,-2.1718,-2.1491,-2.1197,-2.0416,-1.9965,-1.969,-1.969,-1.969,-1.969,-1.9566,-1.8817,-1.8066,-1.7987,-1.7188,-1.6522,-1.6522,-1.6522,-1.6522,-1.6522,-1.6522,-1.6522,-1.6522,-1.6522,-1.6522,-1.6522,-1.6522,-1.6522,-1.6522,-1.5864,-1.541,-1.541,-1.4365,-1.3637,-1.3637,-1.32,-1.2881,-1.2881,-1.2881,-1.2881,-1.2881,-1.2881,-1.251,-1.1616,-1.1065,-1.0415,-0.9614,-0.9061,-0.8804,-0.8804,-0.8804,-0.8804,0.0,0.0,0.0,0.0,-1.677,0.0,0.0,0.0,-1.5073,-1.4008,0.0,0.0,0.0,0.0,0.0,0.0,0.0,0.0,0.0,0.0,0.0,0.0,0.0,0.0,0.0,0.0,0.0,-0.7741,-0.6574,-0.6354,-0.7429,-0.8205,-0.9186,-1.0537,-1.1282,-1.203,-1.2774,-1.2881,-1.2881,-1.2881,-1.2881,-1.2929,-1.3017,-1.3647,-1.4236,-1.4835,-1.5454,-1.6039,-1.6637,-1.7118,-1.7353,-1.7531,-1.9178,-1.9899,-2.0085,-2.1244,-2.1688,-2.1718,-2.2152,-2.2032,-2.1658,-2.1628,-2.1102,-2.0348,-1.9909,-1.9762,-1.969,-1.969,-1.969,-1.9603,-1.9132,-1.8535,-1.7987,-1.7504,-1.6909,-1.6522,-1.6522,-1.6522,-1.6522,-1.6522,-1.6522,-1.6522,-1.6522,-1.6522,-1.6522,-1.6522,-1.6522,-1.6522,-1.6522,-1.5511,-1.4789,-1.4789,-1.3695,-1.3017,-1.3017,-1.2929,-1.2881,-1.2881,-1.2881,-1.2881,-1.2881,-1.2881,-1.2255,-1.0965,-1.0864,-1.0167,-0.891,-0.8857,-0.8804,-0.8804,-0.8804,-0.8804,0.0,0.0,0.0,0.0,0.0,0.0,0.0,0.0,-1.529,0.0,0.0,0.0,0.0,0.0,0.0,0.0,0.0,0.0,0.0,0.0,0.0,0.0,0.0,0.0,0.0,0.0,0.0,0.0,0.0,-0.8276,-0.9048,-0.9613,-1.0383,-1.1332,-1.1648,-1.2129,-1.2881,-1.2881,-1.2881,-1.2881,-1.2881,-1.2881,-1.2929,-1.3884,-1.4468,-1.4744,-1.57,-1.6281,-1.6522,-1.6752,-1.6837,-1.6951,-1.8221,-1.9096,-1.9713,-2.083,-2.1244,-2.1275,-2.1493,-2.1415,-2.1213,-2.0927,-2.0449,-1.9909,-1.9747,-1.969,-1.969,-1.969,-1.969,-1.9566,-1.9043,-1.8496,-1.7947,-1.7422,-1.6879,-1.6522,-1.6522,-1.6522,-1.6522,-1.6522,-1.6522,-1.6522,-1.6522,-1.6522,-1.6522,-1.6522,-1.6194,-1.5964,-1.5964,-1.4915,-1.419,-1.419,-1.343,-1.2881,-1.2881,-1.2881,-1.2881,-1.2881,-1.2881,-1.2881,-1.2881,-1.2881,-1.2255,-1.0813,-1.0813,-1.0167,-0.8804,-0.8804,-0.8804,-0.8804,-0.8804,-0.8804,-1.6522,0.0,0.0,0.0,0.0,0.0,0.0,0.0,0.0,0.0,0.0,0.0,0.0,0.0,0.0,0.0,0.0,0.0,0.0,0.0,0.0,0.0,0.0,0.0,0.0,0.0,0.0,0.0,0.0,0.0,-1.0608,-1.0948,-1.1402,-1.208,-1.208,-1.2344,-1.2881,-1.2881,-1.2881,-1.2881,-1.2881,-1.2881,-1.2929,-1.3967,-1.456,-1.4755,-1.5788,-1.6337,-1.6522,-1.6522,-1.6595,-1.6795,-1.7747,-1.8622,-1.9513,-2.0467,-2.0797,-2.0829,-2.0975,-2.0926,-2.0731,-2.0296,-1.9929,-1.969,-1.969,-1.969,-1.969,-1.969,-1.9603,-1.9369,-1.8817,-1.8302,-1.7747,-1.7188,-1.6795,-1.6522,-1.6522,-1.6522,-1.6522,-1.6522,-1.6522,-1.6522,-1.6522,-1.6522,-1.6423,-1.6281,-1.5864,-1.5543,-1.5365,-1.4457,-1.3815,-1.3815,-1.3238,-1.2881,-1.2881,-1.2881,-1.2881,-1.2881,-1.2881,-1.2881,-1.2881,-1.2881,-1.2255,-1.0813,-1.0813,-1.0167,-0.8804,-0.8804,-0.8804,-0.8804,-0.8804,-0.8804,0.0,0.0,0.0,-1.5205,0.0,0.0,0.0,0.0,-1.4929,0.0,0.0,0.0,0.0,0.0,0.0,0.0,0.0,0.0,0.0,0.0,0.0,0.0,0.0,0.0,0.0,0.0,0.0,0.0,0.0,0.0,-1.1748,-1.1853,-1.2176,-1.2861,-1.2871,-1.2881,-1.2881,-1.2881,-1.2881,-1.2881,-1.2881,-1.2881,-1.2929,-1.3552,-1.4143,-1.4744,-1.5365,-1.5952,-1.6522,-1.6522,-1.6795,-1.7353,-1.7867,-1.8458,-1.9029,-1.9989,-2.0314,-2.0382,-2.0829,-2.0682,-2.0246,-1.9839,-1.9711,-1.969,-1.969,-1.969,-1.969,-1.969,-1.9332,-1.8817,-1.8263,-1.7747,-1.7188,-1.6637,-1.6522,-1.6522,-1.6522,-1.6522,-1.6522,-1.6522,-1.6522,-1.6522,-1.6522,-1.6522,-1.6281,-1.572,-1.5632,-1.541,-1.4789,-1.419,-1.3815,-1.3815,-1.3238,-1.2881,-1.2881,-1.2881,-1.2881,-1.2881,-1.2881,-1.2881,-1.2881,-1.2881,-1.2255,-1.0813,-1.0813,-1.0167,-0.8804,-0.8804,-0.8804,-0.8804,-0.8804,-0.8804,0.0,0.0,-1.6333,-1.5605,0.0,0.0,0.0,0.0,0.0,0.0,0.0,0.0,0.0,0.0,0.0,0.0,0.0,0.0,0.0,0.0,0.0,0.0,0.0,0.0,0.0,0.0,0.0,0.0,0.0,0.0,0.0,-1.2989,-1.3273,-1.3505,-1.3104,-1.2881,-1.2881,-1.2881,-1.2881,-1.2881,-1.2881,-1.2881,-1.2929,-1.3505,-1.4143,-1.4744,-1.532,-1.5952,-1.6522,-1.6522,-1.6837,-1.7353,-1.7907,-1.8419,-1.8968,-1.9645,-1.9909,-1.9945,-2.007,-2.005,-1.9874,-1.9747,-1.969,-1.969,-1.969,-1.969,-1.9639,-1.9281,-1.9043,-1.8688,-1.7787,-1.7422,-1.7146,-1.6637,-1.6522,-1.6522,-1.6522,-1.6522,-1.6522,-1.6522,-1.6522,-1.6522,-1.6522,-1.6194,-1.582,-1.5632,-1.4903,-1.4318,-1.4143,-1.3563,-1.319,-1.319,-1.3017,-1.2881,-1.2881,-1.2881,-1.2881,-1.2881,-1.2881,-1.2881,-1.2881,-1.2881,-1.2461,-1.1466,-1.1015,-1.0364,-0.9465,-0.9008,-0.8804,-0.8804,-0.8804,-0.8804,-1.6522,-1.6522,0.0,-1.5831,-1.5429,0.0,-1.4513,0.0,0.0,0.0,0.0,0.0,0.0,0.0,0.0,0.0,0.0,0.0,0.0,0.0,0.0,0.0,0.0,0.0,0.0,0.0,-1.0683,-1.1652,0.0,0.0,0.0,0.0,-1.3478,-1.3494,-1.3104,-1.2881,-1.2881,-1.2881,-1.2881,-1.2881,-1.2881,-1.2881,-1.2929,-1.3505,-1.4003,-1.4422,-1.5231,-1.582,-1.6194,-1.6423,-1.6909,-1.7626,-1.7987,-1.8535,-1.9244,-1.9566,-1.969,-1.969,-1.969,-1.969,-1.969,-1.969,-1.969,-1.969,-1.969,-1.9566,-1.9332,-1.9006,-1.8612,-1.8185,-1.7463,-1.7146,-1.6909,-1.6595,-1.6522,-1.6522,-1.6522,-1.6522,-1.6522,-1.6522,-1.6522,-1.6522,-1.6522,-1.582,-1.5276,-1.5276,-1.4457,-1.3732,-1.3505,-1.3152,-1.2881,-1.2881,-1.2881,-1.2881,-1.2881,-1.2881,-1.2881,-1.2881,-1.2881,-1.2774,-1.251,-1.2501,-1.2039,-1.1116,-1.0661,-1.0115,-0.9465,-0.9008,-0.8804,-0.8804,-0.8804,-0.8804]},{"header":{"parameterUnit":"m.s-1","parameterCategory":1,"la1":30.6,"la2":29.2853,"lo1":-89.7004,"lo2":-87.6739,"dy":0.0162,"dx":0.0183,"nx":112,"ny":82,"refTime":"2024-07-28T12:00:00:Z","depth":0,"parameterNumber":3,"parameterNumberName":"V-component_of_WINDS"},"data":[0.0,0.0,0.0,0.0,0.0,0.0,0.0,0.0,0.0,0.0,0.0,0.0,0.0,0.0,0.0,0.0,0.0,0.0,0.0,0.0,0.0,0.0,0.0,0.0,0.0,0.0,0.0,0.0,0.0,0.0,0.0,0.0,0.0,0.0,0.0,0.0,0.0,0.0,0.0,0.0,0.0,0.0,0.0,0.0,0.0,0.0,0.0,0.0,0.0,0.0,0.0,0.0,0.0,0.0,0.0,0.0,0.0,0.0,0.0,0.0,0.0,0.0,0.0,0.0,0.0,0.0,0.0,0.0,0.0,0.0,0.0,0.0,0.0,0.0,0.0,0.0,0.0,0.0,0.0,0.0,0.0,0.0,0.0,0.0,0.0,0.0,0.0,0.0,0.0,0.0,0.0,-1.8143,-1.9821,-2.0484,-1.9804,-1.9293,-1.7799,-1.4915,0.0,0.0,0.0,0.0,0.0,0.0,0.0,0.0,0.0,0.0,0.0,0.0,0.0,0.0,0.0,0.0,0.0,0.0,0.0,0.0,0.0,0.0,0.0,0.0,0.0,0.0,0.0,0.0,0.0,0.0,0.0,0.0,0.0,0.0,0.0,0.0,0.0,0.0,0.0,0.0,0.0,0.0,0.0,0.0,0.0,0.0,0.0,0.0,0.0,0.0,0.0,0.0,0.0,0.0,0.0,0.0,0.0,0.0,0.0,0.0,0.0,0.0,0.0,0.0,0.0,0.0,0.0,0.0,0.0,0.0,0.0,0.0,0.0,0.0,0.0,0.0,0.0,0.0,0.0,0.0,0.0,0.0,0.0,0.0,0.0,0.0,0.0,0.0,0.0,0.0,0.0,0.0,0.0,0.0,0.0,0.0,0.0,0.0,0.0,0.0,0.0,0.0,0.0,0.0,-1.5662,-1.848,-1.9964,-2.0274,-1.9155,-1.9388,-1.848,-1.5923,0.0,0.0,0.0,0.0,0.0,0.0,0.0,0.0,0.0,0.0,0.0,0.0,0.0,0.0,0.0,0.0,0.0,0.0,0.0,0.0,0.0,0.0,0.0,0.0,0.0,0.0,0.0,0.0,0.0,0.0,0.0,0.0,0.0,0.0,0.0,0.0,0.0,0.0,0.0,0.0,0.0,0.0,0.0,0.0,0.0,0.0,0.0,0.0,0.0,0.0,0.0,0.0,0.0,0.0,0.0,0.0,0.0,0.0,0.0,0.0,0.0,0.0,0.0,0.0,0.0,0.0,0.0,0.0,0.0,0.0,0.0,0.0,0.0,0.0,0.0,0.0,0.0,0.0,0.0,0.0,0.0,0.0,0.0,0.0,0.0,0.0,0.0,0.0,0.0,0.0,0.0,0.0,0.0,0.0,0.0,0.0,0.0,0.0,0.0,0.0,0.0,0.0,0.0,-1.5802,-1.7551,-1.9666,-2.0371,-2.0469,-1.9926,-1.9773,-1.862,-1.605,-1.4084,0.0,0.0,0.0,0.0,0.0,0.0,0.0,0.0,0.0,0.0,0.0,0.0,0.0,0.0,0.0,0.0,0.0,0.0,0.0,0.0,0.0,0.0,0.0,0.0,0.0,0.0,0.0,0.0,0.0,0.0,0.0,0.0,0.0,0.0,0.0,0.0,0.0,0.0,0.0,0.0,0.0,0.0,0.0,0.0,0.0,0.0,0.0,0.0,0.0,0.0,0.0,0.0,0.0,0.0,0.0,0.0,0.0,0.0,0.0,0.0,0.0,0.0,0.0,0.0,0.0,0.0,0.0,0.0,0.0,0.0,0.0,0.0,0.0,0.0,0.0,0.0,0.0,0.0,0.0,0.0,0.0,0.0,0.0,0.0,0.0,0.0,0.0,0.0,0.0,0.0,0.0,0.0,0.0,0.0,0.0,0.0,0.0,0.0,0.0,0.0,0.0,0.0,-1.7988,-1.9331,-2.0363,-2.0468,-2.0468,-2.0468,-1.9705,-1.8238,-1.5948,-1.4071,0.0,0.0,0.0,0.0,0.0,0.0,0.0,0.0,0.0,0.0,0.0,0.0,0.0,0.0,0.0,0.0,0.0,0.0,0.0,0.0,0.0,0.0,0.0,0.0,0.0,0.0,0.0,0.0,0.0,0.0,0.0,0.0,0.0,0.0,0.0,0.0,0.0,0.0,0.0,0.0,0.0,0.0,0.0,0.0,0.0,0.0,0.0,0.0,0.0,0.0,0.0,0.0,0.0,0.0,0.0,0.0,0.0,0.0,0.0,0.0,0.0,0.0,0.0,0.0,0.0,0.0,0.0,0.0,0.0,0.0,0.0,0.0,0.0,0.0,0.0,0.0,0.0,0.0,0.0,0.0,0.0,0.0,0.0,0.0,0.0,0.0,0.0,0.0,0.0,0.0,0.0,0.0,0.0,0.0,0.0,0.0,0.0,0.0,0.0,0.0,0.0,0.0,-1.8074,-1.966,-1.975,-1.975,-1.975,-1.975,-1.8583,-1.7266,-1.5888,-1.3173,0.0,0.0,0.0,0.0,0.0,0.0,0.0,0.0,0.0,0.0,0.0,0.0,0.0,0.0,0.0,0.0,0.0,0.0,0.0,0.0,0.0,0.0,0.0,0.0,0.0,0.0,0.0,0.0,0.0,0.0,0.0,0.0,0.0,0.0,0.0,0.0,0.0,0.0,0.0,0.0,0.0,0.0,0.0,0.0,0.0,0.0,0.0,0.0,0.0,0.0,0.0,0.0,0.0,0.0,0.0,0.0,0.0,0.0,0.0,0.0,0.0,0.0,0.0,0.0,0.0,0.0,0.0,0.0,0.0,0.0,0.0,0.0,0.0,0.0,0.0,0.0,0.0,0.0,0.0,0.0,0.0,0.0,0.0,0.0,0.0,0.0,0.0,0.0,0.0,0.0,0.0,0.0,0.0,0.0,0.0,0.0,0.0,0.0,0.0,0.0,0.0,0.0,-1.7341,-1.8777,0.0,-1.969,-1.969,-1.969,-1.9226,-1.8044,-1.5933,0.0,0.0,0.0,0.0,0.0,0.0,0.0,0.0,0.0,0.0,0.0,0.0,0.0,0.0,0.0,0.0,0.0,0.0,0.0,0.0,0.0,0.0,0.0,0.0,0.0,0.0,0.0,0.0,0.0,0.0,0.0,0.0,0.0,0.0,0.0,0.0,0.0,0.0,0.0,0.0,0.0,0.0,0.0,0.0,0.0,0.0,0.0,0.0,0.0,0.0,0.0,0.0,0.0,0.0,0.0,0.0,0.0,0.0,0.0,0.0,0.0,0.0,0.0,0.0,0.0,0.0,0.0,0.0,0.0,0.0,0.0,0.0,0.0,0.0,0.0,0.0,0.0,0.0,0.0,0.0,0.0,0.0,0.0,0.0,0.0,0.0,0.0,0.0,0.0,0.0,0.0,0.0,0.0,0.0,0.0,0.0,0.0,0.0,0.0,0.0,0.0,0.0,-1.5514,-1.7281,-1.8687,0.0,-1.969,-1.969,-1.969,-1.9106,-1.7805,-1.5619,0.0,0.0,0.0,0.0,0.0,0.0,0.0,0.0,0.0,0.0,0.0,0.0,0.0,0.0,0.0,0.0,0.0,0.0,0.0,0.0,0.0,0.0,0.0,0.0,0.0,0.0,0.0,0.0,0.0,0.0,0.0,0.0,0.0,0.0,0.0,0.0,0.0,0.0,0.0,0.0,0.0,0.0,0.0,0.0,0.0,0.0,0.0,0.0,0.0,0.0,0.0,0.0,0.0,0.0,0.0,0.0,0.0,0.0,0.0,0.0,0.0,0.0,0.0,0.0,0.0,0.0,0.0,0.0,0.0,0.0,0.0,0.0,0.0,0.0,0.0,0.0,0.0,0.0,0.0,0.0,0.0,0.0,0.0,0.0,0.0,0.0,0.0,0.0,0.0,0.0,0.0,0.0,0.0,0.0,0.0,0.0,0.0,0.0,0.0,0.0,0.0,0.0,-1.5634,-1.8092,-1.969,-1.969,-1.969,-1.969,-1.969,-1.7861,-1.6174,0.0,0.0,0.0,0.0,0.0,0.0,0.0,0.0,0.0,0.0,0.0,0.0,0.0,0.0,0.0,0.0,0.0,0.0,0.0,0.0,0.0,0.0,0.0,0.0,0.0,0.0,0.0,0.0,0.0,0.0,0.0,0.0,0.0,0.0,0.0,0.0,0.0,0.0,0.0,0.0,0.0,0.0,0.0,0.0,0.0,0.0,0.0,0.0,0.0,0.0,0.0,0.0,0.0,0.0,0.0,0.0,0.0,0.0,0.0,0.0,0.0,0.0,0.0,0.0,0.0,0.0,0.0,0.0,0.0,0.0,0.0,0.0,0.0,0.0,0.0,0.0,0.0,0.0,0.0,0.0,0.0,0.0,0.0,0.0,0.0,0.0,0.0,0.0,0.0,0.0,0.0,0.0,0.0,0.0,0.0,0.0,0.0,0.0,0.0,0.0,0.0,0.0,0.0,0.0,-1.8092,-1.969,-1.969,-1.969,-1.969,-1.969,-1.8732,-1.7371,-1.5619,0.0,0.0,0.0,0.0,0.0,0.0,0.0,0.0,0.0,0.0,0.0,0.0,0.0,0.0,0.0,0.0,0.0,0.0,0.0,0.0,0.0,0.0,0.0,0.0,0.0,0.0,0.0,0.0,0.0,0.0,0.0,0.0,0.0,0.0,0.0,0.0,0.0,0.0,0.0,0.0,0.0,0.0,0.0,0.0,0.0,0.0,0.0,0.0,0.0,0.0,0.0,0.0,0.0,0.0,0.0,0.0,0.0,0.0,0.0,0.0,0.0,0.0,0.0,0.0,0.0,0.0,0.0,0.0,0.0,0.0,0.0,0.0,0.0,0.0,0.0,0.0,0.0,0.0,0.0,0.0,0.0,0.0,0.0,0.0,0.0,0.0,0.0,0.0,0.0,0.0,0.0,0.0,0.0,0.0,0.0,0.0,0.0,0.0,0.0,0.0,0.0,0.0,-1.5634,-1.8092,-1.969,-1.969,-1.969,-1.9747,-1.9945,-1.9181,-1.7947,-1.6146,0.0,0.0,0.0,0.0,0.0,0.0,0.0,0.0,0.0,0.0,0.0,0.0,0.0,0.0,0.0,0.0,0.0,0.0,0.0,0.0,0.0,0.0,0.0,0.0,0.0,0.0,0.0,0.0,0.0,0.0,0.0,0.0,0.0,0.0,0.0,0.0,0.0,0.0,0.0,0.0,0.0,0.0,0.0,0.0,0.0,0.0,0.0,0.0,0.0,0.0,0.0,0.0,0.0,0.0,0.0,0.0,0.0,0.0,0.0,0.0,0.0,0.0,0.0,0.0,0.0,0.0,0.0,0.0,0.0,0.0,0.0,0.0,0.0,0.0,0.0,0.0,0.0,0.0,0.0,0.0,0.0,0.0,0.0,0.0,0.0,0.0,0.0,0.0,0.0,0.0,0.0,0.0,0.0,0.0,0.0,0.0,0.0,0.0,0.0,0.0,0.0,0.0,-1.5634,-1.8125,-1.9747,-1.9711,-1.9711,-1.9894,-2.028,-1.9356,-1.8154,-1.6729,0.0,0.0,0.0,0.0,0.0,0.0,0.0,0.0,0.0,0.0,0.0,0.0,0.0,0.0,0.0,0.0,0.0,0.0,0.0,0.0,0.0,0.0,0.0,0.0,0.0,0.0,0.0,0.0,0.0,0.0,0.0,0.0,0.0,0.0,0.0,0.0,0.0,0.0,0.0,0.0,0.0,0.0,0.0,0.0,0.0,0.0,0.0,0.0,0.0,0.0,0.0,0.0,0.0,0.0,0.0,0.0,0.0,0.0,0.0,0.0,-1.4614,0.0,0.0,0.0,0.0,0.0,0.0,0.0,0.0,0.0,0.0,0.0,0.0,0.0,0.0,0.0,0.0,0.0,0.0,0.0,0.0,0.0,0.0,0.0,0.0,0.0,0.0,0.0,0.0,0.0,0.0,0.0,0.0,0.0,0.0,0.0,0.0,0.0,0.0,0.0,0.0,0.0,-1.5634,-1.8355,-2.0054,-1.9711,-1.9965,-2.0227,-2.028,-1.9659,-1.9014,-1.8479,0.0,0.0,0.0,0.0,0.0,0.0,0.0,0.0,0.0,0.0,0.0,0.0,0.0,0.0,0.0,0.0,0.0,0.0,0.0,0.0,0.0,0.0,0.0,0.0,0.0,0.0,0.0,0.0,0.0,0.0,0.0,0.0,0.0,0.0,0.0,0.0,0.0,0.0,0.0,0.0,0.0,0.0,0.0,0.0,0.0,0.0,0.0,0.0,0.0,0.0,0.0,0.0,0.0,0.0,0.0,0.0,0.0,0.0,0.0,0.0,0.0,-1.7346,0.0,0.0,0.0,0.0,0.0,0.0,0.0,0.0,0.0,0.0,0.0,0.0,0.0,0.0,0.0,0.0,0.0,0.0,0.0,0.0,0.0,0.0,0.0,0.0,0.0,0.0,0.0,0.0,0.0,0.0,0.0,0.0,0.0,0.0,0.0,0.0,0.0,0.0,0.0,0.0,-1.6386,-1.8747,-2.033,-2.0311,-2.0532,-2.0715,-2.0894,-2.0464,-2.005,-1.9772,-1.7977,0.0,0.0,0.0,0.0,0.0,0.0,0.0,0.0,0.0,0.0,0.0,0.0,0.0,0.0,0.0,0.0,0.0,0.0,0.0,0.0,0.0,0.0,0.0,0.0,0.0,0.0,0.0,0.0,0.0,0.0,0.0,0.0,0.0,0.0,0.0,0.0,0.0,0.0,0.0,0.0,0.0,0.0,0.0,0.0,0.0,0.0,0.0,0.0,0.0,0.0,0.0,0.0,0.0,0.0,-2.2756,-2.2071,-2.223,-2.2959,-2.416,-2.295,-2.1791,-2.0664,0.0,0.0,0.0,0.0,0.0,0.0,0.0,0.0,0.0,0.0,0.0,0.0,0.0,0.0,0.0,0.0,0.0,0.0,0.0,0.0,0.0,0.0,0.0,0.0,0.0,-2.0468,-2.0065,0.0,0.0,0.0,0.0,0.0,0.0,0.0,0.0,0.0,0.0,0.0,0.0,-1.7449,-1.9343,-2.0649,-2.0959,-2.1055,-2.1244,-2.1582,-2.1306,-2.1032,-2.0903,-1.9433,-1.7983,0.0,0.0,0.0,0.0,0.0,0.0,0.0,0.0,0.0,0.0,0.0,0.0,0.0,0.0,0.0,0.0,0.0,0.0,0.0,0.0,0.0,0.0,0.0,0.0,0.0,0.0,0.0,0.0,0.0,0.0,0.0,0.0,-1.1295,-1.2901,0.0,0.0,0.0,0.0,0.0,0.0,0.0,0.0,0.0,0.0,0.0,0.0,0.0,0.0,-2.3639,-2.3946,-2.4099,-2.408,-2.4394,-2.4507,-2.4381,-2.5055,-2.5801,-2.6762,-2.7187,0.0,-2.3264,-2.1477,0.0,0.0,0.0,0.0,0.0,0.0,0.0,0.0,0.0,0.0,0.0,0.0,0.0,0.0,0.0,0.0,0.0,0.0,0.0,0.0,0.0,0.0,-2.2039,-2.1545,-2.15,-2.144,0.0,-1.8962,-1.6904,-1.5755,0.0,0.0,0.0,0.0,0.0,0.0,0.0,0.0,-1.8599,-2.0348,-2.1337,-2.1023,-2.1306,-2.1521,-2.1598,-2.1552,-2.1685,-2.2046,-2.1265,-2.0363,-1.9504,-1.7265,0.0,0.0,0.0,0.0,0.0,0.0,0.0,0.0,0.0,0.0,0.0,0.0,0.0,0.0,0.0,0.0,0.0,0.0,0.0,0.0,0.0,0.0,0.0,0.0,0.0,0.0,0.0,0.0,0.0,-1.0556,-1.2702,-1.4157,-1.4713,-1.4752,0.0,0.0,0.0,0.0,0.0,0.0,0.0,0.0,0.0,-2.4704,-2.4811,-2.5879,-2.8163,-2.7795,-2.7566,-2.7544,-2.7065,-2.6458,-2.5749,-2.6098,-2.6971,-2.8201,-2.8158,-2.7911,-2.7394,-2.4797,-2.3141,-2.2119,0.0,0.0,0.0,0.0,0.0,-1.8934,-1.8877,-1.8844,0.0,0.0,0.0,0.0,0.0,0.0,0.0,0.0,0.0,0.0,0.0,0.0,0.0,-2.2757,-2.2772,-2.2667,-2.2323,-2.1335,-2.0124,0.0,-1.77,-1.6623,-1.5518,0.0,0.0,0.0,0.0,0.0,-1.9747,-2.0882,-2.1628,-2.1721,-2.1869,-2.2003,-2.2003,-2.2003,-2.2077,-2.2282,-2.2006,-2.1465,-2.0703,-1.9226,-1.7484,0.0,0.0,0.0,0.0,0.0,0.0,0.0,0.0,0.0,0.0,0.0,0.0,0.0,0.0,0.0,0.0,0.0,0.0,0.0,0.0,0.0,0.0,0.0,0.0,0.0,0.0,0.0,0.0,-1.2202,-1.3831,-1.5193,-1.6272,-1.663,0.0,0.0,0.0,0.0,0.0,0.0,-2.2473,-2.3764,-2.5543,-2.7959,-2.8165,-2.9322,-3.1634,-3.0744,-3.0143,-2.9804,-2.886,-2.785,-2.6879,-2.698,-2.7814,-2.9196,-2.8788,-2.943,-3.0526,-2.7668,-2.5952,-2.4997,-2.3737,-2.3132,-2.286,-2.1965,-2.1493,-2.1225,-2.098,-2.0878,-2.0765,-2.0087,0.0,-1.9801,-1.8793,0.0,0.0,0.0,0.0,-2.171,-2.2877,-2.3041,-2.3026,-2.349,-2.3595,-2.3475,-2.3011,-2.2906,-2.2532,0.0,-2.0154,-1.9151,-1.8082,0.0,0.0,0.0,0.0,-1.9583,-2.0577,-2.1223,-2.1718,-2.2077,-2.2237,-2.231,-2.231,-2.231,-2.231,-2.231,-2.231,-2.2057,-2.1498,-2.0737,-1.9301,-1.7149,0.0,0.0,0.0,0.0,0.0,0.0,0.0,0.0,0.0,0.0,0.0,0.0,0.0,0.0,0.0,0.0,0.0,0.0,0.0,0.0,0.0,0.0,0.0,0.0,0.0,0.0,0.0,0.0,0.0,-1.633,-1.8783,0.0,0.0,0.0,0.0,-2.1853,-2.3582,-2.5176,-2.646,-2.7639,-2.9212,-3.1228,-3.187,-3.2165,-3.204,-3.118,-3.0324,-2.9412,-2.8541,-2.8119,-2.8009,-2.8309,-2.8919,-2.9766,-3.004,-3.0659,-3.1258,-2.9271,-2.842,-2.8211,-2.687,-2.5909,-2.5094,-2.3891,-2.2929,-2.2166,-2.1619,-2.1443,-2.1518,-2.1995,-2.2292,-2.2536,-2.3178,-2.3031,0.0,0.0,-2.3939,-2.3625,-2.4343,-2.4044,-2.3565,-2.3595,-2.3595,-2.3595,-2.3565,-2.355,-2.3176,0.0,-2.159,-2.1111,-1.9801,0.0,-1.9826,-1.9356,-1.961,-2.0144,-2.0895,-2.1352,-2.1628,-2.1628,-2.2032,-2.231,-2.231,-2.231,-2.231,-2.231,-2.231,-2.2293,-2.226,-2.1532,-2.0399,-1.8809,-1.6644,0.0,0.0,0.0,0.0,0.0,0.0,0.0,0.0,0.0,0.0,0.0,0.0,0.0,0.0,0.0,0.0,0.0,0.0,0.0,0.0,0.0,0.0,0.0,0.0,0.0,0.0,0.0,0.0,-1.8446,-2.015,0.0,0.0,-2.2324,-2.3405,-2.4371,-2.619,-2.7835,-2.903,-3.0353,-3.1368,-3.1853,-3.2101,-3.2112,-3.1786,-3.0895,-3.029,-3.0045,-2.9055,-2.8448,-2.8097,-2.8833,-2.9402,-2.9821,-3.0557,-3.1128,-3.1422,-3.072,-3.0223,-2.9759,-2.8886,-2.8351,-2.7981,-2.7031,-2.6142,-2.5274,-2.4223,-2.3526,-2.3072,-2.2968,-2.3054,-2.3393,-2.4013,-2.4393,-2.4712,-2.5149,-2.5076,-2.4852,-2.4627,-2.4403,-2.4148,-2.3699,-2.3595,-2.3595,-2.3595,-2.3595,-2.3475,-2.3011,-2.2592,-2.2104,-2.1417,-2.1075,-2.0783,-2.0429,-2.0512,-2.0687,-2.0975,-2.1337,-2.1582,-2.1582,-2.2032,-2.231,-2.231,-2.231,-2.2107,-2.1617,-2.1583,-2.1363,-2.0829,-2.0585,-1.9959,-1.891,-1.7659,-1.5876,0.0,0.0,0.0,0.0,0.0,0.0,0.0,0.0,0.0,0.0,0.0,0.0,0.0,0.0,0.0,0.0,0.0,0.0,0.0,0.0,0.0,0.0,0.0,0.0,0.0,0.0,-1.8961,-1.9972,-2.1581,-2.2796,-2.3267,-2.4332,-2.5464,-2.6646,-2.8624,-2.9964,-3.0472,-3.1897,-3.2451,-3.1971,-3.2118,-3.201,-3.1436,-3.0817,-3.0406,-3.0164,-2.9504,-2.9026,-2.8736,-2.9776,-3.0282,-3.048,-3.13,-3.1721,-3.1795,-3.1556,-3.127,-3.0806,-3.0402,-3.0056,-2.9731,-2.8985,-2.8017,-2.6904,-2.5628,-2.5017,-2.4766,-2.4442,-2.446,-2.4681,-2.5329,-2.5904,-2.6273,-2.6273,-2.6108,-2.5839,-2.5405,-2.4956,-2.4462,-2.4059,-2.3759,-2.3595,-2.3595,-2.3595,-2.3595,-2.3595,-2.3266,-2.2855,-2.2434,-2.2034,-2.1572,-2.0926,-2.0874,-2.0814,-2.0597,-2.1055,-2.1399,-2.1399,-2.1945,-2.231,-2.231,-2.231,-2.2018,-2.1401,-2.1323,-2.0933,-2.003,-1.9997,-1.9601,-1.8741,-1.7884,-1.6712,-1.524,0.0,0.0,0.0,0.0,0.0,0.0,0.0,0.0,0.0,0.0,0.0,0.0,0.0,0.0,0.0,0.0,0.0,0.0,0.0,0.0,0.0,0.0,0.0,-1.747,-1.9422,-2.0858,-2.0853,-2.3188,-2.4734,-2.4471,-2.6443,-2.8065,-2.8826,-3.0863,-3.1636,-3.0691,-3.2178,-3.2599,-3.1598,-3.2219,-3.2105,-3.118,-3.118,-3.0696,-2.9792,-2.9792,-2.9792,-2.9844,-3.1034,-3.1571,-3.164,-3.2265,-3.2497,-3.2467,-3.1824,-3.1497,-3.1482,-3.1482,-3.1029,-3.0257,-2.9666,-2.8396,-2.6834,-2.5585,-2.5697,-2.644,-2.6458,-2.6525,-2.6616,-2.7357,-2.7575,-2.7625,-2.7625,-2.7111,-2.6617,-2.6602,-2.5644,-2.4627,-2.4597,-2.4118,-2.3625,-2.3595,-2.3595,-2.3595,-2.3595,-2.3595,-2.34,-2.2843,-2.2724,-2.2233,-2.0932,-2.0722,0.0,-1.9779,-2.0481,-2.0991,-2.0991,-2.1781,-2.231,-2.231,-2.231,-2.2089,-2.1625,-2.1595,-2.1101,-2.0042,-2.001,-1.9511,-1.8475,-1.7356,-1.6766,-1.6733,0.0,0.0,0.0,0.0,0.0,0.0,0.0,0.0,0.0,0.0,0.0,0.0,0.0,0.0,0.0,0.0,0.0,0.0,0.0,0.0,0.0,0.0,-2.1035,-2.112,-2.1546,-2.2355,-2.3552,-2.4695,-2.5879,-2.7197,-2.7881,-2.8758,-2.9994,-3.1154,-3.1598,-3.1323,-3.2236,-3.2288,-3.1368,-3.1529,-3.1119,-3.0216,-3.0216,-3.0075,-2.9792,-2.9792,-2.9792,-2.9856,-3.0813,-3.1415,-3.1612,-3.2534,-3.2746,-3.2497,-3.2317,-3.1958,-3.1482,-3.1482,-3.1351,-3.1131,-3.0997,-3.0002,-2.8567,-2.7657,-2.6909,-2.6382,-2.6442,-2.6491,-2.6563,-2.6721,-2.7203,-2.7625,-2.7625,-2.749,-2.7186,-2.6722,-2.6318,-2.5809,-2.4852,-2.4433,-2.4208,-2.3699,-2.3595,-2.3595,-2.3595,-2.3595,-2.355,-2.337,-2.2981,-2.2398,-2.1545,-2.1021,0.0,-1.9779,-2.0481,-2.0991,-2.0991,-2.1781,-2.231,-2.231,-2.231,-2.2018,0.0,-2.1328,-2.0921,-2.0044,-1.9984,-1.9853,-1.9572,-1.8728,-1.8031,0.0,0.0,0.0,0.0,0.0,0.0,0.0,0.0,0.0,0.0,0.0,0.0,0.0,0.0,0.0,0.0,0.0,0.0,0.0,0.0,0.0,0.0,-2.2344,-2.3377,-2.3917,-2.3603,-2.3803,-2.5008,-2.5624,-2.6493,-2.7898,-2.8195,-2.8768,-2.9839,-3.0838,-3.1245,-3.0838,-3.1567,-3.1609,-3.062,-3.062,-3.0343,-2.9792,-2.9792,-2.9792,-2.9792,-2.9792,-2.9792,-2.9869,-3.0758,-3.1276,0.0,-3.2179,-3.2345,-3.2081,-3.156,-3.1127,0.0,0.0,0.0,0.0,0.0,-3.0705,-3.0148,-2.9035,-2.8251,-2.768,-2.7422,-2.719,-2.693,-2.693,-2.7255,-2.7625,-2.7625,-2.7625,-2.7535,-2.7096,-2.6797,-2.6333,-2.5285,-2.4776,-2.4433,-2.3744,-2.3595,-2.3595,-2.3595,0.0,0.0,-2.3595,-2.3295,-2.2847,-2.2203,-2.1545,-2.0887,-2.0213,-2.0618,-2.0991,-2.0991,-2.1781,-2.231,-2.231,-2.231,0.0,0.0,0.0,-2.0961,-2.0031,-1.9877,0.0,0.0,0.0,0.0,0.0,0.0,0.0,0.0,-1.8916,-1.8733,0.0,0.0,0.0,0.0,0.0,0.0,0.0,0.0,0.0,0.0,0.0,0.0,0.0,0.0,0.0,0.0,-2.402,-2.466,-2.5823,-2.5371,-2.5109,-2.5636,-2.6151,-2.6703,-2.7318,-2.7821,-2.836,-2.8988,-3.0261,-3.0696,-2.9856,0.0,0.0,0.0,0.0,-2.9792,-2.9792,-2.9792,-2.9792,-2.9792,-2.9792,-2.9792,-2.9869,-3.062,-3.1106,-3.1214,-3.1477,-3.1556,-3.1544,-3.04,-2.9849,-2.9813,-3.0802,-3.1219,-3.1161,-3.0524,-3.0777,0.0,-2.9988,0.0,0.0,-2.8785,-2.8136,-2.7575,-2.7509,-2.7509,-2.7625,-2.7625,-2.7625,-2.7625,-2.7625,-2.7081,-2.6422,-2.5764,-2.5106,-2.4433,-2.3744,-2.3595,-2.3595,-2.3595,-2.3595,-2.3595,-2.3595,-2.3595,-2.3385,-2.2813,-2.2113,-2.1455,-2.0797,-2.0814,-2.0926,-2.0991,0.0,0.0,-2.2282,-2.231,-2.2106,-2.1718,-2.1688,-2.1242,-2.0307,-1.9975,-2.0108,-2.0771,-2.1143,-2.1634,-2.231,-2.2321,-2.2436,-2.2591,-2.0003,-1.9679,0.0,0.0,0.0,0.0,0.0,0.0,0.0,0.0,0.0,0.0,0.0,0.0,0.0,0.0,0.0,-2.4683,-2.4846,-2.5156,-2.6356,-2.5935,-2.5649,-2.6226,-2.6458,-2.6854,-2.7846,-2.8047,-2.8524,-2.9553,-2.9871,-2.9998,-2.9792,-3.0011,0.0,-2.9792,-2.9792,-2.9792,-2.9792,-2.9792,-2.9792,-2.9792,0.0,0.0,-2.9792,-3.0011,-3.0482,-3.1167,-3.1269,-3.1384,-3.1571,-3.0855,-3.0052,-2.9168,-2.9421,-2.9504,-2.9566,-3.0072,-3.0389,-3.0569,-3.094,-3.0455,-2.9495,-2.8686,-2.808,-2.7509,-2.6878,-2.7137,0.0,-2.7625,-2.7625,-2.7625,-2.7625,-2.7081,-2.6422,-2.5764,-2.5106,-2.4433,-2.3744,-2.3595,-2.3595,-2.3595,-2.3595,-2.3595,-2.3595,-2.3595,-2.3385,-2.2813,-2.2113,-2.1455,-2.0797,-2.0533,-2.0583,-2.0959,-2.1446,-2.1899,-2.2282,-2.231,-2.2254,-2.218,-2.2163,-2.2084,-2.1876,-2.1782,-2.181,-2.1961,-2.2062,-2.2175,-2.231,-2.2527,-2.2537,-2.2371,-2.1996,-2.2181,0.0,0.0,0.0,0.0,0.0,0.0,0.0,0.0,0.0,0.0,0.0,-2.1824,0.0,0.0,-2.4782,-2.602,-2.5999,-2.5727,-2.5448,-2.5327,-2.5635,-2.6414,-2.6533,-2.6892,-2.7996,-2.8109,-2.8574,-2.9704,-2.9275,-2.8937,-2.8937,-2.845,-2.8371,-2.8937,-2.8937,-2.9197,-2.9792,-2.9792,-2.9792,-2.9792,-2.9792,-2.9792,-2.9792,-2.9792,-3.0075,-3.0482,-3.0482,-3.0615,-3.0632,-2.9821,-2.8778,-2.7736,-2.7736,-2.8247,-2.9066,-2.9504,-2.9628,-2.969,-3.0133,-2.959,-2.8684,-2.7995,-2.7371,-2.6845,-2.6597,-2.6774,-2.7152,-2.7509,-2.7625,-2.7625,-2.7625,-2.732,-2.6841,-2.5839,-2.536,-2.4837,-2.3819,-2.3595,-2.3595,-2.3595,-2.3595,-2.3595,-2.3595,-2.3595,-2.349,-2.3191,-2.2592,-2.2069,-2.1739,-2.1164,-2.0999,-2.1453,-2.1549,-2.1794,-2.2254,-2.231,-2.231,-2.231,-2.231,-2.231,-2.231,-2.231,-2.231,-2.231,-2.231,-2.231,-2.231,-2.2409,-2.2426,-2.231,-2.2829,-2.3239,0.0,0.0,0.0,0.0,0.0,0.0,0.0,0.0,-1.8508,-2.0182,-2.1955,-2.3834,-2.5958,-2.5888,-2.5911,-2.6946,-2.6678,-2.5886,-2.4582,-2.459,-2.5004,-2.5791,-2.5943,-2.6362,-2.7373,-2.7484,-2.7938,-2.9045,-2.8279,-2.7763,-2.7763,-2.6964,-2.6883,-2.7763,-2.8004,-2.8518,-2.9456,-2.9702,-2.9792,-2.9792,-2.9792,-2.9792,-2.9792,-2.9792,-2.9792,-2.9792,-2.9792,-2.9729,-2.9553,-2.8524,-2.7519,-2.6684,-2.6571,-2.7351,-2.8556,-2.8684,-2.8748,-2.8748,-2.8939,-2.8539,-2.7872,-2.722,-2.6617,-2.6185,-2.6252,-2.6404,-2.6669,-2.7408,-2.7625,-2.7625,-2.7625,-2.752,-2.7111,-2.6048,-2.5615,-2.5121,-2.4029,-2.3684,-2.3595,-2.3595,-2.3595,-2.3595,-2.3595,-2.3595,-2.3595,-2.3595,-2.3071,-2.2724,-2.2724,-2.1926,-2.1538,-2.2014,-2.1843,-2.1853,-2.2254,-2.231,-2.231,-2.231,-2.231,-2.231,-2.231,-2.231,-2.231,-2.231,-2.231,-2.231,-2.231,-2.231,-2.2378,-2.253,-2.3122,-2.3551,-0.6208,-0.7722,-0.9369,-1.0672,-1.257,-1.4836,0.0,0.0,-2.0423,-2.1812,-2.3635,-2.4983,-2.5314,-2.5986,-2.6559,-2.6694,-2.59,-2.5121,-2.4921,-2.4158,-2.3745,-2.3806,-2.3818,-2.4203,-2.5213,-2.5381,-2.5802,-2.6814,-2.6719,-2.6637,-2.6637,-2.6565,-2.6565,-2.6637,-2.7602,-2.8176,-2.8267,-2.9275,-2.9792,-2.9792,-2.9792,-2.9792,-2.9792,-2.9792,-2.9792,-2.9792,-2.9792,-2.9503,-2.8976,-2.836,-2.7745,-2.7143,-2.6722,-2.6589,-2.6837,-2.7604,-2.7855,-2.7986,-2.8748,-2.8539,-2.781,-2.6612,-2.6202,-2.6128,-2.5647,-2.596,-2.6669,-2.7408,-2.7625,-2.7625,-2.7625,-2.7141,-2.6662,-2.6512,-2.5585,-2.4642,-2.4507,-2.4029,-2.3595,-2.3595,-2.3595,-2.3595,-2.3595,-2.3595,-2.3595,-2.3595,-2.3071,-2.2724,-2.2724,-2.2104,-2.1819,-2.2229,-2.2074,-2.2053,-2.2276,-2.231,-2.231,-2.231,-2.231,-2.231,-2.231,-2.231,-2.231,-2.231,-2.231,-2.231,-2.231,-2.231,-2.2649,-2.3274,-2.3359,-2.3422,-0.6795,-0.8863,0.0,0.0,-1.3679,-1.5951,-1.7406,-1.9385,-2.1129,-2.2056,-2.3857,-2.5439,-2.584,-2.6082,-2.638,0.0,-2.5797,-2.4791,-2.4192,-2.3294,-2.2403,-2.1897,-2.1821,-2.2635,-2.4826,-2.4993,-2.5408,-2.6405,-2.5891,-2.5546,-2.5546,-2.4882,-2.4808,-2.5462,-2.5953,-2.6532,-2.7116,-2.7626,-2.8199,-2.8767,-2.8767,-2.9197,-2.9792,-2.9792,-2.9792,-2.9792,-2.9792,-2.9465,-2.8888,-2.8335,-2.777,-2.7231,-2.6747,-2.6533,-2.6521,-2.6905,-2.6973,-2.704,-2.7417,-2.7157,-2.6453,-2.5588,-2.5146,-2.4878,-2.4798,-2.5287,-2.6,-2.6759,-2.7255,-2.7625,-2.7625,-2.7415,-2.6976,-2.6198,-2.56,-2.4986,-2.4208,-2.3804,-2.3595,-2.3595,-2.3595,-2.3595,-2.3595,-2.3595,-2.3595,-2.3595,-2.3385,-2.3206,-2.3206,-2.2652,-2.2228,-2.2133,-2.1921,-2.1897,-2.2271,-2.231,-2.231,-2.231,-2.231,-2.231,-2.231,-2.231,-2.231,-2.231,-2.231,-2.2513,-2.2936,-2.2936,-2.3325,-2.4036,-2.4475,-2.4678,-0.7439,0.0,0.0,-1.2222,-1.4283,-1.6336,-1.7334,-1.9231,-2.0959,-2.1581,-2.3262,-2.4829,-2.5314,-2.5315,0.0,-2.6051,-2.4978,-2.3815,-2.3198,-2.2253,-2.1375,-2.0712,-2.0566,-2.1467,-2.3713,-2.4064,-2.454,-2.5492,-2.4798,-2.4296,-2.4296,-2.3551,-2.3464,-2.4296,-2.4628,-2.521,-2.6058,-2.6307,-2.6883,-2.7683,-2.7936,-2.8518,-2.9365,-2.9624,-2.9792,-2.9792,-2.9792,-2.9553,-2.9114,-2.8398,-2.7871,-2.7444,-2.6798,-2.6533,-2.6533,-2.6533,-2.6533,-2.6533,-2.6533,-2.6189,-2.5724,-2.5046,-2.4556,-2.4204,-2.4282,-2.4681,-2.5287,-2.6229,-2.6878,-2.7357,-2.7575,-2.7625,-2.729,-2.6153,-2.5734,-2.5285,-2.4133,-2.3729,-2.3595,-2.3595,-2.3595,-2.3595,-2.3595,-2.3595,-2.3595,-2.3595,-2.3595,-2.3595,-2.3595,-2.3206,-2.2762,-2.2321,-2.2118,-2.2073,-2.2271,-2.231,-2.231,-2.231,-2.231,-2.231,-2.231,-2.231,-2.231,-2.231,-2.231,-2.2665,-2.3393,-2.3393,-2.3866,-2.4814,-2.5355,-2.571,0.0,0.0,-1.11,-1.2734,-1.4266,-1.59,-1.8058,-1.8986,-1.9585,-2.0493,-2.1801,-2.2767,-2.2779,-2.3209,-2.3747,-2.4205,-2.2726,-2.1608,-2.1964,-2.1231,-2.0644,-2.0566,-2.0566,-2.082,0.0,-2.1712,-2.231,-2.3153,-2.3135,-2.3135,-2.3135,-2.3135,-2.3135,-2.3135,-2.4211,-2.4787,-2.4872,-2.5975,-2.6483,-2.6554,-2.7602,-2.8096,-2.8176,-2.9287,-2.9792,-2.9792,-2.9792,-2.9779,-2.9679,-2.8561,-2.8097,-2.7971,-2.6892,-2.6533,-2.6533,-2.6533,-2.6533,-2.6533,-2.6533,-2.6521,-2.6319,-2.5172,-2.4808,-2.4709,-2.4413,-2.435,-2.4624,-2.6068,-2.651,-2.6721,-2.7408,-2.7625,-2.7445,-2.6722,-2.6078,-2.542,-2.4701,-2.4073,-2.3595,-2.3595,-2.3595,-2.3595,-2.3595,-2.3595,-2.3595,-2.3595,-2.3595,-2.3595,-2.3595,-2.358,-2.3431,-2.2995,-2.2945,-2.2798,-2.2343,-2.231,-2.231,-2.231,-2.231,-2.231,-2.231,-2.231,-2.231,-2.231,-2.231,-2.2665,-2.3393,-2.3393,-2.4154,-2.5575,-2.5592,-2.5981,0.0,0.0,-1.1661,-1.2724,-1.3892,-1.5204,-1.6871,-1.787,-1.8548,-1.9137,-2.0106,-2.0745,-2.0484,-2.1118,-2.1855,-2.2283,-2.18,-2.1513,-2.1964,-2.1416,-2.0898,-2.0596,-2.1084,0.0,0.0,0.0,0.0,-2.2656,-2.2725,-2.2842,-2.3125,-2.3135,-2.3135,-2.3135,-2.3464,-2.3637,-2.3637,-2.4059,-2.4638,-2.5378,-2.7267,-2.8518,-2.9275,-2.9624,-2.9792,-2.9792,-2.9792,-2.9792,-2.9704,-2.8574,-2.8109,-2.7996,-2.6892,-2.6533,-2.6533,-2.6533,-2.6214,-2.5887,-2.5887,-2.5887,-2.5711,-2.4632,-2.428,-2.4192,-2.3666,-2.4221,-2.5119,-2.5618,-2.6481,-2.7306,-2.7524,-2.7625,-2.7305,-2.6198,-2.5764,-2.53,-2.4193,-2.3759,-2.3595,-2.3595,-2.3595,-2.3595,-2.3595,-2.3595,-2.3595,-2.3595,-2.3595,-2.3595,-2.3595,-2.3236,-2.2991,-2.2995,-2.2598,-2.2345,-2.2293,-2.231,-2.231,-2.231,-2.231,-2.253,-2.3004,-2.3038,-2.3257,-2.3748,-2.3748,-2.412,-2.4864,-2.4864,-2.5513,-2.6754,-2.6754,-2.6999,0.0,-1.0843,-1.1869,-1.2811,-1.36,-1.4665,-1.6227,-1.6903,-1.7349,-1.7813,-1.8467,-1.8923,-1.8674,-1.9138,-1.9891,-2.0687,-2.0751,-2.0882,-2.1584,-2.1561,-2.1357,-2.1074,-2.1543,0.0,0.0,0.0,0.0,-2.2676,-2.2734,-2.2852,-2.3125,-2.3135,-2.3135,-2.3135,-2.3135,-2.3135,-2.3135,-2.3135,-2.3887,-2.5462,-2.7267,-2.8688,-2.9792,-2.9792,-2.9792,-2.9792,-2.9792,-2.9792,-2.9704,-2.8574,-2.8109,-2.7996,-2.6892,-2.6533,-2.6533,-2.6533,-2.6226,-2.59,-2.59,-2.5649,-2.5209,-2.4519,-2.4167,-2.3891,-2.3314,-2.3813,-2.4667,-2.5231,-2.6108,-2.6916,-2.7458,-2.7625,-2.7245,-2.5929,-2.5615,-2.5241,-2.3894,-2.3595,-2.3595,-2.3595,-2.3595,-2.3595,-2.3595,-2.3595,-2.3595,-2.3595,-2.3595,-2.3595,-2.3595,-2.3251,-2.3097,-2.3364,-2.3016,-2.2718,-2.2697,-2.2936,-2.297,-2.2716,-2.2936,-2.3291,-2.3765,-2.3782,-2.4002,-2.4506,-2.4506,-2.4847,-2.5609,-2.5609,-2.619,-2.7303,-2.7303,-2.7517,-1.0316,-1.1015,-1.1723,-1.2928,-1.345,-1.4163,-1.6044,-1.6156,-1.596,-1.6494,-1.6951,-1.7254,0.0,0.0,-1.7869,-1.9479,-1.9535,-1.9766,-2.1055,-2.1631,-2.1904,0.0,0.0,0.0,0.0,0.0,0.0,-2.3076,0.0,-2.3115,-2.3135,-2.3135,-2.3135,-2.3135,-2.3135,-2.3135,-2.3135,-2.3135,-2.4221,-2.64,-2.7441,-2.8518,-2.9624,-2.9714,-2.9702,-2.9702,-2.9792,-2.9779,-2.9666,-2.8561,-2.8084,-2.7959,-2.6879,-2.6533,-2.6533,-2.6533,-2.6508,-2.6483,-2.6521,-2.5762,-2.4858,-2.4795,-2.4418,-2.3891,-2.3314,-2.3138,-2.3471,-2.5007,-2.5453,-2.5783,-2.724,-2.7625,-2.7245,-2.5959,-2.563,-2.5255,-2.3939,-2.3625,-2.3595,-2.3595,-2.3595,-2.3595,-2.3595,-2.3595,-2.3595,-2.3595,-2.3595,-2.3595,-2.3595,-2.3595,-2.3747,-2.4074,-2.4084,-2.3935,-2.3502,-2.4086,-2.4188,-2.3494,-2.4103,-2.4523,-2.4557,-2.4574,-2.456,-2.4625,-2.4625,-2.4949,-2.5659,-2.5659,-2.6224,-2.7317,-2.7303,-2.753,-1.0976,-1.1476,-1.1895,-1.2401,-1.2611,-1.31,-1.4669,-1.4681,-1.4629,-1.5527,-1.5575,-1.5339,-1.4999,0.0,0.0,-1.784,-1.899,0.0,-2.1094,-2.1885,0.0,0.0,0.0,-2.2695,-2.2383,-2.2637,0.0,0.0,-2.2852,-2.2812,-2.3125,-2.3135,-2.3135,-2.3135,-2.3135,-2.3135,-2.3135,-2.3135,-2.38,-2.521,-2.5535,-2.6202,-2.7383,-2.8187,-2.8518,-2.8597,-2.9443,-2.9553,-2.9101,-2.8398,-2.7858,-2.7419,-2.6728,-2.6533,-2.6533,-2.6533,-2.6189,-2.5875,-2.6314,-2.6,-2.5259,-2.4469,-2.4117,-2.3891,-2.3314,-2.3543,-2.4163,-2.5119,-2.5783,-2.6443,-2.7357,-2.7625,-2.7415,-2.6542,-2.5959,-2.5375,-2.4552,-2.3969,-2.3595,-2.3595,-2.3595,-2.3595,-2.3595,-2.3595,-2.3595,-2.3595,-2.3595,-2.3595,-2.3595,-2.3595,-2.3747,-2.4074,-2.4084,-2.4113,-2.4211,-2.4404,-2.4438,-2.4235,-2.4404,-2.4729,-2.5304,-2.5321,-2.5575,-2.6116,-2.6133,-2.6218,-2.642,-2.642,-2.6879,-2.7754,-2.7439,-2.7823,-1.1463,-1.183,-1.2098,-1.2265,-1.2305,-1.2615,-1.3958,-1.3908,-1.3849,-1.4659,-1.4521,0.0,0.0,0.0,0.0,0.0,0.0,0.0,-2.1055,-2.1973,-2.249,0.0,-2.2852,0.0,-2.2812,-2.2998,-2.3135,0.0,-2.292,-2.2891,-2.3125,-2.3135,-2.3135,-2.3135,-2.3135,-2.3135,-2.3135,-2.3637,-2.4125,-2.4787,-2.5294,-2.588,-2.6565,-2.7602,-2.8096,-2.8176,0.0,-2.9222,-2.8246,-2.8175,-2.7541,-2.6611,-2.6527,-2.6533,-2.6533,-2.6533,-2.6319,-2.6013,-2.6352,-2.5937,-2.5159,-2.4556,-2.4017,-2.3552,-2.3226,-2.3424,-2.3943,-2.4667,-2.5453,-2.6176,-2.693,-2.7357,-2.7445,-2.6752,-2.6303,-2.5779,-2.4791,-2.4313,-2.3969,-2.3655,-2.3595,-2.3595,-2.3595,-2.3595,-2.3595,-2.3595,-2.3595,-2.3595,-2.3595,-2.3794,-2.4128,-2.4541,-2.4793,-2.495,-2.497,-2.527,-2.5321,-2.5,-2.527,-2.5642,-2.6065,-2.6082,-2.6285,-2.6691,-2.6691,-2.6691,-2.6691,-2.6691,-2.7019,-2.7619,-2.7426,-2.7736,-1.1764,-1.2111,-1.2305,-1.2305,-1.2271,-1.2518,-1.3581,-1.3437,-1.3222,-1.3908,0.0,0.0,-1.3307,0.0,-1.4511,-1.6243,0.0,-1.9035,-2.0897,-2.1924,-2.2607,-2.3086,-2.3135,-2.3135,-2.3135,-2.3135,-2.3135,-2.3135,-2.3135,-2.3135,-2.3135,-2.3135,-2.3135,-2.3135,-2.3135,-2.3135,-2.3135,-2.4049,-2.4542,-2.4628,-2.5557,-2.6141,-2.6307,-2.736,-2.7936,-2.7924,0.0,0.0,-2.7192,-2.7594,-2.6968,-2.5756,-2.6268,-2.6533,-2.6533,-2.6533,-2.6533,-2.6521,-2.6445,-2.5674,-2.482,-2.482,-2.4054,-2.3078,-2.3078,-2.3078,-2.3245,-2.406,-2.4738,-2.5453,-2.6283,-2.6982,-2.7324,-2.6856,-2.6587,-2.6153,-2.4955,-2.4567,-2.4313,-2.3714,-2.3595,-2.3595,-2.3595,-2.3595,-2.3595,-2.3595,-2.3595,-2.3595,-2.3595,-2.3991,-2.4511,-2.5144,-2.5615,-2.5855,-2.5729,-2.6336,-2.642,-2.5795,-2.6353,-2.6691,-2.6691,-2.6691,-2.6691,-2.6691,-2.6691,-2.6691,-2.6691,-2.6691,-2.6906,-2.7303,-2.7241,-2.747,-1.2064,-1.2265,-1.2305,-1.2305,-1.2124,-1.2206,-1.3087,-1.28,0.0,0.0,0.0,-1.2831,-1.223,-1.2745,0.0,-1.5148,0.0,0.0,0.0,0.0,-2.2275,0.0,0.0,0.0,0.0,0.0,0.0,0.0,0.0,0.0,-2.3135,-2.3135,-2.3135,-2.3135,-2.3135,-2.3135,-2.3135,-2.3299,-2.3387,-2.3387,-2.3637,-2.4221,-2.5126,-2.6295,-2.6801,-2.686,0.0,0.0,-2.5472,-2.6024,-2.5817,-2.5195,-2.6131,-2.6533,-2.6533,-2.6533,-2.6533,-2.6458,-2.5912,-2.5335,-2.482,-2.482,-2.4054,-2.3078,-2.3078,-2.3078,-2.3245,-2.406,-2.4408,-2.4794,-2.6176,-2.6616,-2.6797,-2.7324,-2.6572,-2.5719,-2.5495,-2.4567,-2.3744,-2.3625,-2.3595,-2.3595,-2.3595,-2.3595,-2.3595,-2.3595,-2.3595,-2.3595,-2.3595,-2.3681,-2.4116,-2.5105,-2.5297,-2.566,-2.6438,-2.6623,-2.664,-2.6522,-2.6623,-2.6691,-2.6691,-2.6691,-2.6691,-2.6691,-2.6691,-2.6691,-2.6691,-2.6691,-2.6906,-2.7303,-2.6971,-2.721,-1.2144,-1.2305,-1.2305,-1.2305,-1.2084,-1.2082,-1.2718,0.0,0.0,0.0,0.0,-1.2666,-1.1922,0.0,0.0,0.0,0.0,0.0,0.0,0.0,0.0,0.0,0.0,0.0,0.0,0.0,0.0,0.0,0.0,0.0,-2.3135,-2.3135,-2.3135,-2.3135,-2.3135,-2.3135,-2.3135,-2.3135,-2.3135,-2.3135,-2.3135,-2.3387,-2.3963,-2.5136,-2.55,-2.5343,-2.6234,0.0,-2.3984,-2.4721,-2.4703,-2.4337,-2.53,-2.6025,-2.6533,-2.6533,-2.6533,-2.6445,-2.5799,-2.5259,-2.477,-2.4481,-2.3828,-2.3078,-2.3078,-2.3078,-2.3198,-2.3603,-2.4002,-2.4567,-2.5618,-2.6229,-2.6669,-2.7408,-2.6572,-2.551,-2.5166,-2.4313,-2.3595,-2.3595,-2.3595,-2.3595,-2.3595,-2.3595,-2.3595,-2.3595,-2.3595,-2.3595,-2.3595,-2.3595,-2.3906,-2.4712,-2.5297,-2.5799,-2.6297,-2.6556,-2.6691,-2.6691,-2.6691,-2.6691,-2.6691,-2.6691,-2.6691,-2.6691,-2.6691,-2.6691,-2.6691,-2.6691,-2.6808,-2.6987,-2.6791,-2.6906,-1.2064,-1.2258,-1.2305,-1.2305,-1.2037,-1.1895,-1.2304,-1.217,0.0,0.0,0.0,-1.2666,-1.1922,0.0,0.0,0.0,0.0,0.0,0.0,0.0,0.0,0.0,0.0,0.0,0.0,0.0,0.0,0.0,0.0,0.0,0.0,-2.3135,-2.3135,-2.3135,-2.3135,-2.3135,-2.3135,-2.3135,-2.3135,-2.3135,-2.3135,-2.3222,-2.3464,-2.4279,-2.4535,-2.427,-2.4869,0.0,0.0,-2.346,-2.3713,-2.3588,-2.4636,-2.5581,-2.6533,-2.6533,-2.6533,-2.6433,-2.5674,-2.5159,-2.4707,-2.4029,-2.3502,-2.3078,-2.3078,-2.3078,-2.3078,-2.3078,-2.3543,-2.4221,-2.5175,-2.5837,-2.6438,-2.7,-2.6258,-2.5211,-2.4507,-2.3984,-2.3595,-2.3595,-2.3595,-2.3595,-2.3595,-2.3595,-2.3595,-2.3595,-2.3595,-2.3595,-2.3595,-2.3724,-2.3906,-2.4348,-2.5259,-2.5859,-2.5905,-2.6386,-2.6623,-2.6471,-2.6607,-2.6691,-2.6691,-2.6691,-2.6691,-2.6691,-2.6691,-2.6691,-2.6691,-2.6691,-2.6691,-2.6691,-2.6691,-2.6691,-1.1824,-1.2098,-1.2305,-1.2305,-1.1884,-1.1506,-1.1621,0.0,0.0,0.0,-1.2452,-1.2666,-1.1922,-1.1819,0.0,0.0,0.0,0.0,0.0,0.0,0.0,0.0,0.0,0.0,0.0,0.0,0.0,0.0,0.0,0.0,0.0,-2.3135,-2.3135,-2.3135,-2.3135,-2.3135,-2.3135,-2.3135,-2.3135,-2.3135,-2.3135,-2.3637,-2.4607,-2.4367,-2.423,-2.4145,0.0,0.0,0.0,-2.1983,-2.2734,-2.3588,-2.4636,-2.5581,-2.6533,-2.6533,-2.6533,-2.6314,-2.5259,-2.4858,-2.4644,-2.3565,-2.3175,-2.3078,-2.3078,-2.3078,-2.3078,-2.3078,-2.3125,-2.3531,-2.5007,-2.5453,-2.5556,-2.5712,-2.5241,-2.4537,-2.3849,-2.364,-2.3595,-2.3595,-2.3595,-2.3595,-2.3595,-2.3595,-2.3595,-2.3595,-2.3595,-2.3595,-2.3595,-2.4032,-2.4348,-2.4389,-2.4934,-2.5375,-2.563,-2.6286,-2.6404,-2.5744,-2.6336,-2.6691,-2.6691,-2.6691,-2.6691,-2.6691,-2.6691,-2.6691,-2.6691,-2.6691,-2.6691,-2.6691,-2.6691,-2.6691,-1.1744,-1.2084,-1.2305,-1.2305,-1.173,-1.1254,-1.1508,0.0,-1.1064,-1.1672,-1.203,-1.2129,-1.1864,-1.1823,-1.1931,0.0,-1.248,-1.3534,0.0,0.0,0.0,0.0,0.0,0.0,0.0,0.0,0.0,0.0,0.0,0.0,0.0,-2.3135,-2.3135,-2.3135,-2.3135,-2.3135,-2.3135,-2.3135,-2.3135,-2.3135,-2.3135,-2.3299,-2.378,-2.3348,-2.3016,-2.2817,0.0,0.0,0.0,-2.1081,-2.1745,-2.2702,-2.3661,-2.4707,-2.5664,-2.6314,-2.6239,-2.5837,-2.5084,-2.4607,-2.4192,-2.3389,-2.3078,-2.3078,-2.3078,-2.3078,-2.3078,-2.3078,-2.3078,-2.3471,-2.5007,-2.5771,-2.5908,-2.5191,-2.4776,-2.4433,-2.3744,-2.3595,-2.3595,-2.3595,-2.3595,-2.3595,-2.3595,-2.3595,-2.3595,-2.3595,-2.3595,-2.3595,-2.3595,-2.4074,-2.4511,-2.4871,-2.5373,-2.5721,-2.5828,-2.6387,-2.6573,-2.6285,-2.6539,-2.6691,-2.6691,-2.6691,-2.6691,-2.6691,-2.6691,-2.6691,-2.6691,-2.6691,-2.6691,-2.6691,-2.6691,-2.6691,-1.1696,-1.2022,-1.2224,-1.2353,-1.1716,-1.1019,0.0,0.0,-1.0532,-1.1344,-1.1665,-1.1873,-1.208,-1.2129,-1.2129,-1.2129,-1.223,-1.3096,-1.5303,0.0,0.0,0.0,0.0,0.0,0.0,0.0,0.0,0.0,0.0,0.0,0.0,-2.3135,-2.3135,-2.3135,-2.3135,-2.3135,-2.3135,-2.3135,-2.3135,-2.3135,-2.3135,-2.3076,-2.2939,-2.2519,-2.209,-2.167,0.0,0.0,0.0,-2.0566,-2.1155,-2.2103,-2.3147,-2.4028,-2.4873,-2.6032,-2.6,-2.531,-2.4946,-2.4456,-2.3904,-2.3326,-2.3078,-2.3078,-2.3078,-2.3078,-2.3078,-2.3078,-2.3245,-2.3669,-2.4552,-2.5408,-2.5701,-2.4591,-2.4328,-2.4193,-2.3699,-2.3595,-2.3595,-2.3595,-2.3595,-2.3595,-2.3595,-2.3595,-2.3595,-2.3595,-2.3595,-2.3595,-2.3595,-2.4199,-2.4713,-2.4856,-2.5668,-2.6108,-2.5893,-2.6387,-2.6607,-2.6387,-2.6573,-2.6691,-2.6691,-2.6691,-2.6691,-2.6691,-2.6691,-2.6691,-2.6691,-2.6691,-2.6691,-2.6691,-2.6691,-2.6691,-1.16,-1.185,-1.2016,-1.2531,-1.1812,-1.0842,0.0,-1.0222,-1.0379,-1.0742,-1.1366,-1.203,-1.2764,-1.2881,-1.2881,-1.2881,-1.3232,-1.4092,-1.587,0.0,0.0,0.0,0.0,0.0,0.0,0.0,0.0,0.0,0.0,0.0,0.0,0.0,-2.3135,-2.3135,-2.3135,-2.3135,-2.3135,-2.3135,-2.3135,-2.3135,-2.3135,-2.292,-2.251,-2.209,-2.165,0.0,0.0,0.0,0.0,-2.0566,-2.1155,-2.2103,-2.3147,-2.381,-2.4372,-2.5896,-2.5774,-2.4833,-2.482,-2.4456,-2.3904,-2.3326,-2.3078,-2.3078,-2.3078,-2.3078,-2.3078,-2.3078,-2.3649,-2.4147,-2.3553,-2.3964,-2.4373,-2.3836,-2.3672,-2.361,-2.3595,-2.3595,-2.3595,-2.3595,-2.3595,-2.3595,-2.3595,-2.3595,-2.3595,-2.3595,-2.3595,-2.3595,-2.3595,-2.4552,-2.491,-2.4201,-2.5673,-2.6404,-2.5676,-2.6285,-2.6387,-2.5659,-2.6302,-2.6691,-2.6691,-2.6691,-2.6691,-2.6691,-2.6691,-2.6691,-2.6691,-2.6691,-2.6691,-2.6691,-2.6691,-2.6691,-1.0499,-1.0792,-1.108,-1.1245,-1.0711,-1.0053,-0.9866,-0.9527,-0.9588,-1.0592,-1.0965,-1.1475,-1.2666,-1.2881,-1.3066,-1.3643,-1.3848,0.0,0.0,0.0,0.0,0.0,0.0,0.0,0.0,0.0,0.0,0.0,0.0,0.0,0.0,0.0,-2.3135,-2.3135,-2.3135,-2.3135,-2.3135,-2.3135,-2.3135,-2.3135,-2.2852,-2.2646,-2.249,-2.1768,0.0,0.0,0.0,0.0,0.0,-2.0566,-2.0789,-2.1155,-2.2113,-2.2776,-2.3315,-2.4479,-2.4644,-2.4255,-2.4255,-2.3891,-2.3376,-2.3128,-2.3078,-2.3078,-2.3078,-2.3078,-2.3078,-2.3078,-2.3366,-2.354,-2.2892,-2.297,-2.3231,-2.3048,-2.2975,-2.3113,-2.3508,-2.3595,-2.3595,-2.3595,-2.3595,-2.3595,-2.3595,-2.3595,-2.3595,-2.3595,-2.3595,-2.3595,-2.3595,-2.4552,-2.4926,-2.4201,-2.5226,-2.5862,-2.5625,-2.5812,-2.6065,-2.6336,-2.6099,-2.6167,-2.6674,-2.6691,-2.6691,-2.6691,-2.6691,-2.6691,-2.6691,-2.6691,-2.6691,-2.6691,-2.6691,-2.6691,0.0,-1.0233,-1.0485,-1.0669,-1.0185,-0.9768,-0.9874,-0.9521,-0.9569,-1.0872,-1.1174,-1.1525,-1.2676,-1.2881,-1.3047,-1.3574,-1.3789,0.0,0.0,0.0,0.0,0.0,0.0,0.0,0.0,0.0,0.0,0.0,0.0,0.0,0.0,0.0,-2.2832,-2.2676,-2.2822,-2.2978,-2.3135,-2.2822,-2.2744,-2.29,-2.248,-2.2187,-2.2012,-2.1475,0.0,0.0,0.0,0.0,0.0,-2.0566,-2.0469,-2.0389,-2.1411,-2.1752,-2.1761,-2.3006,-2.3335,-2.3256,-2.3453,-2.3356,-2.3078,-2.3078,-2.3078,-2.3078,-2.3078,-2.3078,-2.3078,-2.3078,-2.3063,-2.2816,-2.2205,-2.2194,-2.23,-2.2315,-2.2512,-2.2889,-2.3465,-2.3595,-2.3595,-2.3595,-2.3595,-2.3595,-2.3595,-2.3595,-2.3595,-2.3595,-2.3595,-2.3595,-2.3595,-2.4132,-2.4261,-2.3506,-2.4414,-2.4945,-2.468,-2.5228,-2.5812,-2.6251,-2.6116,-2.6099,-2.6285,-2.6539,-2.6691,-2.6691,-2.6691,-2.6691,-2.6691,-2.6691,-2.6691,-2.6691,-2.6691,-2.6691,0.0,-0.9854,-1.0064,-1.062,-1.0236,-0.9797,-1.0206,-1.0068,0.0,-1.1543,-1.1783,-1.203,-1.2812,-1.29,-1.291,-1.2998,0.0,0.0,0.0,0.0,0.0,0.0,0.0,0.0,0.0,0.0,0.0,0.0,0.0,0.0,0.0,0.0,0.0,-2.1894,-2.2236,-2.2627,-2.3047,-2.2275,-2.208,-2.2461,-2.2041,-2.1621,-2.123,-2.1201,0.0,0.0,0.0,0.0,0.0,-2.0566,-2.0312,-1.9987,-2.0925,-2.0718,-2.0091,-2.1493,-2.2004,-2.1949,-2.25,-2.286,-2.3078,-2.3078,-2.3078,-2.3078,-2.3078,-2.3078,-2.3065,-2.3027,-2.2686,-2.2121,-2.1568,-2.1478,-2.1506,-2.1609,-2.2146,-2.2785,-2.3406,-2.3551,-2.3595,-2.3595,-2.3595,-2.3595,-2.3595,-2.3595,-2.3595,-2.3595,-2.3595,-2.358,-2.3535,-2.3463,-2.3103,-2.2315,-2.3307,-2.3779,-2.3167,-2.4613,-2.5561,-2.5611,-2.6235,-2.6336,-2.571,-2.6336,-2.6691,-2.6691,-2.6691,-2.6691,-2.6691,-2.6691,-2.6691,-2.6691,-2.664,-2.664,-0.8013,0.0,-0.8524,-0.9074,-0.9342,-0.9606,0.0,-1.0388,-1.0813,-1.1625,0.0,-1.2122,-1.319,-1.3096,-1.3203,0.0,0.0,0.0,0.0,0.0,0.0,0.0,0.0,0.0,0.0,0.0,0.0,0.0,0.0,0.0,0.0,0.0,0.0,-2.1894,-2.166,-2.1738,-2.2178,-2.1982,-2.1934,-2.2031,-2.1592,-2.1338,-2.1221,-2.0879,0.0,0.0,0.0,0.0,-2.0566,-2.0566,-2.0312,-1.9912,-2.0127,-2.0092,-1.9912,-2.0302,-2.104,-2.1901,-2.202,-2.2555,-2.3078,-2.3078,-2.3078,-2.3078,-2.3078,-2.3078,-2.2977,-2.2623,-2.2108,-2.1556,-2.1004,-2.0585,-2.0361,-2.0871,-2.1486,-2.21,-2.2785,-2.3275,-2.3595,-2.3595,-2.3595,-2.3595,-2.3595,-2.3595,-2.3595,-2.3595,-2.3595,-2.343,-2.2951,-2.3188,-2.2917,-2.1672,-2.2172,-2.274,-2.3071,-2.4274,-2.5243,-2.5874,-2.5866,-2.6031,-2.642,-2.6607,-2.6691,-2.6691,-2.6691,-2.6691,-2.6691,-2.6691,-2.6691,-2.6674,-2.6116,-2.6167,-0.7615,-0.7975,-0.8473,-0.9144,-0.9537,-1.0084,-1.104,0.0,0.0,0.0,0.0,-1.2518,-1.3124,0.0,0.0,0.0,0.0,0.0,0.0,0.0,0.0,0.0,0.0,0.0,0.0,0.0,0.0,0.0,0.0,0.0,0.0,0.0,0.0,-2.1289,-2.0556,-2.0738,-2.1875,-2.1484,-2.1387,-2.1582,-2.1143,-2.0928,-2.0918,-2.0674,0.0,0.0,0.0,0.0,-1.998,-1.998,-1.9727,-1.9326,-1.9326,-1.9201,-1.9008,-1.9008,-1.9709,-2.0782,-2.1164,-2.2063,-2.3078,-2.3078,-2.3078,-2.3078,-2.3078,-2.2902,-2.2698,-2.2397,-2.192,-2.1368,-2.0857,-2.0238,-1.9952,-2.0646,-2.1245,-2.1899,-2.2558,-2.3187,-2.3595,-2.3595,-2.3595,-2.3595,-2.3595,-2.3595,-2.3595,-2.3595,-2.3595,-2.3475,-2.3131,-2.2834,-2.2324,-2.1553,-2.1759,-2.2045,-2.245,-2.3755,-2.4846,-2.5415,-2.5661,-2.5916,-2.6184,-2.6302,-2.647,-2.6691,-2.6691,-2.6691,-2.6691,-2.6353,-2.637,-2.6674,-2.5947,-2.5998,-0.7923,-0.8591,-0.9228,-0.9872,-1.0275,-1.0913,-1.218,0.0,0.0,0.0,0.0,0.0,0.0,0.0,0.0,0.0,0.0,0.0,0.0,0.0,0.0,0.0,0.0,0.0,0.0,0.0,0.0,0.0,0.0,0.0,0.0,0.0,0.0,-2.0576,-1.952,-1.9783,-2.1424,-2.07,-2.0516,-2.0883,-2.0664,-2.0566,-2.0566,-2.0498,0.0,0.0,0.0,0.0,-1.9287,-1.9287,-1.9033,-1.8562,-1.8562,-1.8379,-1.8008,-1.8008,-1.8529,-1.9431,-2.0462,-2.1803,-2.3078,-2.3078,-2.3078,-2.3053,-2.2977,-2.2686,-2.2284,-2.2108,-2.1732,-2.123,-2.0677,-2.0175,-1.9952,-2.0497,-2.1197,-2.1852,-2.2406,-2.3098,-2.3595,-2.3595,-2.3595,-2.3595,-2.3595,-2.3595,-2.3595,-2.3595,-2.3595,-2.3565,-2.3475,-2.2517,-2.1799,-2.171,-2.1695,-2.1739,-2.1844,-2.3228,-2.4265,-2.4704,-2.5455,-2.5768,-2.5547,-2.5824,-2.6191,-2.659,-2.6657,-2.6691,-2.6691,-2.6065,-2.6099,-2.6674,-2.5947,-2.5998,-0.8834,-0.9768,-1.0449,-1.0133,-1.0904,-1.181,-1.2168,0.0,0.0,0.0,0.0,0.0,0.0,0.0,0.0,0.0,0.0,0.0,0.0,0.0,0.0,0.0,0.0,0.0,0.0,0.0,0.0,0.0,0.0,0.0,0.0,0.0,0.0,-2.0566,-1.952,-1.9179,-1.9467,-1.9347,-1.9311,-1.9375,-2.0196,-2.0566,-2.0557,-2.0185,-1.998,0.0,0.0,-1.9346,-1.9287,-1.9287,-1.9033,-1.8562,-1.8562,-1.8379,-1.8008,-1.8008,-1.8529,-1.9562,-2.1164,-2.231,-2.3078,-2.3078,-2.3078,-2.305,-2.2585,-2.2385,-2.2121,-2.1179,-2.0907,-2.0718,-2.0087,-1.9874,-1.985,-1.9952,-2.0855,-2.1744,-2.1852,-2.2786,-2.3595,-2.3595,-2.3595,-2.3595,-2.3595,-2.3595,-2.3595,-2.3595,-2.3595,-2.3415,-2.2877,-2.2694,-2.2308,-2.1754,-2.1695,-2.1919,-2.2488,-2.2646,-2.3196,-2.4397,-2.5003,-2.5287,-2.525,-2.575,-2.6049,-2.612,-2.6521,-2.6691,-2.6691,-2.659,-2.659,-2.6674,-2.5947,-2.5998,-0.9122,-1.0249,-1.122,-1.1709,-1.2338,-1.2984,-1.3497,0.0,0.0,0.0,0.0,0.0,0.0,0.0,0.0,0.0,0.0,0.0,0.0,0.0,0.0,0.0,0.0,0.0,0.0,0.0,0.0,0.0,0.0,0.0,0.0,0.0,0.0,0.0,-1.863,-1.7819,-1.7245,-1.7245,-1.7819,-1.9045,-1.952,-1.9887,-2.0205,-2.0,-1.9658,-1.9209,0.0,-1.8809,-1.8594,-1.8594,-1.8477,-1.8301,-1.8301,-1.8184,-1.8008,-1.8008,-1.8529,-1.9497,-2.0782,-2.1741,-2.2506,-2.2944,-2.2924,-2.2636,-2.2385,-2.1895,-2.1317,-2.0857,-2.0718,-2.0539,-1.9949,-1.9798,-1.9798,-1.9798,-2.0521,-2.1293,-2.1615,-2.2423,-2.3187,-2.3551,-2.3595,-2.3595,-2.3595,-2.3595,-2.3595,-2.3595,-2.331,-2.3116,-2.3176,-2.2577,-2.2158,-2.2218,-2.2218,-2.2203,-2.2143,-2.24,-2.2784,-2.3274,-2.4173,-2.4531,-2.4225,-2.4635,-2.5023,-2.5351,-2.5447,-2.549,-2.549,-2.5101,-2.5321,-2.6099,-2.5355,-2.5406,-0.9555,-1.0798,-1.2039,-1.3167,0.0,-1.4052,-1.5094,0.0,0.0,0.0,0.0,0.0,0.0,0.0,0.0,0.0,0.0,0.0,0.0,0.0,0.0,0.0,0.0,0.0,0.0,0.0,0.0,0.0,0.0,0.0,0.0,0.0,0.0,0.0,-1.7814,-1.6718,-1.5584,-1.5509,-1.6314,-1.817,-1.8576,-1.9081,-1.9456,-1.9584,-1.9258,-1.8562,-1.8535,-1.8301,-1.8008,-1.8008,-1.8008,-1.8008,-1.8008,-1.8008,-1.8008,-1.8008,-1.8529,-1.9431,-2.0074,-2.0846,-2.1667,-2.2165,-2.2089,-2.1709,-2.1696,-2.1095,-2.0466,-2.0501,-2.0464,-2.0363,-1.9911,-1.9798,-1.9798,-1.9798,-2.0295,-2.0944,-2.139,-2.2007,-2.2634,-2.3275,-2.3377,-2.3376,-2.34,-2.3385,-2.3325,-2.3176,-2.2757,-2.2622,-2.3086,-2.2293,-2.1889,-2.2398,-2.2484,-2.2173,-2.1515,-2.2069,-2.2269,-2.1809,-2.3007,-2.3554,-2.315,-2.3603,-2.4066,-2.4543,-2.4508,-2.4506,-2.4506,-2.3917,-2.4239,-2.5338,-2.4746,-2.478,-1.0548,-1.1883,-1.308,-1.3611,-1.4039,0.0,-1.6629,-1.7017,0.0,0.0,0.0,0.0,0.0,0.0,0.0,0.0,0.0,0.0,0.0,0.0,0.0,0.0,0.0,0.0,0.0,0.0,0.0,0.0,0.0,0.0,0.0,0.0,0.0,0.0,0.0,-1.642,-1.5328,-1.487,-1.4949,-1.5568,-1.7458,-1.8276,-1.8035,-1.8466,-1.8691,-1.8613,-1.8223,-1.8037,-1.8008,-1.8008,-1.8008,-1.8008,-1.8008,-1.8008,-1.8008,-1.8008,-1.8529,-1.9299,-1.9365,-1.9944,-2.064,-2.024,-2.012,-2.0038,-1.9871,-1.9761,-1.9703,-1.9855,-1.9861,-1.9849,-1.9811,-1.9798,-1.9798,-1.9798,-2.0295,-2.0795,-2.0845,-2.1342,-2.1946,-2.2649,-2.274,-2.2745,-2.2748,-2.2742,-2.2532,-2.1919,-2.1799,-2.1784,-2.1829,-2.1754,-2.171,-2.1754,-2.1769,-2.15,-2.0842,-2.1395,-2.124,-1.9972,-2.1482,-2.243,-2.2393,-2.3227,-2.3737,-2.3786,-2.424,-2.4506,-2.4506,-2.4455,-2.4489,-2.4591,-2.454,-2.454,-1.035,-1.1838,-1.3341,-1.3905,-1.515,0.0,0.0,0.0,0.0,0.0,0.0,0.0,0.0,0.0,0.0,0.0,0.0,0.0,0.0,0.0,0.0,0.0,0.0,0.0,0.0,0.0,0.0,0.0,0.0,0.0,0.0,0.0,0.0,0.0,0.0,-1.5971,-1.4911,-1.4706,-1.461,-1.4612,-1.6885,-1.8091,-1.8366,-1.8498,-1.8496,-1.8242,-1.8076,-1.8008,-1.8008,-1.8008,-1.8008,-1.8008,-1.8008,-1.8008,-1.8008,-1.8008,-1.8202,-1.8596,-1.911,-1.9306,-1.9403,-1.9783,-1.9497,-1.8994,-1.8965,-1.8955,-1.903,-1.9105,-1.9423,-1.9798,-1.9798,-1.9798,-1.9798,-1.9798,-2.0003,-2.0295,-2.0696,-2.0979,-2.1452,-2.2512,-2.2694,-2.2686,-2.2703,-2.2724,-2.2458,-2.1799,-2.135,-2.1231,-2.165,-2.1335,-2.1246,-2.165,-2.1335,-2.1076,-2.1072,-2.0926,-2.0762,-2.0512,-2.1248,-2.1688,-2.1688,-2.2132,-2.2602,-2.3014,-2.3087,-2.3122,-2.3122,-2.3122,-2.3359,-2.3816,-2.3816,-2.3816,-1.0627,-1.2152,-1.374,0.0,0.0,0.0,0.0,0.0,0.0,0.0,0.0,0.0,0.0,0.0,0.0,0.0,0.0,0.0,0.0,0.0,0.0,0.0,0.0,0.0,0.0,0.0,0.0,0.0,0.0,0.0,0.0,0.0,0.0,0.0,0.0,0.0,-1.4942,-1.513,-1.5107,-1.4959,-1.6899,-1.7847,-1.7999,-1.8288,-1.8281,-1.8008,-1.8008,-1.8008,-1.8008,-1.8008,-1.8008,-1.8008,-1.8008,-1.793,-1.7832,-1.7959,-1.7842,-1.7693,-1.8466,-1.8407,-1.8059,-1.858,-1.8278,-1.7785,-1.8148,-1.8302,-1.8447,-1.8927,-1.9423,-1.9798,-1.9798,-1.9798,-1.9798,-1.9798,-1.9798,-1.9952,-2.0396,-2.0497,-2.0782,-2.1894,-2.2081,-2.2059,-2.1857,-2.1936,-2.178,-2.0937,-2.0548,-2.0557,-2.1006,-2.0662,-2.0557,-2.1006,-2.0662,-2.0548,-2.0941,-2.0578,-2.0516,-2.0959,-2.1258,-2.1376,-2.1376,-2.166,-2.2026,-2.2493,-2.2358,-2.231,-2.231,-2.231,-2.2564,-2.3054,-2.3054,-2.3054,-1.1621,-1.2929,-1.4367,0.0,0.0,0.0,0.0,0.0,0.0,0.0,0.0,0.0,0.0,0.0,0.0,0.0,0.0,0.0,0.0,0.0,0.0,0.0,0.0,0.0,0.0,0.0,0.0,0.0,0.0,0.0,0.0,0.0,0.0,0.0,0.0,0.0,-1.561,-1.6263,-1.6636,-1.6636,-1.7569,-1.7501,-1.6636,-1.7579,-1.8008,-1.8008,-1.8008,-1.8008,-1.8008,-1.8008,-1.8008,-1.7998,-1.7998,-1.7744,-1.7432,-1.7842,-1.7461,-1.6797,-1.7227,-1.709,-1.665,-1.6211,-1.6125,-1.6267,-1.7277,-1.7578,-1.7895,-1.9371,-1.9798,-1.9798,-1.9798,-1.9798,-1.9798,-1.9798,-1.9798,-1.9798,-1.9798,-1.9798,-2.0003,-2.0646,-2.0795,-2.0606,-1.9976,-2.0331,-2.0292,-1.908,-1.9369,-1.969,-1.969,-1.969,-1.969,-1.969,-1.969,-1.9874,-2.028,-2.0314,-2.0516,-2.0991,-2.1399,-2.1612,-2.1582,-2.2032,-2.231,-2.231,-2.231,-2.231,-2.231,-2.231,-2.231,-2.231,-2.231,-2.231,-1.1682,-1.3001,0.0,0.0,0.0,0.0,0.0,0.0,0.0,0.0,0.0,0.0,0.0,0.0,0.0,0.0,0.0,0.0,0.0,0.0,0.0,0.0,0.0,0.0,0.0,0.0,0.0,0.0,0.0,0.0,0.0,0.0,0.0,0.0,0.0,0.0,-1.7222,-1.6811,-1.6636,-1.6636,-1.7569,-1.7862,-1.7569,-1.7862,-1.8008,-1.8008,-1.8008,-1.8008,-1.7988,-1.7686,-1.7383,-1.7109,-1.7109,-1.7031,-1.6943,-1.7061,-1.6953,-1.6748,-1.6885,-1.6631,-1.624,-1.6164,-1.5859,-1.5635,-1.5951,-1.68,-1.7677,-1.8112,-1.898,-1.9798,-1.9798,-1.9798,-1.9798,-1.9798,-1.9798,-1.9798,-1.9798,-1.9798,-2.0003,-2.0646,-2.0795,-2.0606,-1.9976,-2.0031,-1.988,-1.9042,-1.9043,-1.9281,-1.9639,-1.969,-1.969,-1.969,-1.969,-2.0015,-2.0731,-2.0797,-2.1118,-2.1886,-2.202,-2.1928,-2.1612,-2.2032,-2.231,-2.231,-2.231,-2.231,-2.231,-2.231,-2.231,-2.231,-2.231,-2.231,-1.3043,0.0,0.0,0.0,0.0,0.0,0.0,0.0,0.0,0.0,0.0,0.0,0.0,0.0,0.0,0.0,0.0,0.0,0.0,0.0,0.0,0.0,0.0,0.0,0.0,0.0,0.0,0.0,0.0,0.0,0.0,0.0,0.0,0.0,0.0,0.0,-1.9403,-1.8218,-1.7658,-1.7658,-1.7745,-1.7764,-1.7764,-1.7939,-1.8008,-1.7998,-1.7832,-1.7666,-1.748,-1.7227,-1.6973,-1.6665,-1.6665,-1.6621,-1.6484,-1.667,-1.6504,-1.623,-1.6406,-1.6172,-1.5801,-1.5801,-1.5625,-1.5468,-1.5748,-1.6641,-1.7688,-1.795,-1.8874,-1.9798,-1.9798,-1.9798,-1.9798,-1.9798,-1.9798,-1.9798,-1.9798,-1.9798,-1.9901,-2.0295,-2.0228,-1.9885,-1.9303,-1.9199,-1.9056,-1.8652,-1.893,-1.9332,-1.9639,-1.969,-1.969,-1.969,-1.969,-2.005,-2.0926,-2.0991,-2.1354,-2.2237,-2.231,-2.2163,-2.1899,-2.2135,-2.231,-2.231,-2.231,-2.231,-2.231,-2.231,-2.231,-2.231,-2.231,-2.231,0.0,0.0,0.0,0.0,0.0,0.0,0.0,0.0,0.0,0.0,0.0,0.0,0.0,0.0,0.0,0.0,0.0,0.0,0.0,0.0,0.0,0.0,0.0,0.0,0.0,0.0,0.0,0.0,0.0,0.0,0.0,0.0,0.0,0.0,0.0,0.0,-2.1834,-2.0222,-1.9357,0.0,-1.8026,-1.738,-1.7334,-1.7715,-1.7891,-1.7871,-1.749,-1.708,-1.667,-1.6544,-1.6578,-1.6548,-1.6486,-1.6296,-1.6055,-1.6465,-1.6103,-1.5469,-1.5869,-1.5742,-1.541,-1.541,-1.541,-1.5526,-1.6208,-1.6978,-1.7743,-1.8394,-1.9202,-1.9798,-1.9798,-1.9798,-1.9798,-1.9798,-1.9798,-1.9798,-1.9798,-1.9798,-1.9798,-1.9798,-1.9384,-1.8857,-1.8304,-1.8216,-1.8169,-1.8163,-1.9043,-1.969,-1.969,-1.969,-1.969,-1.969,-1.969,-2.005,-2.0862,-2.0959,-2.1354,-2.218,-2.2282,-2.231,-2.231,-2.231,-2.231,-2.231,-2.231,-2.231,-2.231,-2.231,-2.231,-2.231,-2.231,-2.231,0.0,0.0,0.0,0.0,0.0,0.0,0.0,0.0,0.0,0.0,0.0,0.0,0.0,0.0,0.0,0.0,0.0,0.0,0.0,0.0,0.0,0.0,0.0,0.0,0.0,0.0,0.0,0.0,0.0,0.0,0.0,0.0,0.0,0.0,0.0,-2.4081,-2.2735,-2.127,-1.9929,0.0,-1.804,-1.7405,-1.6875,-1.6963,-1.7002,-1.7002,-1.6914,-1.6621,-1.6201,-1.5576,-1.544,-1.5634,-1.4958,-1.5091,-1.5566,-1.5664,-1.5576,-1.542,-1.5518,-1.5488,-1.541,-1.541,-1.541,-1.541,-1.5584,-1.6585,-1.7633,-1.7797,-1.8768,-1.9798,-1.9798,-1.9798,-1.9798,-1.9798,-1.9798,-1.9798,-1.9798,-1.9798,-1.9798,-1.9798,-1.9384,-1.8857,-1.8304,-1.8216,-1.8296,-1.8673,-1.9281,-1.969,-1.969,-1.969,-1.969,-1.969,-1.969,-1.9909,-2.0416,-2.0797,-2.1213,-2.1718,-2.2106,-2.231,-2.231,-2.231,-2.231,-2.231,-2.231,-2.231,-2.231,-2.231,-2.231,-2.231,-2.231,-2.231,0.0,0.0,0.0,0.0,0.0,0.0,0.0,0.0,0.0,0.0,0.0,0.0,0.0,0.0,0.0,0.0,0.0,0.0,0.0,0.0,0.0,0.0,0.0,0.0,0.0,0.0,0.0,0.0,0.0,0.0,0.0,0.0,0.0,0.0,-2.636,-2.5388,-2.464,-2.2242,-2.0664,-1.9858,-1.8272,-1.7002,-1.6113,-1.6533,-1.6611,-1.6416,-1.6416,-1.5969,-1.5194,-1.5134,-1.5012,-1.4815,-1.4815,-1.505,-1.541,-1.541,-1.541,-1.541,-1.541,-1.541,-1.541,-1.541,-1.541,-1.541,-1.541,-1.6197,-1.7146,-1.7523,-1.8394,-1.9359,-1.9695,-1.9798,-1.9798,-1.9798,-1.9798,-1.9798,-1.9798,-1.961,-1.9434,-1.9434,-1.8794,-1.8154,-1.7865,-1.8009,-1.8317,-1.8822,-1.9369,-1.969,-1.969,-1.969,-1.969,-1.969,-1.969,-1.9945,-2.0583,-2.0862,-2.126,-2.1899,-2.2163,-2.231,-2.231,-2.231,-2.231,-2.231,-2.231,-2.231,-2.231,-2.231,-2.231,-2.231,-2.231,-2.231,0.0,0.0,0.0,0.0,0.0,0.0,0.0,0.0,0.0,0.0,0.0,0.0,0.0,0.0,0.0,0.0,0.0,0.0,0.0,0.0,0.0,0.0,0.0,0.0,0.0,0.0,0.0,0.0,0.0,0.0,0.0,0.0,-2.7596,-2.828,-2.7131,-2.6404,-2.6213,-2.3275,-2.1521,-2.1051,-1.8347,-1.6519,-1.543,-1.6172,-1.6299,-1.5947,-1.5827,-1.5254,-1.4451,-1.4688,-1.4619,-1.4451,-1.4805,-1.5167,-1.541,-1.541,-1.541,-1.541,-1.541,-1.541,-1.541,-1.541,-1.541,-1.541,-1.541,-1.5921,-1.6652,-1.7246,-1.8015,-1.8821,-1.9475,-1.9695,-1.9798,-1.9798,-1.9736,-1.966,-1.966,-1.9258,-1.8833,-1.8833,-1.8078,-1.744,-1.7505,-1.7851,-1.8302,-1.893,-1.9406,-1.969,-1.969,-1.969,-1.969,-1.969,-1.969,-2.0015,-2.0797,-2.0959,-2.1323,-2.2135,-2.2254,-2.231,-2.231,-2.231,-2.231,-2.231,-2.231,-2.231,-2.231,-2.231,-2.231,-2.231,-2.231,-2.231,0.0,0.0,0.0,0.0,0.0,0.0,0.0,0.0,0.0,0.0,0.0,0.0,0.0,0.0,0.0,0.0,0.0,0.0,0.0,0.0,0.0,0.0,0.0,0.0,0.0,0.0,0.0,0.0,0.0,0.0,0.0,-2.6782,-2.6814,-2.7343,-2.7189,-2.6557,-2.5461,-2.4513,-2.2867,-2.0586,-1.7879,-1.6144,-1.542,-1.5537,-1.5557,-1.5439,-1.4771,-1.4743,-1.5108,-1.3105,-1.3468,-1.5108,-1.3846,-1.4145,-1.541,-1.541,-1.541,-1.541,-1.541,-1.541,-1.541,-1.541,-1.541,-1.541,-1.541,-1.5921,-1.6549,-1.6595,-1.7633,-1.8715,-1.8821,-1.9307,-1.9798,-1.9798,-1.9459,-1.9133,-1.9133,-1.8706,-1.8317,-1.8317,-1.7815,-1.7511,-1.7923,-1.8082,-1.8458,-1.9442,-1.9639,-1.969,-1.969,-1.969,-1.969,-1.969,-1.969,-1.9874,-2.0348,-2.0764,-2.1181,-2.1658,-2.2077,-2.231,-2.231,-2.231,-2.231,-2.231,-2.231,-2.231,-2.231,-2.231,-2.231,-2.231,-2.231,-2.231,0.0,0.0,0.0,0.0,0.0,0.0,0.0,0.0,0.0,0.0,0.0,0.0,0.0,0.0,0.0,0.0,0.0,0.0,0.0,0.0,0.0,0.0,0.0,0.0,0.0,0.0,0.0,0.0,0.0,0.0,-2.6595,-2.6734,-2.7074,-2.7681,-2.7347,-2.6905,-2.6293,-2.4719,-2.2615,-2.0022,-1.8041,-1.6754,-1.5979,-1.5584,-1.541,-1.5352,-1.505,-1.4569,-1.4025,-1.3416,-1.3226,-1.3408,-1.3606,-1.3855,-1.4154,-1.505,-1.5108,-1.4805,-1.5235,-1.541,-1.541,-1.541,-1.541,-1.541,-1.541,-1.5642,-1.5979,-1.6368,-1.7246,-1.8178,-1.8608,-1.9254,-1.9798,-1.9798,-1.9171,-1.8505,-1.8279,-1.7978,-1.7731,-1.7689,-1.7519,-1.7587,-1.8422,-1.8535,-1.8817,-1.9566,-1.969,-1.969,-1.969,-1.969,-1.969,-1.969,-1.969,-1.9874,-2.028,-2.0731,-2.1181,-2.1582,-2.2032,-2.231,-2.231,-2.231,-2.231,-2.231,-2.231,-2.231,-2.231,-2.231,-2.231,-2.231,-2.231,-2.231,0.0,0.0,0.0,0.0,0.0,0.0,0.0,0.0,0.0,0.0,0.0,0.0,0.0,0.0,0.0,0.0,0.0,0.0,0.0,0.0,0.0,0.0,0.0,0.0,0.0,0.0,0.0,0.0,0.0,0.0,-2.628,-2.6634,-2.7143,-2.7881,-2.7324,-2.6989,-2.6936,-2.4667,-2.2295,-1.994,-1.8708,-1.7677,-1.6754,-1.6036,-1.569,-1.5633,-1.5284,-1.451,-1.3606,-1.3597,-1.3105,-1.2504,-1.3295,-1.3364,-1.3183,-1.4569,-1.4746,-1.4332,-1.5108,-1.541,-1.541,-1.541,-1.541,-1.541,-1.541,-1.541,-1.5526,-1.6322,-1.7034,-1.7797,-1.8501,-1.9254,-1.9773,-1.9635,-1.8894,-1.8041,-1.7463,-1.7237,-1.72,-1.728,-1.7312,-1.7626,-1.8727,-1.8893,-1.908,-1.9603,-1.969,-1.969,-1.969,-1.969,-1.9747,-1.9839,-1.9747,-1.9909,-2.0416,-2.0797,-2.1181,-2.1582,-2.2032,-2.231,-2.231,-2.231,-2.231,-2.231,-2.231,-2.231,-2.231,-2.231,-2.231,-2.231,-2.231,-2.231,0.0,0.0,0.0,0.0,0.0,0.0,0.0,0.0,0.0,0.0,0.0,0.0,0.0,0.0,0.0,0.0,0.0,0.0,0.0,0.0,0.0,0.0,0.0,0.0,0.0,0.0,0.0,0.0,0.0,0.0,-2.664,-2.6277,-2.6452,-2.7313,-2.6942,-2.6657,-2.6539,-2.4531,-2.2521,-2.0562,-1.9877,-1.8879,-1.7523,-1.6754,-1.6436,-1.6368,-1.4914,-1.4628,-1.5108,-1.2862,-1.274,-1.3906,-1.2504,-1.2389,-1.313,-1.3965,-1.4273,-1.4332,-1.5108,-1.541,-1.541,-1.541,-1.541,-1.541,-1.541,-1.541,-1.5526,-1.6322,-1.7034,-1.7797,-1.8501,-1.9254,-1.9673,-1.9183,-1.8631,-1.7903,-1.681,-1.6572,-1.6718,-1.7201,-1.7312,-1.7626,-1.8727,-1.8893,-1.908,-1.9603,-1.969,-1.969,-1.969,-1.969,-1.9839,-2.0212,-1.9945,-2.005,-2.0894,-2.1007,-2.1181,-2.1582,-2.2032,-2.231,-2.231,-2.231,-2.231,-2.231,-2.231,-2.231,-2.231,-2.231,-2.231,-2.231,-2.231,-2.231,0.0,0.0,0.0,0.0,0.0,0.0,0.0,0.0,0.0,0.0,0.0,0.0,0.0,0.0,0.0,0.0,0.0,0.0,0.0,0.0,0.0,0.0,0.0,0.0,0.0,0.0,0.0,0.0,0.0,0.0,-2.7439,-2.7299,-2.7361,-2.7695,-2.7547,-2.7029,-2.6062,-2.4642,-2.3286,-2.1918,-2.0393,-1.9267,-1.8437,-1.7574,-1.7027,-1.67,-1.6483,-1.5698,-1.4569,-1.3717,-1.3053,-1.2626,-1.2573,-1.2151,-1.1663,-1.3537,-1.3846,-1.3606,-1.4932,-1.541,-1.541,-1.541,-1.541,-1.541,-1.541,-1.541,-1.5526,-1.6322,-1.7034,-1.7797,-1.8501,-1.901,-1.9083,-1.8179,-1.7539,-1.7087,-1.7041,-1.6993,-1.7146,-1.7706,-1.8106,-1.8574,-1.9281,-1.9406,-1.9479,-1.969,-1.969,-1.969,-1.969,-1.969,-1.9747,-1.9909,-2.0035,-2.0227,-2.0516,-2.107,-2.143,-2.1582,-2.2032,-2.231,-2.231,-2.231,-2.231,-2.231,-2.231,-2.231,-2.231,-2.231,-2.231,-2.231,-2.249,-2.2563,0.0,0.0,0.0,0.0,0.0,0.0,0.0,0.0,0.0,0.0,0.0,0.0,0.0,0.0,0.0,0.0,0.0,0.0,0.0,0.0,0.0,0.0,0.0,0.0,0.0,0.0,0.0,0.0,0.0,0.0,-2.7548,-2.7308,-2.7166,-2.7166,-2.7138,-2.6509,-2.5278,-2.4297,-2.3295,-2.2251,-2.0724,-1.9734,-1.9158,-1.8142,-1.7514,-1.7162,-1.7089,-1.6269,-1.4963,-1.466,-1.3819,-1.2626,-1.2573,-1.1965,-1.117,-1.281,-1.3243,-1.3183,-1.451,-1.5167,-1.541,-1.541,-1.541,-1.541,-1.541,-1.5584,-1.5891,-1.6462,-1.7115,-1.7836,-1.8406,-1.8511,-1.8292,-1.7551,-1.7068,-1.6879,-1.7229,-1.7312,-1.7504,-1.8224,-1.865,-1.908,-1.9603,-1.969,-1.969,-1.969,-1.969,-1.969,-1.969,-1.969,-1.9818,-2.012,-2.0227,-2.0416,-2.0699,-2.1259,-2.1582,-2.1582,-2.2032,-2.231,-2.231,-2.231,-2.231,-2.231,-2.231,-2.231,-2.231,-2.231,-2.2349,-2.2453,-2.2625,-2.2822,0.0,0.0,0.0,0.0,0.0,0.0,0.0,0.0,0.0,0.0,0.0,0.0,0.0,0.0,0.0,0.0,0.0,0.0,0.0,0.0,0.0,0.0,0.0,0.0,0.0,0.0,0.0,0.0,0.0,-2.6748,-2.6871,-2.6159,-2.5727,-2.5745,-2.559,-2.5108,-2.4245,-2.3503,-2.2551,-2.1436,-2.0956,-2.0415,-1.9784,-1.8544,-1.7937,-1.7865,-1.6631,-1.6242,-1.6518,-1.5648,-1.4915,-1.4085,-1.2435,-1.1834,-1.1834,-1.1834,-1.2328,-1.313,-1.3906,-1.4756,-1.541,-1.541,-1.541,-1.541,-1.54,-1.5901,-1.6536,-1.6751,-1.7341,-1.79,-1.8113,-1.779,-1.7388,-1.7363,-1.7334,-1.7312,-1.7312,-1.7353,-1.7666,-1.8688,-1.8893,-1.9095,-1.9603,-1.969,-1.969,-1.969,-1.969,-1.969,-1.969,-1.969,-2.0015,-2.0894,-2.0583,-2.0667,-2.1521,-2.1612,-2.1612,-2.1612,-2.2032,-2.231,-2.231,-2.231,-2.231,-2.231,-2.231,-2.231,-2.231,-2.231,-2.2409,-2.2695,-2.2721,-2.3069,-0.8971,0.0,0.0,0.0,0.0,0.0,0.0,0.0,0.0,0.0,0.0,0.0,0.0,0.0,0.0,0.0,0.0,0.0,0.0,0.0,0.0,0.0,0.0,0.0,0.0,0.0,0.0,0.0,-2.6146,-2.6545,-2.6882,-2.6841,-2.673,-2.6552,-2.6009,-2.5366,-2.4643,-2.3883,-2.3211,-2.2545,-2.1663,-2.0881,-2.0294,-1.9594,-1.9057,-1.8612,-1.8298,-1.8142,-1.797,-1.6255,-1.5352,-1.4857,-1.3278,-1.2328,-1.1834,-1.1834,-1.2328,-1.313,-1.3906,-1.4756,-1.541,-1.541,-1.541,-1.5409,-1.5594,-1.578,-1.605,-1.6809,-1.7173,-1.7362,-1.7554,-1.7501,-1.7275,-1.6861,-1.7037,-1.7435,-1.7787,-1.8185,-1.8535,-1.8855,-1.9207,-1.953,-1.969,-1.969,-1.969,-1.969,-1.969,-1.969,-1.969,-1.969,-1.9909,-2.0449,-2.0682,-2.1023,-2.1552,-2.1899,-2.2106,-2.2106,-2.2237,-2.231,-2.231,-2.231,-2.231,-2.231,-2.231,-2.231,-2.231,-2.231,-2.2349,-2.2426,-2.2865,-2.3414,0.0,0.0,0.0,0.0,0.0,0.0,0.0,0.0,0.0,0.0,0.0,0.0,0.0,0.0,0.0,0.0,0.0,0.0,0.0,0.0,0.0,0.0,0.0,0.0,0.0,0.0,0.0,0.0,-2.5789,-2.608,-2.611,-2.6177,-2.6145,-2.6032,-2.5178,-2.4544,-2.413,-2.3261,-2.2671,-2.2407,-2.1604,-2.0956,-2.0394,-1.9928,-1.9412,-1.8887,-1.8682,-1.8587,-1.8405,-1.6895,-1.6095,-1.5591,-1.3709,-1.2823,-1.2514,-1.1936,-1.2244,-1.3023,-1.3487,-1.4184,-1.4883,-1.4883,-1.4883,-1.4946,-1.5334,-1.568,-1.6036,-1.6602,-1.6835,-1.6873,-1.701,-1.7188,-1.726,-1.6914,-1.7435,-1.8066,-1.838,-1.8855,-1.9244,-1.9244,-1.9479,-1.969,-1.969,-1.969,-1.969,-1.969,-1.969,-1.969,-1.969,-1.969,-1.9839,-2.0246,-2.0715,-2.115,-2.1552,-2.2032,-2.231,-2.231,-2.231,-2.231,-2.231,-2.231,-2.231,-2.231,-2.231,-2.2349,-2.2463,-2.2463,-2.2607,-2.2892,-2.3387,-2.3816,-1.2497,-1.2285,0.0,0.0,0.0,0.0,0.0,-1.337,0.0,0.0,0.0,0.0,0.0,0.0,0.0,0.0,0.0,0.0,0.0,0.0,0.0,0.0,0.0,0.0,0.0,0.0,-2.4526,-2.5031,-2.5412,-2.5452,-2.5049,-2.4891,-2.4799,-2.4756,-2.3753,-2.3194,-2.3141,-2.2158,-2.1688,-2.1658,-2.1244,-2.0846,-2.0449,-1.9904,-1.9441,-1.9029,-1.8444,-1.8262,-1.8283,-1.7378,-1.684,-1.6353,-1.3948,-1.3239,-1.3453,-1.2187,-1.218,-1.2922,-1.2922,-1.3422,-1.4077,-1.4077,-1.4131,-1.4334,-1.4966,-1.5604,-1.6257,-1.6291,-1.641,-1.6522,-1.6522,-1.6909,-1.7312,-1.7312,-1.8145,-1.8893,-1.8893,-1.9332,-1.969,-1.969,-1.969,-1.969,-1.969,-1.969,-1.969,-1.969,-1.969,-1.969,-1.969,-1.9747,-1.9909,-2.0348,-2.0781,-2.1213,-2.1658,-2.2061,-2.231,-2.231,-2.231,-2.231,-2.231,-2.231,-2.231,-2.231,-2.2321,-2.249,-2.2822,-2.2772,-2.3069,-2.3714,-2.3996,-2.417,-1.4078,-1.3947,-1.396,0.0,0.0,0.0,0.0,-1.1977,0.0,0.0,0.0,0.0,0.0,0.0,0.0,0.0,0.0,0.0,0.0,0.0,0.0,0.0,0.0,0.0,0.0,0.0,-2.3955,-2.4207,-2.4798,-2.5177,-2.5243,-2.5065,-2.4793,-2.4407,-2.378,-2.3221,-2.2797,-2.2364,-2.2163,-2.2163,-2.1705,-2.143,-2.1321,-2.0534,-2.0093,-1.9989,-1.9126,-1.902,-1.9249,-1.732,-1.6708,-1.6768,-1.4516,-1.3654,-1.3612,-1.218,-1.218,-1.2922,-1.2922,-1.3422,-1.4077,-1.4077,-1.445,-1.4956,-1.5202,-1.5728,-1.6327,-1.6426,-1.6467,-1.6522,-1.6522,-1.6909,-1.7312,-1.7312,-1.8145,-1.8893,-1.8893,-1.9332,-1.969,-1.969,-1.969,-1.969,-1.969,-1.969,-1.969,-1.969,-1.969,-1.969,-1.969,-1.9965,-2.0348,-2.0829,-2.1244,-2.1658,-2.2106,-2.2254,-2.231,-2.231,-2.231,-2.231,-2.231,-2.231,-2.231,-2.231,-2.25,-2.2898,-2.3482,-2.3236,-2.3323,-2.3692,-2.3774,-2.3937,-1.5886,-1.5806,-1.5806,-1.4707,0.0,0.0,0.0,0.0,0.0,0.0,0.0,0.0,0.0,0.0,0.0,0.0,0.0,0.0,0.0,0.0,0.0,0.0,0.0,0.0,0.0,0.0,-2.3862,-2.4229,-2.4655,-2.493,-2.5056,-2.4864,-2.4576,-2.4153,-2.3635,-2.3141,-2.2695,-2.2409,-2.231,-2.231,-2.2061,-2.1823,-2.1582,-2.0943,-2.0516,-2.028,-1.9594,-1.9307,-1.9223,-1.8109,-1.7631,-1.7371,-1.4806,-1.3902,-1.3959,-1.2742,-1.255,-1.288,-1.288,-1.3138,-1.3557,-1.3831,-1.4183,-1.4577,-1.5265,-1.5901,-1.643,-1.6467,-1.6522,-1.6522,-1.6522,-1.7118,-1.7706,-1.7706,-1.8535,-1.9281,-1.9281,-1.953,-1.969,-1.969,-1.969,-1.969,-1.969,-1.969,-1.969,-1.969,-1.969,-1.969,-1.969,-2.0054,-2.0382,-2.0616,-2.1228,-2.1688,-2.1928,-2.218,-2.231,-2.231,-2.231,-2.231,-2.231,-2.231,-2.236,-2.25,-2.2789,-2.3189,-2.3692,-2.3692,-2.3795,-2.3937,-2.3937,-2.4036,0.0,0.0,0.0,0.0,0.0,-1.5845,0.0,0.0,0.0,-1.5114,0.0,0.0,0.0,0.0,0.0,0.0,0.0,0.0,0.0,0.0,0.0,0.0,0.0,0.0,0.0,0.0,-2.3634,-2.4441,-2.4385,-2.4431,-2.4689,-2.4505,-2.421,-2.3815,-2.3343,-2.2947,-2.2625,-2.2398,-2.231,-2.231,-2.231,-2.2106,-2.1718,-2.1306,-2.0862,-2.0416,-2.0,-1.9551,-1.9043,-1.893,-1.865,-1.7999,-1.5339,-1.449,-1.4639,-1.3504,-1.3065,-1.3065,-1.2929,-1.2968,-1.3152,-1.3637,-1.3956,-1.4365,-1.5454,-1.6095,-1.6522,-1.6522,-1.6522,-1.6522,-1.6637,-1.7394,-1.8145,-1.8224,-1.9006,-1.969,-1.969,-1.969,-1.969,-1.969,-1.969,-1.969,-1.969,-1.969,-1.969,-1.969,-1.969,-1.969,-1.969,-2.0124,-2.0449,-2.0449,-2.1197,-2.1718,-2.1718,-2.2077,-2.231,-2.231,-2.231,-2.231,-2.231,-2.231,-2.2453,-2.2797,-2.3069,-2.3392,-2.3795,-2.4074,-2.419,-2.419,-2.419,-2.419,0.0,0.0,0.0,0.0,-1.6624,0.0,0.0,0.0,-1.5007,-1.4193,0.0,0.0,0.0,0.0,0.0,0.0,0.0,0.0,0.0,0.0,0.0,0.0,0.0,0.0,0.0,0.0,0.0,-2.4366,-2.3309,-2.3107,-2.43,-2.4173,-2.3775,-2.3122,-2.2877,-2.2625,-2.2349,-2.231,-2.231,-2.231,-2.231,-2.2282,-2.2209,-2.1735,-2.1306,-2.0894,-2.0416,-1.9984,-1.9566,-1.9095,-1.8855,-1.8636,-1.6818,-1.6114,-1.5976,-1.4329,-1.3684,-1.3637,-1.3113,-1.3238,-1.3732,-1.3779,-1.4503,-1.5543,-1.6194,-1.6436,-1.6522,-1.6522,-1.6522,-1.6595,-1.7076,-1.7666,-1.8224,-1.8688,-1.9281,-1.969,-1.969,-1.969,-1.969,-1.969,-1.969,-1.969,-1.969,-1.969,-1.969,-1.969,-1.969,-1.969,-1.969,-2.0398,-2.0926,-2.0926,-2.1705,-2.2209,-2.2209,-2.2282,-2.231,-2.231,-2.231,-2.231,-2.231,-2.231,-2.2571,-2.3117,-2.3165,-2.3522,-2.4151,-2.417,-2.419,-2.419,-2.419,-2.419,0.0,0.0,0.0,0.0,0.0,0.0,0.0,0.0,-1.5424,0.0,0.0,0.0,0.0,0.0,0.0,0.0,0.0,0.0,0.0,0.0,0.0,0.0,0.0,0.0,0.0,0.0,0.0,0.0,0.0,-2.199,-2.297,-2.3353,-2.332,-2.2853,-2.2737,-2.2573,-2.231,-2.231,-2.231,-2.231,-2.231,-2.231,-2.2282,-2.1584,-2.115,-2.0959,-2.0277,-1.9839,-1.969,-1.9442,-1.9369,-1.9244,-1.7906,-1.697,-1.625,-1.4858,-1.4329,-1.4283,-1.4025,-1.4107,-1.4376,-1.4721,-1.541,-1.6194,-1.6423,-1.6522,-1.6522,-1.6522,-1.6522,-1.6637,-1.7146,-1.7706,-1.8263,-1.8765,-1.9332,-1.969,-1.969,-1.969,-1.969,-1.969,-1.969,-1.969,-1.969,-1.969,-1.969,-1.969,-1.9909,-2.007,-2.007,-2.0813,-2.1337,-2.1337,-2.1915,-2.231,-2.231,-2.231,-2.231,-2.231,-2.231,-2.231,-2.231,-2.231,-2.2571,-2.3189,-2.3189,-2.3522,-2.419,-2.419,-2.419,-2.419,-2.419,-2.419,-1.969,0.0,0.0,0.0,0.0,0.0,0.0,0.0,0.0,0.0,0.0,0.0,0.0,0.0,0.0,0.0,0.0,0.0,0.0,0.0,0.0,0.0,0.0,0.0,0.0,0.0,0.0,0.0,0.0,0.0,-2.175,-2.2323,-2.2621,-2.2599,-2.2599,-2.25,-2.231,-2.231,-2.231,-2.231,-2.231,-2.231,-2.2282,-2.1507,-2.1086,-2.0975,-2.0208,-1.9818,-1.969,-1.969,-1.9603,-1.9406,-1.8458,-1.7518,-1.6519,-1.5353,-1.4971,-1.4926,-1.4755,-1.4789,-1.5062,-1.5644,-1.6139,-1.6522,-1.6522,-1.6522,-1.6522,-1.6522,-1.6595,-1.6837,-1.7394,-1.7907,-1.8458,-1.9006,-1.9406,-1.969,-1.969,-1.969,-1.969,-1.969,-1.969,-1.969,-1.969,-1.969,-1.9747,-1.9839,-2.0124,-2.0348,-2.0483,-2.1134,-2.1582,-2.1582,-2.2032,-2.231,-2.231,-2.231,-2.231,-2.231,-2.231,-2.231,-2.231,-2.231,-2.2571,-2.3189,-2.3189,-2.3522,-2.419,-2.419,-2.419,-2.419,-2.419,-2.419,0.0,0.0,0.0,-1.8041,0.0,0.0,0.0,0.0,-1.7635,0.0,0.0,0.0,0.0,0.0,0.0,0.0,0.0,0.0,0.0,0.0,0.0,0.0,0.0,0.0,0.0,0.0,0.0,0.0,0.0,0.0,-2.0977,-2.1165,-2.1521,-2.2276,-2.2293,-2.231,-2.231,-2.231,-2.231,-2.231,-2.231,-2.231,-2.2282,-2.1794,-2.1368,-2.0959,-2.0483,-2.0054,-1.969,-1.969,-1.9406,-1.8855,-1.8341,-1.7747,-1.7133,-1.5971,-1.5588,-1.5499,-1.4926,-1.5096,-1.5676,-1.6281,-1.6466,-1.6522,-1.6522,-1.6522,-1.6522,-1.6522,-1.6879,-1.7394,-1.7947,-1.8458,-1.9006,-1.9566,-1.969,-1.969,-1.969,-1.969,-1.969,-1.969,-1.969,-1.969,-1.969,-1.969,-1.9839,-2.0212,-2.028,-2.0449,-2.0926,-2.1337,-2.1582,-2.1582,-2.2032,-2.231,-2.231,-2.231,-2.231,-2.231,-2.231,-2.231,-2.231,-2.231,-2.2571,-2.3189,-2.3189,-2.3522,-2.419,-2.419,-2.419,-2.419,-2.419,-2.419,0.0,0.0,-1.9465,-1.8597,0.0,0.0,0.0,0.0,0.0,0.0,0.0,0.0,0.0,0.0,0.0,0.0,0.0,0.0,0.0,0.0,0.0,0.0,0.0,0.0,0.0,0.0,0.0,0.0,0.0,0.0,0.0,-2.0787,-2.1553,-2.1823,-2.2135,-2.231,-2.231,-2.231,-2.231,-2.231,-2.231,-2.231,-2.2282,-2.1823,-2.1368,-2.0959,-2.0516,-2.0054,-1.969,-1.969,-1.9369,-1.8855,-1.8302,-1.7787,-1.7229,-1.6484,-1.6194,-1.6151,-1.5964,-1.602,-1.6238,-1.6423,-1.6522,-1.6522,-1.6522,-1.6522,-1.6552,-1.6909,-1.7146,-1.7504,-1.8419,-1.8765,-1.9043,-1.9566,-1.969,-1.969,-1.969,-1.969,-1.969,-1.969,-1.969,-1.969,-1.969,-1.9909,-2.0158,-2.028,-2.0797,-2.1228,-2.1368,-2.1811,-2.2061,-2.2061,-2.2209,-2.231,-2.231,-2.231,-2.231,-2.231,-2.231,-2.231,-2.231,-2.231,-2.248,-2.2873,-2.3093,-2.3414,-2.3876,-2.4094,-2.419,-2.419,-2.419,-2.419,-1.969,-1.969,0.0,-1.8867,-1.8388,0.0,-1.7219,0.0,0.0,0.0,0.0,0.0,0.0,0.0,0.0,0.0,0.0,0.0,0.0,0.0,0.0,0.0,0.0,0.0,0.0,0.0,-1.4907,-1.5747,0.0,0.0,0.0,0.0,-2.1055,-2.1807,-2.2135,-2.231,-2.231,-2.231,-2.231,-2.231,-2.231,-2.231,-2.2282,-2.1823,-2.146,-2.1181,-2.0583,-2.0158,-1.9909,-1.9747,-1.9281,-1.8574,-1.8224,-1.7666,-1.6951,-1.6637,-1.6522,-1.6522,-1.6522,-1.6522,-1.6522,-1.6522,-1.6522,-1.6522,-1.6522,-1.6637,-1.6879,-1.7188,-1.7585,-1.8027,-1.8727,-1.9043,-1.9281,-1.9603,-1.969,-1.969,-1.969,-1.969,-1.969,-1.969,-1.969,-1.969,-1.969,-2.0158,-2.055,-2.055,-2.1134,-2.1658,-2.1823,-2.2106,-2.231,-2.231,-2.231,-2.231,-2.231,-2.231,-2.231,-2.231,-2.231,-2.2349,-2.2453,-2.2436,-2.2643,-2.3045,-2.3259,-2.3544,-2.3876,-2.4094,-2.419,-2.419,-2.419,-2.419]}]]